<?xml version="1.0" encoding="UTF-8" standalone="no" ?>
<gpx xmlns="http://www.topografix.com/GPX/1/1" xmlns:xsi="http://www.w3.org/2001/XMLSchema-instance" xsi:schemaLocation="http://www.topografix.com/GPX/1/1 http://www.topografix.com/GPX/1/1/gpx.xsd" version="1.1" creator="VisuGPX - https://www.visugpx.com">
  <metadata>
    <name>Col de la Toppe</name>
    <desc><![CDATA[Départ port du canal 
col de la Toppe pas la rente de Chamerey]]></desc>
  </metadata>
  <trk>
    <name><![CDATA[Col de la Toppe-25-03-2012]]></name>
    <trkseg>
      <trkpt lat="47.28975" lon="5.06725">
        <ele>196</ele>
        <time>2012-03-25T07:57:37Z</time>
      </trkpt>
      <trkpt lat="47.28962" lon="5.06722">
        <ele>168</ele>
        <time>2012-03-25T07:57:59Z</time>
      </trkpt>
      <trkpt lat="47.28962" lon="5.0672">
        <ele>167</ele>
        <time>2012-03-25T07:58:01Z</time>
      </trkpt>
      <trkpt lat="47.28975" lon="5.0673">
        <ele>186</ele>
        <time>2012-03-25T07:59:18Z</time>
      </trkpt>
      <trkpt lat="47.2899" lon="5.06733">
        <ele>197</ele>
        <time>2012-03-25T07:59:22Z</time>
      </trkpt>
      <trkpt lat="47.29012" lon="5.06737">
        <ele>219</ele>
        <time>2012-03-25T07:59:34Z</time>
      </trkpt>
      <trkpt lat="47.29025" lon="5.0674">
        <ele>230</ele>
        <time>2012-03-25T07:59:51Z</time>
      </trkpt>
      <trkpt lat="47.29008" lon="5.0673">
        <ele>228</ele>
        <time>2012-03-25T08:00:27Z</time>
      </trkpt>
      <trkpt lat="47.28997" lon="5.0671">
        <ele>230</ele>
        <time>2012-03-25T08:00:33Z</time>
      </trkpt>
      <trkpt lat="47.28977" lon="5.06692">
        <ele>231</ele>
        <time>2012-03-25T08:00:39Z</time>
      </trkpt>
      <trkpt lat="47.28915" lon="5.06625">
        <ele>236</ele>
        <time>2012-03-25T08:01:02Z</time>
      </trkpt>
      <trkpt lat="47.289" lon="5.066">
        <ele>237</ele>
        <time>2012-03-25T08:01:10Z</time>
      </trkpt>
      <trkpt lat="47.28898" lon="5.0658">
        <ele>233</ele>
        <time>2012-03-25T08:01:14Z</time>
      </trkpt>
      <trkpt lat="47.28905" lon="5.06555">
        <ele>233</ele>
        <time>2012-03-25T08:01:18Z</time>
      </trkpt>
      <trkpt lat="47.28908" lon="5.06532">
        <ele>233</ele>
        <time>2012-03-25T08:01:22Z</time>
      </trkpt>
      <trkpt lat="47.28895" lon="5.06522">
        <ele>233</ele>
        <time>2012-03-25T08:01:26Z</time>
      </trkpt>
      <trkpt lat="47.28875" lon="5.0651">
        <ele>234</ele>
        <time>2012-03-25T08:01:30Z</time>
      </trkpt>
      <trkpt lat="47.2885" lon="5.06492">
        <ele>234</ele>
        <time>2012-03-25T08:01:34Z</time>
      </trkpt>
      <trkpt lat="47.28833" lon="5.06475">
        <ele>238</ele>
        <time>2012-03-25T08:01:38Z</time>
      </trkpt>
      <trkpt lat="47.28815" lon="5.06452">
        <ele>243</ele>
        <time>2012-03-25T08:01:44Z</time>
      </trkpt>
      <trkpt lat="47.28802" lon="5.06435">
        <ele>245</ele>
        <time>2012-03-25T08:01:48Z</time>
      </trkpt>
      <trkpt lat="47.28785" lon="5.0642">
        <ele>249</ele>
        <time>2012-03-25T08:01:52Z</time>
      </trkpt>
      <trkpt lat="47.28767" lon="5.06402">
        <ele>246</ele>
        <time>2012-03-25T08:01:57Z</time>
      </trkpt>
      <trkpt lat="47.2875" lon="5.06383">
        <ele>245</ele>
        <time>2012-03-25T08:02:01Z</time>
      </trkpt>
      <trkpt lat="47.28737" lon="5.06367">
        <ele>245</ele>
        <time>2012-03-25T08:02:05Z</time>
      </trkpt>
      <trkpt lat="47.28712" lon="5.06337">
        <ele>245</ele>
        <time>2012-03-25T08:02:11Z</time>
      </trkpt>
      <trkpt lat="47.28693" lon="5.06317">
        <ele>247</ele>
        <time>2012-03-25T08:02:15Z</time>
      </trkpt>
      <trkpt lat="47.28682" lon="5.06327">
        <ele>247</ele>
        <time>2012-03-25T08:02:19Z</time>
      </trkpt>
      <trkpt lat="47.28657" lon="5.06342">
        <ele>246</ele>
        <time>2012-03-25T08:02:23Z</time>
      </trkpt>
      <trkpt lat="47.28637" lon="5.0634">
        <ele>246</ele>
        <time>2012-03-25T08:02:27Z</time>
      </trkpt>
      <trkpt lat="47.28612" lon="5.06332">
        <ele>243</ele>
        <time>2012-03-25T08:02:33Z</time>
      </trkpt>
      <trkpt lat="47.28588" lon="5.06322">
        <ele>242</ele>
        <time>2012-03-25T08:02:39Z</time>
      </trkpt>
      <trkpt lat="47.28582" lon="5.06288">
        <ele>235</ele>
        <time>2012-03-25T08:02:43Z</time>
      </trkpt>
      <trkpt lat="47.2858" lon="5.06263">
        <ele>234</ele>
        <time>2012-03-25T08:02:47Z</time>
      </trkpt>
      <trkpt lat="47.28562" lon="5.06252">
        <ele>232</ele>
        <time>2012-03-25T08:02:51Z</time>
      </trkpt>
      <trkpt lat="47.28558" lon="5.06227">
        <ele>230</ele>
        <time>2012-03-25T08:02:55Z</time>
      </trkpt>
      <trkpt lat="47.28568" lon="5.06203">
        <ele>230</ele>
        <time>2012-03-25T08:02:59Z</time>
      </trkpt>
      <trkpt lat="47.28577" lon="5.06183">
        <ele>228</ele>
        <time>2012-03-25T08:03:04Z</time>
      </trkpt>
      <trkpt lat="47.28595" lon="5.06168">
        <ele>228</ele>
        <time>2012-03-25T08:03:08Z</time>
      </trkpt>
      <trkpt lat="47.28608" lon="5.06153">
        <ele>228</ele>
        <time>2012-03-25T08:03:12Z</time>
      </trkpt>
      <trkpt lat="47.28605" lon="5.06113">
        <ele>228</ele>
        <time>2012-03-25T08:03:14Z</time>
      </trkpt>
      <trkpt lat="47.2862" lon="5.06105">
        <ele>230</ele>
        <time>2012-03-25T08:03:16Z</time>
      </trkpt>
      <trkpt lat="47.28638" lon="5.06087">
        <ele>230</ele>
        <time>2012-03-25T08:03:20Z</time>
      </trkpt>
      <trkpt lat="47.2865" lon="5.06075">
        <ele>230</ele>
        <time>2012-03-25T08:03:22Z</time>
      </trkpt>
      <trkpt lat="47.28667" lon="5.06055">
        <ele>232</ele>
        <time>2012-03-25T08:03:26Z</time>
      </trkpt>
      <trkpt lat="47.28672" lon="5.0603">
        <ele>231</ele>
        <time>2012-03-25T08:03:30Z</time>
      </trkpt>
      <trkpt lat="47.28673" lon="5.06003">
        <ele>232</ele>
        <time>2012-03-25T08:03:34Z</time>
      </trkpt>
      <trkpt lat="47.28673" lon="5.0598">
        <ele>231</ele>
        <time>2012-03-25T08:03:38Z</time>
      </trkpt>
      <trkpt lat="47.28688" lon="5.05957">
        <ele>231</ele>
        <time>2012-03-25T08:03:42Z</time>
      </trkpt>
      <trkpt lat="47.28698" lon="5.0594">
        <ele>231</ele>
        <time>2012-03-25T08:03:44Z</time>
      </trkpt>
      <trkpt lat="47.28713" lon="5.05917">
        <ele>232</ele>
        <time>2012-03-25T08:03:48Z</time>
      </trkpt>
      <trkpt lat="47.28725" lon="5.05895">
        <ele>232</ele>
        <time>2012-03-25T08:03:52Z</time>
      </trkpt>
      <trkpt lat="47.28733" lon="5.05873">
        <ele>230</ele>
        <time>2012-03-25T08:03:56Z</time>
      </trkpt>
      <trkpt lat="47.28748" lon="5.05848">
        <ele>232</ele>
        <time>2012-03-25T08:04:00Z</time>
      </trkpt>
      <trkpt lat="47.28762" lon="5.05825">
        <ele>233</ele>
        <time>2012-03-25T08:04:05Z</time>
      </trkpt>
      <trkpt lat="47.28777" lon="5.05803">
        <ele>234</ele>
        <time>2012-03-25T08:04:09Z</time>
      </trkpt>
      <trkpt lat="47.28788" lon="5.05782">
        <ele>232</ele>
        <time>2012-03-25T08:04:13Z</time>
      </trkpt>
      <trkpt lat="47.28798" lon="5.0576">
        <ele>232</ele>
        <time>2012-03-25T08:04:17Z</time>
      </trkpt>
      <trkpt lat="47.28808" lon="5.05735">
        <ele>232</ele>
        <time>2012-03-25T08:04:21Z</time>
      </trkpt>
      <trkpt lat="47.2882" lon="5.0571">
        <ele>232</ele>
        <time>2012-03-25T08:04:25Z</time>
      </trkpt>
      <trkpt lat="47.28835" lon="5.05692">
        <ele>232</ele>
        <time>2012-03-25T08:04:29Z</time>
      </trkpt>
      <trkpt lat="47.28892" lon="5.05628">
        <ele>232</ele>
        <time>2012-03-25T08:04:33Z</time>
      </trkpt>
      <trkpt lat="47.28828" lon="5.05618">
        <ele>205</ele>
        <time>2012-03-25T08:04:39Z</time>
      </trkpt>
      <trkpt lat="47.28817" lon="5.05608">
        <ele>198</ele>
        <time>2012-03-25T08:04:41Z</time>
      </trkpt>
      <trkpt lat="47.28837" lon="5.05587">
        <ele>205</ele>
        <time>2012-03-25T08:04:45Z</time>
      </trkpt>
      <trkpt lat="47.28857" lon="5.05577">
        <ele>214</ele>
        <time>2012-03-25T08:04:47Z</time>
      </trkpt>
      <trkpt lat="47.28875" lon="5.05555">
        <ele>218</ele>
        <time>2012-03-25T08:04:51Z</time>
      </trkpt>
      <trkpt lat="47.28885" lon="5.05533">
        <ele>216</ele>
        <time>2012-03-25T08:04:55Z</time>
      </trkpt>
      <trkpt lat="47.28902" lon="5.05517">
        <ele>220</ele>
        <time>2012-03-25T08:04:59Z</time>
      </trkpt>
      <trkpt lat="47.28902" lon="5.05497">
        <ele>227</ele>
        <time>2012-03-25T08:05:05Z</time>
      </trkpt>
      <trkpt lat="47.28902" lon="5.05473">
        <ele>233</ele>
        <time>2012-03-25T08:05:12Z</time>
      </trkpt>
      <trkpt lat="47.2891" lon="5.05452">
        <ele>230</ele>
        <time>2012-03-25T08:05:16Z</time>
      </trkpt>
      <trkpt lat="47.28917" lon="5.05417">
        <ele>225</ele>
        <time>2012-03-25T08:05:22Z</time>
      </trkpt>
      <trkpt lat="47.2893" lon="5.05397">
        <ele>226</ele>
        <time>2012-03-25T08:05:26Z</time>
      </trkpt>
      <trkpt lat="47.28952" lon="5.05363">
        <ele>227</ele>
        <time>2012-03-25T08:05:32Z</time>
      </trkpt>
      <trkpt lat="47.2898" lon="5.05313">
        <ele>227</ele>
        <time>2012-03-25T08:05:40Z</time>
      </trkpt>
      <trkpt lat="47.2899" lon="5.05278">
        <ele>229</ele>
        <time>2012-03-25T08:05:48Z</time>
      </trkpt>
      <trkpt lat="47.28973" lon="5.05282">
        <ele>232</ele>
        <time>2012-03-25T08:05:52Z</time>
      </trkpt>
      <trkpt lat="47.28967" lon="5.0526">
        <ele>233</ele>
        <time>2012-03-25T08:05:58Z</time>
      </trkpt>
      <trkpt lat="47.28973" lon="5.05242">
        <ele>231</ele>
        <time>2012-03-25T08:06:04Z</time>
      </trkpt>
      <trkpt lat="47.28993" lon="5.05218">
        <ele>230</ele>
        <time>2012-03-25T08:06:08Z</time>
      </trkpt>
      <trkpt lat="47.29015" lon="5.05195">
        <ele>229</ele>
        <time>2012-03-25T08:06:13Z</time>
      </trkpt>
      <trkpt lat="47.29027" lon="5.05182">
        <ele>230</ele>
        <time>2012-03-25T08:06:15Z</time>
      </trkpt>
      <trkpt lat="47.29037" lon="5.05167">
        <ele>229</ele>
        <time>2012-03-25T08:06:17Z</time>
      </trkpt>
      <trkpt lat="47.29072" lon="5.05093">
        <ele>224</ele>
        <time>2012-03-25T08:06:29Z</time>
      </trkpt>
      <trkpt lat="47.29085" lon="5.0507">
        <ele>225</ele>
        <time>2012-03-25T08:06:33Z</time>
      </trkpt>
      <trkpt lat="47.29107" lon="5.05033">
        <ele>226</ele>
        <time>2012-03-25T08:06:39Z</time>
      </trkpt>
      <trkpt lat="47.29118" lon="5.05012">
        <ele>227</ele>
        <time>2012-03-25T08:06:43Z</time>
      </trkpt>
      <trkpt lat="47.29135" lon="5.04985">
        <ele>228</ele>
        <time>2012-03-25T08:06:47Z</time>
      </trkpt>
      <trkpt lat="47.29143" lon="5.04962">
        <ele>229</ele>
        <time>2012-03-25T08:06:51Z</time>
      </trkpt>
      <trkpt lat="47.2916" lon="5.04932">
        <ele>231</ele>
        <time>2012-03-25T08:06:55Z</time>
      </trkpt>
      <trkpt lat="47.29163" lon="5.0491">
        <ele>233</ele>
        <time>2012-03-25T08:06:59Z</time>
      </trkpt>
      <trkpt lat="47.29167" lon="5.04885">
        <ele>234</ele>
        <time>2012-03-25T08:07:03Z</time>
      </trkpt>
      <trkpt lat="47.29172" lon="5.04855">
        <ele>235</ele>
        <time>2012-03-25T08:07:07Z</time>
      </trkpt>
      <trkpt lat="47.29172" lon="5.04825">
        <ele>236</ele>
        <time>2012-03-25T08:07:11Z</time>
      </trkpt>
      <trkpt lat="47.29172" lon="5.04778">
        <ele>237</ele>
        <time>2012-03-25T08:07:18Z</time>
      </trkpt>
      <trkpt lat="47.29172" lon="5.04747">
        <ele>238</ele>
        <time>2012-03-25T08:07:22Z</time>
      </trkpt>
      <trkpt lat="47.29178" lon="5.04717">
        <ele>241</ele>
        <time>2012-03-25T08:07:26Z</time>
      </trkpt>
      <trkpt lat="47.29183" lon="5.0469">
        <ele>241</ele>
        <time>2012-03-25T08:07:30Z</time>
      </trkpt>
      <trkpt lat="47.29185" lon="5.04658">
        <ele>241</ele>
        <time>2012-03-25T08:07:34Z</time>
      </trkpt>
      <trkpt lat="47.2919" lon="5.04632">
        <ele>241</ele>
        <time>2012-03-25T08:07:38Z</time>
      </trkpt>
      <trkpt lat="47.29195" lon="5.04607">
        <ele>239</ele>
        <time>2012-03-25T08:07:42Z</time>
      </trkpt>
      <trkpt lat="47.29195" lon="5.04578">
        <ele>239</ele>
        <time>2012-03-25T08:07:46Z</time>
      </trkpt>
      <trkpt lat="47.29198" lon="5.04547">
        <ele>239</ele>
        <time>2012-03-25T08:07:50Z</time>
      </trkpt>
      <trkpt lat="47.29208" lon="5.04518">
        <ele>236</ele>
        <time>2012-03-25T08:07:54Z</time>
      </trkpt>
      <trkpt lat="47.29227" lon="5.04492">
        <ele>236</ele>
        <time>2012-03-25T08:07:58Z</time>
      </trkpt>
      <trkpt lat="47.29233" lon="5.04467">
        <ele>236</ele>
        <time>2012-03-25T08:08:02Z</time>
      </trkpt>
      <trkpt lat="47.2923" lon="5.04435">
        <ele>232</ele>
        <time>2012-03-25T08:08:06Z</time>
      </trkpt>
      <trkpt lat="47.2923" lon="5.044">
        <ele>229</ele>
        <time>2012-03-25T08:08:10Z</time>
      </trkpt>
      <trkpt lat="47.29232" lon="5.0437">
        <ele>230</ele>
        <time>2012-03-25T08:08:14Z</time>
      </trkpt>
      <trkpt lat="47.29235" lon="5.04325">
        <ele>232</ele>
        <time>2012-03-25T08:08:21Z</time>
      </trkpt>
      <trkpt lat="47.29238" lon="5.04285">
        <ele>234</ele>
        <time>2012-03-25T08:08:27Z</time>
      </trkpt>
      <trkpt lat="47.29243" lon="5.04263">
        <ele>234</ele>
        <time>2012-03-25T08:08:31Z</time>
      </trkpt>
      <trkpt lat="47.29255" lon="5.04245">
        <ele>232</ele>
        <time>2012-03-25T08:08:35Z</time>
      </trkpt>
      <trkpt lat="47.29272" lon="5.0423">
        <ele>231</ele>
        <time>2012-03-25T08:08:39Z</time>
      </trkpt>
      <trkpt lat="47.29287" lon="5.0421">
        <ele>232</ele>
        <time>2012-03-25T08:08:43Z</time>
      </trkpt>
      <trkpt lat="47.2931" lon="5.04183">
        <ele>233</ele>
        <time>2012-03-25T08:08:49Z</time>
      </trkpt>
      <trkpt lat="47.29362" lon="5.04123">
        <ele>234</ele>
        <time>2012-03-25T08:09:01Z</time>
      </trkpt>
      <trkpt lat="47.29377" lon="5.04105">
        <ele>235</ele>
        <time>2012-03-25T08:09:05Z</time>
      </trkpt>
      <trkpt lat="47.29392" lon="5.04085">
        <ele>234</ele>
        <time>2012-03-25T08:09:09Z</time>
      </trkpt>
      <trkpt lat="47.29405" lon="5.04068">
        <ele>236</ele>
        <time>2012-03-25T08:09:13Z</time>
      </trkpt>
      <trkpt lat="47.29425" lon="5.04043">
        <ele>237</ele>
        <time>2012-03-25T08:09:19Z</time>
      </trkpt>
      <trkpt lat="47.29453" lon="5.04012">
        <ele>233</ele>
        <time>2012-03-25T08:09:28Z</time>
      </trkpt>
      <trkpt lat="47.29467" lon="5.0399">
        <ele>233</ele>
        <time>2012-03-25T08:09:32Z</time>
      </trkpt>
      <trkpt lat="47.2948" lon="5.0397">
        <ele>233</ele>
        <time>2012-03-25T08:09:36Z</time>
      </trkpt>
      <trkpt lat="47.29498" lon="5.03948">
        <ele>236</ele>
        <time>2012-03-25T08:09:40Z</time>
      </trkpt>
      <trkpt lat="47.29518" lon="5.0393">
        <ele>237</ele>
        <time>2012-03-25T08:09:46Z</time>
      </trkpt>
      <trkpt lat="47.29535" lon="5.0391">
        <ele>240</ele>
        <time>2012-03-25T08:09:50Z</time>
      </trkpt>
      <trkpt lat="47.29552" lon="5.03892">
        <ele>240</ele>
        <time>2012-03-25T08:09:54Z</time>
      </trkpt>
      <trkpt lat="47.29583" lon="5.03855">
        <ele>242</ele>
        <time>2012-03-25T08:10:02Z</time>
      </trkpt>
      <trkpt lat="47.29603" lon="5.03832">
        <ele>243</ele>
        <time>2012-03-25T08:10:06Z</time>
      </trkpt>
      <trkpt lat="47.29618" lon="5.03812">
        <ele>242</ele>
        <time>2012-03-25T08:10:10Z</time>
      </trkpt>
      <trkpt lat="47.29662" lon="5.0375">
        <ele>237</ele>
        <time>2012-03-25T08:10:22Z</time>
      </trkpt>
      <trkpt lat="47.29677" lon="5.0373">
        <ele>236</ele>
        <time>2012-03-25T08:10:27Z</time>
      </trkpt>
      <trkpt lat="47.29695" lon="5.03707">
        <ele>232</ele>
        <time>2012-03-25T08:10:31Z</time>
      </trkpt>
      <trkpt lat="47.29733" lon="5.03658">
        <ele>235</ele>
        <time>2012-03-25T08:10:41Z</time>
      </trkpt>
      <trkpt lat="47.29748" lon="5.0364">
        <ele>232</ele>
        <time>2012-03-25T08:10:45Z</time>
      </trkpt>
      <trkpt lat="47.29778" lon="5.03602">
        <ele>233</ele>
        <time>2012-03-25T08:10:53Z</time>
      </trkpt>
      <trkpt lat="47.29797" lon="5.03585">
        <ele>231</ele>
        <time>2012-03-25T08:10:57Z</time>
      </trkpt>
      <trkpt lat="47.29823" lon="5.03568">
        <ele>234</ele>
        <time>2012-03-25T08:11:03Z</time>
      </trkpt>
      <trkpt lat="47.2984" lon="5.03567">
        <ele>242</ele>
        <time>2012-03-25T08:11:07Z</time>
      </trkpt>
      <trkpt lat="47.29863" lon="5.03558">
        <ele>252</ele>
        <time>2012-03-25T08:11:11Z</time>
      </trkpt>
      <trkpt lat="47.29882" lon="5.0355">
        <ele>256</ele>
        <time>2012-03-25T08:11:15Z</time>
      </trkpt>
      <trkpt lat="47.29902" lon="5.03538">
        <ele>260</ele>
        <time>2012-03-25T08:11:19Z</time>
      </trkpt>
      <trkpt lat="47.2992" lon="5.03533">
        <ele>266</ele>
        <time>2012-03-25T08:11:23Z</time>
      </trkpt>
      <trkpt lat="47.29952" lon="5.03515">
        <ele>270</ele>
        <time>2012-03-25T08:11:30Z</time>
      </trkpt>
      <trkpt lat="47.29992" lon="5.03493">
        <ele>271</ele>
        <time>2012-03-25T08:11:38Z</time>
      </trkpt>
      <trkpt lat="47.3001" lon="5.03477">
        <ele>272</ele>
        <time>2012-03-25T08:11:42Z</time>
      </trkpt>
      <trkpt lat="47.30028" lon="5.03463">
        <ele>265</ele>
        <time>2012-03-25T08:11:46Z</time>
      </trkpt>
      <trkpt lat="47.30053" lon="5.03443">
        <ele>258</ele>
        <time>2012-03-25T08:11:52Z</time>
      </trkpt>
      <trkpt lat="47.30072" lon="5.03435">
        <ele>258</ele>
        <time>2012-03-25T08:11:58Z</time>
      </trkpt>
      <trkpt lat="47.30095" lon="5.03422">
        <ele>260</ele>
        <time>2012-03-25T08:12:02Z</time>
      </trkpt>
      <trkpt lat="47.30147" lon="5.03388">
        <ele>253</ele>
        <time>2012-03-25T08:12:12Z</time>
      </trkpt>
      <trkpt lat="47.30172" lon="5.03368">
        <ele>248</ele>
        <time>2012-03-25T08:12:16Z</time>
      </trkpt>
      <trkpt lat="47.3019" lon="5.03355">
        <ele>243</ele>
        <time>2012-03-25T08:12:20Z</time>
      </trkpt>
      <trkpt lat="47.3021" lon="5.03343">
        <ele>242</ele>
        <time>2012-03-25T08:12:24Z</time>
      </trkpt>
      <trkpt lat="47.30232" lon="5.0333">
        <ele>240</ele>
        <time>2012-03-25T08:12:28Z</time>
      </trkpt>
      <trkpt lat="47.30253" lon="5.03317">
        <ele>240</ele>
        <time>2012-03-25T08:12:32Z</time>
      </trkpt>
      <trkpt lat="47.30295" lon="5.03293">
        <ele>240</ele>
        <time>2012-03-25T08:12:41Z</time>
      </trkpt>
      <trkpt lat="47.3033" lon="5.03277">
        <ele>241</ele>
        <time>2012-03-25T08:12:49Z</time>
      </trkpt>
      <trkpt lat="47.30387" lon="5.03247">
        <ele>247</ele>
        <time>2012-03-25T08:12:59Z</time>
      </trkpt>
      <trkpt lat="47.30408" lon="5.03237">
        <ele>245</ele>
        <time>2012-03-25T08:13:03Z</time>
      </trkpt>
      <trkpt lat="47.30427" lon="5.03222">
        <ele>242</ele>
        <time>2012-03-25T08:13:07Z</time>
      </trkpt>
      <trkpt lat="47.30458" lon="5.03197">
        <ele>243</ele>
        <time>2012-03-25T08:13:13Z</time>
      </trkpt>
      <trkpt lat="47.30478" lon="5.03185">
        <ele>242</ele>
        <time>2012-03-25T08:13:17Z</time>
      </trkpt>
      <trkpt lat="47.3051" lon="5.03165">
        <ele>242</ele>
        <time>2012-03-25T08:13:23Z</time>
      </trkpt>
      <trkpt lat="47.30538" lon="5.03152">
        <ele>239</ele>
        <time>2012-03-25T08:13:31Z</time>
      </trkpt>
      <trkpt lat="47.30555" lon="5.0314">
        <ele>239</ele>
        <time>2012-03-25T08:13:35Z</time>
      </trkpt>
      <trkpt lat="47.30573" lon="5.03132">
        <ele>236</ele>
        <time>2012-03-25T08:13:39Z</time>
      </trkpt>
      <trkpt lat="47.30595" lon="5.03117">
        <ele>236</ele>
        <time>2012-03-25T08:13:44Z</time>
      </trkpt>
      <trkpt lat="47.30615" lon="5.03107">
        <ele>239</ele>
        <time>2012-03-25T08:13:48Z</time>
      </trkpt>
      <trkpt lat="47.30673" lon="5.03055">
        <ele>239</ele>
        <time>2012-03-25T08:14:00Z</time>
      </trkpt>
      <trkpt lat="47.30707" lon="5.03053">
        <ele>230</ele>
        <time>2012-03-25T08:14:02Z</time>
      </trkpt>
      <trkpt lat="47.3072" lon="5.03065">
        <ele>274</ele>
        <time>2012-03-25T08:14:06Z</time>
      </trkpt>
      <trkpt lat="47.30735" lon="5.03047">
        <ele>282</ele>
        <time>2012-03-25T08:14:12Z</time>
      </trkpt>
      <trkpt lat="47.30747" lon="5.03018">
        <ele>282</ele>
        <time>2012-03-25T08:14:16Z</time>
      </trkpt>
      <trkpt lat="47.30768" lon="5.03013">
        <ele>268</ele>
        <time>2012-03-25T08:14:20Z</time>
      </trkpt>
      <trkpt lat="47.30787" lon="5.03002">
        <ele>262</ele>
        <time>2012-03-25T08:14:24Z</time>
      </trkpt>
      <trkpt lat="47.30815" lon="5.02988">
        <ele>256</ele>
        <time>2012-03-25T08:14:28Z</time>
      </trkpt>
      <trkpt lat="47.30838" lon="5.02978">
        <ele>261</ele>
        <time>2012-03-25T08:14:32Z</time>
      </trkpt>
      <trkpt lat="47.30858" lon="5.02965">
        <ele>263</ele>
        <time>2012-03-25T08:14:36Z</time>
      </trkpt>
      <trkpt lat="47.30878" lon="5.02952">
        <ele>256</ele>
        <time>2012-03-25T08:14:40Z</time>
      </trkpt>
      <trkpt lat="47.30922" lon="5.02923">
        <ele>246</ele>
        <time>2012-03-25T08:14:49Z</time>
      </trkpt>
      <trkpt lat="47.30935" lon="5.02918">
        <ele>246</ele>
        <time>2012-03-25T08:14:51Z</time>
      </trkpt>
      <trkpt lat="47.30957" lon="5.02903">
        <ele>246</ele>
        <time>2012-03-25T08:14:55Z</time>
      </trkpt>
      <trkpt lat="47.30978" lon="5.02892">
        <ele>244</ele>
        <time>2012-03-25T08:14:59Z</time>
      </trkpt>
      <trkpt lat="47.31" lon="5.02878">
        <ele>240</ele>
        <time>2012-03-25T08:15:03Z</time>
      </trkpt>
      <trkpt lat="47.31033" lon="5.02862">
        <ele>238</ele>
        <time>2012-03-25T08:15:09Z</time>
      </trkpt>
      <trkpt lat="47.31055" lon="5.02848">
        <ele>237</ele>
        <time>2012-03-25T08:15:13Z</time>
      </trkpt>
      <trkpt lat="47.31068" lon="5.02842">
        <ele>237</ele>
        <time>2012-03-25T08:15:15Z</time>
      </trkpt>
      <trkpt lat="47.31088" lon="5.02832">
        <ele>235</ele>
        <time>2012-03-25T08:15:19Z</time>
      </trkpt>
      <trkpt lat="47.3111" lon="5.02815">
        <ele>235</ele>
        <time>2012-03-25T08:15:23Z</time>
      </trkpt>
      <trkpt lat="47.31132" lon="5.02798">
        <ele>241</ele>
        <time>2012-03-25T08:15:27Z</time>
      </trkpt>
      <trkpt lat="47.31152" lon="5.0279">
        <ele>243</ele>
        <time>2012-03-25T08:15:31Z</time>
      </trkpt>
      <trkpt lat="47.31165" lon="5.02782">
        <ele>244</ele>
        <time>2012-03-25T08:15:33Z</time>
      </trkpt>
      <trkpt lat="47.31185" lon="5.02773">
        <ele>248</ele>
        <time>2012-03-25T08:15:37Z</time>
      </trkpt>
      <trkpt lat="47.31205" lon="5.02762">
        <ele>249</ele>
        <time>2012-03-25T08:15:41Z</time>
      </trkpt>
      <trkpt lat="47.3122" lon="5.02757">
        <ele>248</ele>
        <time>2012-03-25T08:15:45Z</time>
      </trkpt>
      <trkpt lat="47.31215" lon="5.02737">
        <ele>250</ele>
        <time>2012-03-25T08:15:54Z</time>
      </trkpt>
      <trkpt lat="47.3122" lon="5.02717">
        <ele>250</ele>
        <time>2012-03-25T08:16:00Z</time>
      </trkpt>
      <trkpt lat="47.31237" lon="5.02703">
        <ele>247</ele>
        <time>2012-03-25T08:16:06Z</time>
      </trkpt>
      <trkpt lat="47.31252" lon="5.02693">
        <ele>245</ele>
        <time>2012-03-25T08:16:10Z</time>
      </trkpt>
      <trkpt lat="47.3127" lon="5.0268">
        <ele>244</ele>
        <time>2012-03-25T08:16:14Z</time>
      </trkpt>
      <trkpt lat="47.31307" lon="5.02658">
        <ele>243</ele>
        <time>2012-03-25T08:16:20Z</time>
      </trkpt>
      <trkpt lat="47.31328" lon="5.0265">
        <ele>241</ele>
        <time>2012-03-25T08:16:24Z</time>
      </trkpt>
      <trkpt lat="47.31345" lon="5.02643">
        <ele>241</ele>
        <time>2012-03-25T08:16:28Z</time>
      </trkpt>
      <trkpt lat="47.31363" lon="5.02635">
        <ele>247</ele>
        <time>2012-03-25T08:16:32Z</time>
      </trkpt>
      <trkpt lat="47.31388" lon="5.02625">
        <ele>253</ele>
        <time>2012-03-25T08:16:36Z</time>
      </trkpt>
      <trkpt lat="47.31405" lon="5.02618">
        <ele>259</ele>
        <time>2012-03-25T08:16:40Z</time>
      </trkpt>
      <trkpt lat="47.3142" lon="5.02612">
        <ele>264</ele>
        <time>2012-03-25T08:16:44Z</time>
      </trkpt>
      <trkpt lat="47.31433" lon="5.02597">
        <ele>271</ele>
        <time>2012-03-25T08:16:48Z</time>
      </trkpt>
      <trkpt lat="47.3143" lon="5.02573">
        <ele>271</ele>
        <time>2012-03-25T08:16:52Z</time>
      </trkpt>
      <trkpt lat="47.31422" lon="5.02555">
        <ele>267</ele>
        <time>2012-03-25T08:16:57Z</time>
      </trkpt>
      <trkpt lat="47.31422" lon="5.0253">
        <ele>262</ele>
        <time>2012-03-25T08:17:01Z</time>
      </trkpt>
      <trkpt lat="47.31425" lon="5.02508">
        <ele>258</ele>
        <time>2012-03-25T08:17:05Z</time>
      </trkpt>
      <trkpt lat="47.31427" lon="5.0248">
        <ele>257</ele>
        <time>2012-03-25T08:17:09Z</time>
      </trkpt>
      <trkpt lat="47.31423" lon="5.02453">
        <ele>253</ele>
        <time>2012-03-25T08:17:13Z</time>
      </trkpt>
      <trkpt lat="47.31415" lon="5.0243">
        <ele>252</ele>
        <time>2012-03-25T08:17:17Z</time>
      </trkpt>
      <trkpt lat="47.31403" lon="5.02413">
        <ele>253</ele>
        <time>2012-03-25T08:17:21Z</time>
      </trkpt>
      <trkpt lat="47.31395" lon="5.02395">
        <ele>258</ele>
        <time>2012-03-25T08:17:25Z</time>
      </trkpt>
      <trkpt lat="47.31387" lon="5.0237">
        <ele>262</ele>
        <time>2012-03-25T08:17:29Z</time>
      </trkpt>
      <trkpt lat="47.31375" lon="5.02348">
        <ele>266</ele>
        <time>2012-03-25T08:17:33Z</time>
      </trkpt>
      <trkpt lat="47.3137" lon="5.02325">
        <ele>261</ele>
        <time>2012-03-25T08:17:37Z</time>
      </trkpt>
      <trkpt lat="47.3136" lon="5.02298">
        <ele>260</ele>
        <time>2012-03-25T08:17:41Z</time>
      </trkpt>
      <trkpt lat="47.31352" lon="5.02277">
        <ele>255</ele>
        <time>2012-03-25T08:17:43Z</time>
      </trkpt>
      <trkpt lat="47.31338" lon="5.02252">
        <ele>251</ele>
        <time>2012-03-25T08:17:47Z</time>
      </trkpt>
      <trkpt lat="47.31312" lon="5.02205">
        <ele>246</ele>
        <time>2012-03-25T08:17:55Z</time>
      </trkpt>
      <trkpt lat="47.313" lon="5.02178">
        <ele>243</ele>
        <time>2012-03-25T08:17:59Z</time>
      </trkpt>
      <trkpt lat="47.31287" lon="5.02155">
        <ele>241</ele>
        <time>2012-03-25T08:18:04Z</time>
      </trkpt>
      <trkpt lat="47.31268" lon="5.02118">
        <ele>246</ele>
        <time>2012-03-25T08:18:10Z</time>
      </trkpt>
      <trkpt lat="47.31255" lon="5.02093">
        <ele>246</ele>
        <time>2012-03-25T08:18:14Z</time>
      </trkpt>
      <trkpt lat="47.31242" lon="5.0207">
        <ele>245</ele>
        <time>2012-03-25T08:18:18Z</time>
      </trkpt>
      <trkpt lat="47.31228" lon="5.02047">
        <ele>246</ele>
        <time>2012-03-25T08:18:22Z</time>
      </trkpt>
      <trkpt lat="47.31207" lon="5.0201">
        <ele>245</ele>
        <time>2012-03-25T08:18:28Z</time>
      </trkpt>
      <trkpt lat="47.31197" lon="5.01988">
        <ele>246</ele>
        <time>2012-03-25T08:18:32Z</time>
      </trkpt>
      <trkpt lat="47.31183" lon="5.01973">
        <ele>243</ele>
        <time>2012-03-25T08:18:36Z</time>
      </trkpt>
      <trkpt lat="47.31165" lon="5.01987">
        <ele>241</ele>
        <time>2012-03-25T08:18:40Z</time>
      </trkpt>
      <trkpt lat="47.31145" lon="5.0197">
        <ele>237</ele>
        <time>2012-03-25T08:18:44Z</time>
      </trkpt>
      <trkpt lat="47.31135" lon="5.01948">
        <ele>240</ele>
        <time>2012-03-25T08:18:48Z</time>
      </trkpt>
      <trkpt lat="47.31118" lon="5.01928">
        <ele>243</ele>
        <time>2012-03-25T08:18:52Z</time>
      </trkpt>
      <trkpt lat="47.3109" lon="5.0188">
        <ele>247</ele>
        <time>2012-03-25T08:19:02Z</time>
      </trkpt>
      <trkpt lat="47.31075" lon="5.01858">
        <ele>249</ele>
        <time>2012-03-25T08:19:06Z</time>
      </trkpt>
      <trkpt lat="47.31065" lon="5.01837">
        <ele>248</ele>
        <time>2012-03-25T08:19:11Z</time>
      </trkpt>
      <trkpt lat="47.3105" lon="5.01803">
        <ele>251</ele>
        <time>2012-03-25T08:19:17Z</time>
      </trkpt>
      <trkpt lat="47.31038" lon="5.01783">
        <ele>253</ele>
        <time>2012-03-25T08:19:21Z</time>
      </trkpt>
      <trkpt lat="47.31025" lon="5.01762">
        <ele>251</ele>
        <time>2012-03-25T08:19:27Z</time>
      </trkpt>
      <trkpt lat="47.31012" lon="5.01742">
        <ele>252</ele>
        <time>2012-03-25T08:19:31Z</time>
      </trkpt>
      <trkpt lat="47.30997" lon="5.0172">
        <ele>252</ele>
        <time>2012-03-25T08:19:35Z</time>
      </trkpt>
      <trkpt lat="47.30985" lon="5.01702">
        <ele>253</ele>
        <time>2012-03-25T08:19:39Z</time>
      </trkpt>
      <trkpt lat="47.30962" lon="5.01658">
        <ele>254</ele>
        <time>2012-03-25T08:19:47Z</time>
      </trkpt>
      <trkpt lat="47.30952" lon="5.01637">
        <ele>254</ele>
        <time>2012-03-25T08:19:51Z</time>
      </trkpt>
      <trkpt lat="47.30942" lon="5.01622">
        <ele>251</ele>
        <time>2012-03-25T08:19:53Z</time>
      </trkpt>
      <trkpt lat="47.30927" lon="5.01592">
        <ele>252</ele>
        <time>2012-03-25T08:19:59Z</time>
      </trkpt>
      <trkpt lat="47.30903" lon="5.01543">
        <ele>247</ele>
        <time>2012-03-25T08:20:07Z</time>
      </trkpt>
      <trkpt lat="47.30893" lon="5.01522">
        <ele>248</ele>
        <time>2012-03-25T08:20:12Z</time>
      </trkpt>
      <trkpt lat="47.30878" lon="5.01493">
        <ele>246</ele>
        <time>2012-03-25T08:20:18Z</time>
      </trkpt>
      <trkpt lat="47.30868" lon="5.01472">
        <ele>246</ele>
        <time>2012-03-25T08:20:22Z</time>
      </trkpt>
      <trkpt lat="47.30868" lon="5.01448">
        <ele>254</ele>
        <time>2012-03-25T08:20:26Z</time>
      </trkpt>
      <trkpt lat="47.3088" lon="5.01427">
        <ele>254</ele>
        <time>2012-03-25T08:20:30Z</time>
      </trkpt>
      <trkpt lat="47.30895" lon="5.01407">
        <ele>254</ele>
        <time>2012-03-25T08:20:34Z</time>
      </trkpt>
      <trkpt lat="47.30912" lon="5.01392">
        <ele>257</ele>
        <time>2012-03-25T08:20:38Z</time>
      </trkpt>
      <trkpt lat="47.30923" lon="5.01375">
        <ele>259</ele>
        <time>2012-03-25T08:20:42Z</time>
      </trkpt>
      <trkpt lat="47.30935" lon="5.01358">
        <ele>257</ele>
        <time>2012-03-25T08:20:46Z</time>
      </trkpt>
      <trkpt lat="47.30947" lon="5.01345">
        <ele>258</ele>
        <time>2012-03-25T08:20:50Z</time>
      </trkpt>
      <trkpt lat="47.30945" lon="5.01325">
        <ele>258</ele>
        <time>2012-03-25T08:20:56Z</time>
      </trkpt>
      <trkpt lat="47.30935" lon="5.01312">
        <ele>260</ele>
        <time>2012-03-25T08:20:58Z</time>
      </trkpt>
      <trkpt lat="47.30923" lon="5.01292">
        <ele>261</ele>
        <time>2012-03-25T08:21:02Z</time>
      </trkpt>
      <trkpt lat="47.30905" lon="5.01262">
        <ele>259</ele>
        <time>2012-03-25T08:21:08Z</time>
      </trkpt>
      <trkpt lat="47.30893" lon="5.01242">
        <ele>261</ele>
        <time>2012-03-25T08:21:12Z</time>
      </trkpt>
      <trkpt lat="47.30877" lon="5.01218">
        <ele>259</ele>
        <time>2012-03-25T08:21:19Z</time>
      </trkpt>
      <trkpt lat="47.30867" lon="5.01197">
        <ele>260</ele>
        <time>2012-03-25T08:21:23Z</time>
      </trkpt>
      <trkpt lat="47.3086" lon="5.01175">
        <ele>260</ele>
        <time>2012-03-25T08:21:27Z</time>
      </trkpt>
      <trkpt lat="47.30847" lon="5.01158">
        <ele>261</ele>
        <time>2012-03-25T08:21:31Z</time>
      </trkpt>
      <trkpt lat="47.30823" lon="5.01137">
        <ele>264</ele>
        <time>2012-03-25T08:21:37Z</time>
      </trkpt>
      <trkpt lat="47.3081" lon="5.01113">
        <ele>264</ele>
        <time>2012-03-25T08:21:41Z</time>
      </trkpt>
      <trkpt lat="47.30785" lon="5.01078">
        <ele>260</ele>
        <time>2012-03-25T08:21:47Z</time>
      </trkpt>
      <trkpt lat="47.3076" lon="5.01043">
        <ele>259</ele>
        <time>2012-03-25T08:21:53Z</time>
      </trkpt>
      <trkpt lat="47.30747" lon="5.0102">
        <ele>260</ele>
        <time>2012-03-25T08:21:57Z</time>
      </trkpt>
      <trkpt lat="47.30732" lon="5.00995">
        <ele>264</ele>
        <time>2012-03-25T08:22:01Z</time>
      </trkpt>
      <trkpt lat="47.307" lon="5.00952">
        <ele>265</ele>
        <time>2012-03-25T08:22:09Z</time>
      </trkpt>
      <trkpt lat="47.30688" lon="5.00932">
        <ele>262</ele>
        <time>2012-03-25T08:22:13Z</time>
      </trkpt>
      <trkpt lat="47.30672" lon="5.00923">
        <ele>263</ele>
        <time>2012-03-25T08:22:17Z</time>
      </trkpt>
      <trkpt lat="47.30655" lon="5.00925">
        <ele>263</ele>
        <time>2012-03-25T08:22:21Z</time>
      </trkpt>
      <trkpt lat="47.30638" lon="5.00923">
        <ele>259</ele>
        <time>2012-03-25T08:22:25Z</time>
      </trkpt>
      <trkpt lat="47.30632" lon="5.00905">
        <ele>260</ele>
        <time>2012-03-25T08:22:32Z</time>
      </trkpt>
      <trkpt lat="47.3062" lon="5.00895">
        <ele>260</ele>
        <time>2012-03-25T08:22:36Z</time>
      </trkpt>
      <trkpt lat="47.30598" lon="5.0089">
        <ele>260</ele>
        <time>2012-03-25T08:22:42Z</time>
      </trkpt>
      <trkpt lat="47.30582" lon="5.00883">
        <ele>262</ele>
        <time>2012-03-25T08:22:46Z</time>
      </trkpt>
      <trkpt lat="47.30567" lon="5.00877">
        <ele>267</ele>
        <time>2012-03-25T08:22:50Z</time>
      </trkpt>
      <trkpt lat="47.30553" lon="5.00865">
        <ele>268</ele>
        <time>2012-03-25T08:22:54Z</time>
      </trkpt>
      <trkpt lat="47.3054" lon="5.00857">
        <ele>271</ele>
        <time>2012-03-25T08:22:58Z</time>
      </trkpt>
      <trkpt lat="47.30527" lon="5.00843">
        <ele>272</ele>
        <time>2012-03-25T08:23:02Z</time>
      </trkpt>
      <trkpt lat="47.3051" lon="5.00828">
        <ele>273</ele>
        <time>2012-03-25T08:23:06Z</time>
      </trkpt>
      <trkpt lat="47.30472" lon="5.00792">
        <ele>274</ele>
        <time>2012-03-25T08:23:14Z</time>
      </trkpt>
      <trkpt lat="47.3046" lon="5.00775">
        <ele>270</ele>
        <time>2012-03-25T08:23:18Z</time>
      </trkpt>
      <trkpt lat="47.30442" lon="5.00757">
        <ele>272</ele>
        <time>2012-03-25T08:23:24Z</time>
      </trkpt>
      <trkpt lat="47.3043" lon="5.00737">
        <ele>272</ele>
        <time>2012-03-25T08:23:28Z</time>
      </trkpt>
      <trkpt lat="47.30435" lon="5.00712">
        <ele>273</ele>
        <time>2012-03-25T08:23:33Z</time>
      </trkpt>
      <trkpt lat="47.30438" lon="5.0069">
        <ele>271</ele>
        <time>2012-03-25T08:23:37Z</time>
      </trkpt>
      <trkpt lat="47.30443" lon="5.00662">
        <ele>271</ele>
        <time>2012-03-25T08:23:43Z</time>
      </trkpt>
      <trkpt lat="47.30458" lon="5.00643">
        <ele>268</ele>
        <time>2012-03-25T08:23:49Z</time>
      </trkpt>
      <trkpt lat="47.30477" lon="5.0062">
        <ele>265</ele>
        <time>2012-03-25T08:23:57Z</time>
      </trkpt>
      <trkpt lat="47.30478" lon="5.00592">
        <ele>265</ele>
        <time>2012-03-25T08:24:03Z</time>
      </trkpt>
      <trkpt lat="47.30477" lon="5.00567">
        <ele>267</ele>
        <time>2012-03-25T08:24:09Z</time>
      </trkpt>
      <trkpt lat="47.30475" lon="5.00538">
        <ele>273</ele>
        <time>2012-03-25T08:24:17Z</time>
      </trkpt>
      <trkpt lat="47.30473" lon="5.00515">
        <ele>274</ele>
        <time>2012-03-25T08:24:23Z</time>
      </trkpt>
      <trkpt lat="47.30472" lon="5.0049">
        <ele>276</ele>
        <time>2012-03-25T08:24:29Z</time>
      </trkpt>
      <trkpt lat="47.30457" lon="5.00485">
        <ele>276</ele>
        <time>2012-03-25T08:24:35Z</time>
      </trkpt>
      <trkpt lat="47.30442" lon="5.00488">
        <ele>278</ele>
        <time>2012-03-25T08:24:39Z</time>
      </trkpt>
      <trkpt lat="47.30427" lon="5.00487">
        <ele>275</ele>
        <time>2012-03-25T08:24:44Z</time>
      </trkpt>
      <trkpt lat="47.30408" lon="5.00483">
        <ele>275</ele>
        <time>2012-03-25T08:24:50Z</time>
      </trkpt>
      <trkpt lat="47.3039" lon="5.00488">
        <ele>274</ele>
        <time>2012-03-25T08:24:56Z</time>
      </trkpt>
      <trkpt lat="47.30372" lon="5.0049">
        <ele>274</ele>
        <time>2012-03-25T08:25:00Z</time>
      </trkpt>
      <trkpt lat="47.30355" lon="5.00485">
        <ele>273</ele>
        <time>2012-03-25T08:25:04Z</time>
      </trkpt>
      <trkpt lat="47.30338" lon="5.00475">
        <ele>277</ele>
        <time>2012-03-25T08:25:12Z</time>
      </trkpt>
      <trkpt lat="47.30322" lon="5.00468">
        <ele>282</ele>
        <time>2012-03-25T08:25:18Z</time>
      </trkpt>
      <trkpt lat="47.30298" lon="5.00452">
        <ele>283</ele>
        <time>2012-03-25T08:25:26Z</time>
      </trkpt>
      <trkpt lat="47.30293" lon="5.00432">
        <ele>285</ele>
        <time>2012-03-25T08:25:32Z</time>
      </trkpt>
      <trkpt lat="47.30292" lon="5.0041">
        <ele>289</ele>
        <time>2012-03-25T08:25:40Z</time>
      </trkpt>
      <trkpt lat="47.30287" lon="5.00387">
        <ele>290</ele>
        <time>2012-03-25T08:25:49Z</time>
      </trkpt>
      <trkpt lat="47.30272" lon="5.0038">
        <ele>292</ele>
        <time>2012-03-25T08:25:55Z</time>
      </trkpt>
      <trkpt lat="47.30255" lon="5.00367">
        <ele>291</ele>
        <time>2012-03-25T08:26:01Z</time>
      </trkpt>
      <trkpt lat="47.30242" lon="5.00355">
        <ele>288</ele>
        <time>2012-03-25T08:26:05Z</time>
      </trkpt>
      <trkpt lat="47.30218" lon="5.0034">
        <ele>284</ele>
        <time>2012-03-25T08:26:11Z</time>
      </trkpt>
      <trkpt lat="47.30202" lon="5.00327">
        <ele>284</ele>
        <time>2012-03-25T08:26:15Z</time>
      </trkpt>
      <trkpt lat="47.3018" lon="5.00318">
        <ele>281</ele>
        <time>2012-03-25T08:26:19Z</time>
      </trkpt>
      <trkpt lat="47.30163" lon="5.00305">
        <ele>282</ele>
        <time>2012-03-25T08:26:23Z</time>
      </trkpt>
      <trkpt lat="47.30145" lon="5.0029">
        <ele>279</ele>
        <time>2012-03-25T08:26:27Z</time>
      </trkpt>
      <trkpt lat="47.3013" lon="5.00277">
        <ele>284</ele>
        <time>2012-03-25T08:26:31Z</time>
      </trkpt>
      <trkpt lat="47.30117" lon="5.00268">
        <ele>283</ele>
        <time>2012-03-25T08:26:35Z</time>
      </trkpt>
      <trkpt lat="47.30085" lon="5.0025">
        <ele>284</ele>
        <time>2012-03-25T08:26:41Z</time>
      </trkpt>
      <trkpt lat="47.30065" lon="5.00233">
        <ele>286</ele>
        <time>2012-03-25T08:26:45Z</time>
      </trkpt>
      <trkpt lat="47.30047" lon="5.00217">
        <ele>287</ele>
        <time>2012-03-25T08:26:50Z</time>
      </trkpt>
      <trkpt lat="47.30022" lon="5.00188">
        <ele>286</ele>
        <time>2012-03-25T08:26:56Z</time>
      </trkpt>
      <trkpt lat="47.3001" lon="5.00172">
        <ele>290</ele>
        <time>2012-03-25T08:27:00Z</time>
      </trkpt>
      <trkpt lat="47.30008" lon="5.00143">
        <ele>281</ele>
        <time>2012-03-25T08:27:04Z</time>
      </trkpt>
      <trkpt lat="47.30013" lon="5.00123">
        <ele>286</ele>
        <time>2012-03-25T08:27:10Z</time>
      </trkpt>
      <trkpt lat="47.3" lon="5.0012">
        <ele>292</ele>
        <time>2012-03-25T08:27:16Z</time>
      </trkpt>
      <trkpt lat="47.29985" lon="5.00117">
        <ele>293</ele>
        <time>2012-03-25T08:27:20Z</time>
      </trkpt>
      <trkpt lat="47.29965" lon="5.00118">
        <ele>295</ele>
        <time>2012-03-25T08:27:24Z</time>
      </trkpt>
      <trkpt lat="47.2995" lon="5.00115">
        <ele>295</ele>
        <time>2012-03-25T08:27:28Z</time>
      </trkpt>
      <trkpt lat="47.29933" lon="5.00117">
        <ele>292</ele>
        <time>2012-03-25T08:27:32Z</time>
      </trkpt>
      <trkpt lat="47.29912" lon="5.00118">
        <ele>291</ele>
        <time>2012-03-25T08:27:36Z</time>
      </trkpt>
      <trkpt lat="47.29878" lon="5.0012">
        <ele>293</ele>
        <time>2012-03-25T08:27:42Z</time>
      </trkpt>
      <trkpt lat="47.29865" lon="5.00115">
        <ele>292</ele>
        <time>2012-03-25T08:27:44Z</time>
      </trkpt>
      <trkpt lat="47.29802" lon="5.001">
        <ele>289</ele>
        <time>2012-03-25T08:27:53Z</time>
      </trkpt>
      <trkpt lat="47.29752" lon="5.00088">
        <ele>287</ele>
        <time>2012-03-25T08:27:59Z</time>
      </trkpt>
      <trkpt lat="47.29737" lon="5.00085">
        <ele>287</ele>
        <time>2012-03-25T08:28:01Z</time>
      </trkpt>
      <trkpt lat="47.2972" lon="5.00083">
        <ele>287</ele>
        <time>2012-03-25T08:28:03Z</time>
      </trkpt>
      <trkpt lat="47.29705" lon="5.00078">
        <ele>286</ele>
        <time>2012-03-25T08:28:05Z</time>
      </trkpt>
      <trkpt lat="47.29677" lon="5.00068">
        <ele>287</ele>
        <time>2012-03-25T08:28:09Z</time>
      </trkpt>
      <trkpt lat="47.2965" lon="5.0006">
        <ele>288</ele>
        <time>2012-03-25T08:28:13Z</time>
      </trkpt>
      <trkpt lat="47.29628" lon="5.0005">
        <ele>289</ele>
        <time>2012-03-25T08:28:17Z</time>
      </trkpt>
      <trkpt lat="47.29605" lon="5.0005">
        <ele>288</ele>
        <time>2012-03-25T08:28:21Z</time>
      </trkpt>
      <trkpt lat="47.29538" lon="5.0005">
        <ele>283</ele>
        <time>2012-03-25T08:28:31Z</time>
      </trkpt>
      <trkpt lat="47.29515" lon="5.00043">
        <ele>282</ele>
        <time>2012-03-25T08:28:35Z</time>
      </trkpt>
      <trkpt lat="47.29488" lon="5.00032">
        <ele>281</ele>
        <time>2012-03-25T08:28:39Z</time>
      </trkpt>
      <trkpt lat="47.2947" lon="5.00025">
        <ele>280</ele>
        <time>2012-03-25T08:28:43Z</time>
      </trkpt>
      <trkpt lat="47.29452" lon="5.00028">
        <ele>280</ele>
        <time>2012-03-25T08:28:47Z</time>
      </trkpt>
      <trkpt lat="47.2943" lon="5.00027">
        <ele>280</ele>
        <time>2012-03-25T08:28:51Z</time>
      </trkpt>
      <trkpt lat="47.29408" lon="5.00023">
        <ele>279</ele>
        <time>2012-03-25T08:28:55Z</time>
      </trkpt>
      <trkpt lat="47.2939" lon="5.00023">
        <ele>280</ele>
        <time>2012-03-25T08:28:59Z</time>
      </trkpt>
      <trkpt lat="47.29375" lon="5.00022">
        <ele>282</ele>
        <time>2012-03-25T08:29:04Z</time>
      </trkpt>
      <trkpt lat="47.2936" lon="5.00018">
        <ele>283</ele>
        <time>2012-03-25T08:29:08Z</time>
      </trkpt>
      <trkpt lat="47.29345" lon="5.00017">
        <ele>284</ele>
        <time>2012-03-25T08:29:12Z</time>
      </trkpt>
      <trkpt lat="47.29327" lon="5.00018">
        <ele>282</ele>
        <time>2012-03-25T08:29:16Z</time>
      </trkpt>
      <trkpt lat="47.29312" lon="5.00017">
        <ele>283</ele>
        <time>2012-03-25T08:29:20Z</time>
      </trkpt>
      <trkpt lat="47.29313" lon="4.99985">
        <ele>284</ele>
        <time>2012-03-25T08:29:26Z</time>
      </trkpt>
      <trkpt lat="47.29318" lon="4.99965">
        <ele>284</ele>
        <time>2012-03-25T08:29:30Z</time>
      </trkpt>
      <trkpt lat="47.29302" lon="4.99952">
        <ele>287</ele>
        <time>2012-03-25T08:29:38Z</time>
      </trkpt>
      <trkpt lat="47.29285" lon="4.99945">
        <ele>289</ele>
        <time>2012-03-25T08:29:42Z</time>
      </trkpt>
      <trkpt lat="47.29263" lon="4.99938">
        <ele>293</ele>
        <time>2012-03-25T08:29:46Z</time>
      </trkpt>
      <trkpt lat="47.29245" lon="4.99928">
        <ele>297</ele>
        <time>2012-03-25T08:29:52Z</time>
      </trkpt>
      <trkpt lat="47.29232" lon="4.9994">
        <ele>297</ele>
        <time>2012-03-25T08:30:00Z</time>
      </trkpt>
      <trkpt lat="47.2923" lon="4.99975">
        <ele>294</ele>
        <time>2012-03-25T08:30:05Z</time>
      </trkpt>
      <trkpt lat="47.29228" lon="4.99997">
        <ele>288</ele>
        <time>2012-03-25T08:30:07Z</time>
      </trkpt>
      <trkpt lat="47.29218" lon="5.00027">
        <ele>285</ele>
        <time>2012-03-25T08:30:11Z</time>
      </trkpt>
      <trkpt lat="47.29212" lon="5.00045">
        <ele>281</ele>
        <time>2012-03-25T08:30:15Z</time>
      </trkpt>
      <trkpt lat="47.29192" lon="5.00037">
        <ele>287</ele>
        <time>2012-03-25T08:30:19Z</time>
      </trkpt>
      <trkpt lat="47.2916" lon="5.00018">
        <ele>286</ele>
        <time>2012-03-25T08:30:25Z</time>
      </trkpt>
      <trkpt lat="47.29142" lon="5.00005">
        <ele>283</ele>
        <time>2012-03-25T08:30:29Z</time>
      </trkpt>
      <trkpt lat="47.2912" lon="5">
        <ele>281</ele>
        <time>2012-03-25T08:30:33Z</time>
      </trkpt>
      <trkpt lat="47.29103" lon="4.99992">
        <ele>283</ele>
        <time>2012-03-25T08:30:37Z</time>
      </trkpt>
      <trkpt lat="47.29087" lon="4.99978">
        <ele>280</ele>
        <time>2012-03-25T08:30:45Z</time>
      </trkpt>
      <trkpt lat="47.29037" lon="4.99938">
        <ele>282</ele>
        <time>2012-03-25T08:30:57Z</time>
      </trkpt>
      <trkpt lat="47.29007" lon="4.99922">
        <ele>281</ele>
        <time>2012-03-25T08:31:03Z</time>
      </trkpt>
      <trkpt lat="47.28988" lon="4.99912">
        <ele>281</ele>
        <time>2012-03-25T08:31:07Z</time>
      </trkpt>
      <trkpt lat="47.28962" lon="4.99897">
        <ele>281</ele>
        <time>2012-03-25T08:31:14Z</time>
      </trkpt>
      <trkpt lat="47.2893" lon="4.99883">
        <ele>281</ele>
        <time>2012-03-25T08:31:20Z</time>
      </trkpt>
      <trkpt lat="47.28895" lon="4.99867">
        <ele>282</ele>
        <time>2012-03-25T08:31:28Z</time>
      </trkpt>
      <trkpt lat="47.28875" lon="4.9986">
        <ele>283</ele>
        <time>2012-03-25T08:31:32Z</time>
      </trkpt>
      <trkpt lat="47.28857" lon="4.99853">
        <ele>283</ele>
        <time>2012-03-25T08:31:36Z</time>
      </trkpt>
      <trkpt lat="47.28838" lon="4.99845">
        <ele>282</ele>
        <time>2012-03-25T08:31:40Z</time>
      </trkpt>
      <trkpt lat="47.2881" lon="4.9983">
        <ele>282</ele>
        <time>2012-03-25T08:31:46Z</time>
      </trkpt>
      <trkpt lat="47.28788" lon="4.99825">
        <ele>282</ele>
        <time>2012-03-25T08:31:50Z</time>
      </trkpt>
      <trkpt lat="47.28767" lon="4.99815">
        <ele>282</ele>
        <time>2012-03-25T08:31:54Z</time>
      </trkpt>
      <trkpt lat="47.28747" lon="4.99807">
        <ele>284</ele>
        <time>2012-03-25T08:31:58Z</time>
      </trkpt>
      <trkpt lat="47.2873" lon="4.99797">
        <ele>284</ele>
        <time>2012-03-25T08:32:02Z</time>
      </trkpt>
      <trkpt lat="47.28715" lon="4.9978">
        <ele>284</ele>
        <time>2012-03-25T08:32:06Z</time>
      </trkpt>
      <trkpt lat="47.28698" lon="4.99763">
        <ele>283</ele>
        <time>2012-03-25T08:32:11Z</time>
      </trkpt>
      <trkpt lat="47.2868" lon="4.99747">
        <ele>283</ele>
        <time>2012-03-25T08:32:15Z</time>
      </trkpt>
      <trkpt lat="47.2866" lon="4.99732">
        <ele>283</ele>
        <time>2012-03-25T08:32:19Z</time>
      </trkpt>
      <trkpt lat="47.28642" lon="4.99722">
        <ele>283</ele>
        <time>2012-03-25T08:32:23Z</time>
      </trkpt>
      <trkpt lat="47.28622" lon="4.99713">
        <ele>284</ele>
        <time>2012-03-25T08:32:27Z</time>
      </trkpt>
      <trkpt lat="47.28597" lon="4.99697">
        <ele>286</ele>
        <time>2012-03-25T08:32:33Z</time>
      </trkpt>
      <trkpt lat="47.28578" lon="4.99688">
        <ele>285</ele>
        <time>2012-03-25T08:32:37Z</time>
      </trkpt>
      <trkpt lat="47.28563" lon="4.99677">
        <ele>285</ele>
        <time>2012-03-25T08:32:41Z</time>
      </trkpt>
      <trkpt lat="47.2855" lon="4.99657">
        <ele>286</ele>
        <time>2012-03-25T08:32:45Z</time>
      </trkpt>
      <trkpt lat="47.28547" lon="4.99632">
        <ele>287</ele>
        <time>2012-03-25T08:32:49Z</time>
      </trkpt>
      <trkpt lat="47.2853" lon="4.99613">
        <ele>288</ele>
        <time>2012-03-25T08:32:53Z</time>
      </trkpt>
      <trkpt lat="47.28498" lon="4.99585">
        <ele>288</ele>
        <time>2012-03-25T08:33:01Z</time>
      </trkpt>
      <trkpt lat="47.28485" lon="4.99565">
        <ele>289</ele>
        <time>2012-03-25T08:33:05Z</time>
      </trkpt>
      <trkpt lat="47.28477" lon="4.99545">
        <ele>290</ele>
        <time>2012-03-25T08:33:09Z</time>
      </trkpt>
      <trkpt lat="47.28467" lon="4.99527">
        <ele>290</ele>
        <time>2012-03-25T08:33:14Z</time>
      </trkpt>
      <trkpt lat="47.28455" lon="4.99508">
        <ele>291</ele>
        <time>2012-03-25T08:33:18Z</time>
      </trkpt>
      <trkpt lat="47.28423" lon="4.99467">
        <ele>292</ele>
        <time>2012-03-25T08:33:26Z</time>
      </trkpt>
      <trkpt lat="47.28408" lon="4.9945">
        <ele>293</ele>
        <time>2012-03-25T08:33:30Z</time>
      </trkpt>
      <trkpt lat="47.28337" lon="4.99358">
        <ele>291</ele>
        <time>2012-03-25T08:33:48Z</time>
      </trkpt>
      <trkpt lat="47.28295" lon="4.99305">
        <ele>290</ele>
        <time>2012-03-25T08:33:58Z</time>
      </trkpt>
      <trkpt lat="47.2828" lon="4.99287">
        <ele>290</ele>
        <time>2012-03-25T08:34:00Z</time>
      </trkpt>
      <trkpt lat="47.28253" lon="4.99248">
        <ele>291</ele>
        <time>2012-03-25T08:34:06Z</time>
      </trkpt>
      <trkpt lat="47.28238" lon="4.99223">
        <ele>291</ele>
        <time>2012-03-25T08:34:10Z</time>
      </trkpt>
      <trkpt lat="47.28227" lon="4.99197">
        <ele>292</ele>
        <time>2012-03-25T08:34:14Z</time>
      </trkpt>
      <trkpt lat="47.2821" lon="4.99158">
        <ele>293</ele>
        <time>2012-03-25T08:34:21Z</time>
      </trkpt>
      <trkpt lat="47.28197" lon="4.99135">
        <ele>293</ele>
        <time>2012-03-25T08:34:25Z</time>
      </trkpt>
      <trkpt lat="47.28177" lon="4.99102">
        <ele>293</ele>
        <time>2012-03-25T08:34:31Z</time>
      </trkpt>
      <trkpt lat="47.28158" lon="4.99068">
        <ele>294</ele>
        <time>2012-03-25T08:34:37Z</time>
      </trkpt>
      <trkpt lat="47.28138" lon="4.99032">
        <ele>293</ele>
        <time>2012-03-25T08:34:43Z</time>
      </trkpt>
      <trkpt lat="47.28117" lon="4.98995">
        <ele>293</ele>
        <time>2012-03-25T08:34:49Z</time>
      </trkpt>
      <trkpt lat="47.28092" lon="4.98958">
        <ele>291</ele>
        <time>2012-03-25T08:34:55Z</time>
      </trkpt>
      <trkpt lat="47.28077" lon="4.98935">
        <ele>291</ele>
        <time>2012-03-25T08:34:59Z</time>
      </trkpt>
      <trkpt lat="47.28065" lon="4.98915">
        <ele>291</ele>
        <time>2012-03-25T08:35:01Z</time>
      </trkpt>
      <trkpt lat="47.2803" lon="4.98855">
        <ele>289</ele>
        <time>2012-03-25T08:35:11Z</time>
      </trkpt>
      <trkpt lat="47.28018" lon="4.98833">
        <ele>288</ele>
        <time>2012-03-25T08:35:15Z</time>
      </trkpt>
      <trkpt lat="47.28012" lon="4.9881">
        <ele>288</ele>
        <time>2012-03-25T08:35:19Z</time>
      </trkpt>
      <trkpt lat="47.28012" lon="4.9879">
        <ele>290</ele>
        <time>2012-03-25T08:35:24Z</time>
      </trkpt>
      <trkpt lat="47.28025" lon="4.98775">
        <ele>293</ele>
        <time>2012-03-25T08:35:28Z</time>
      </trkpt>
      <trkpt lat="47.28038" lon="4.98762">
        <ele>297</ele>
        <time>2012-03-25T08:35:32Z</time>
      </trkpt>
      <trkpt lat="47.2805" lon="4.98742">
        <ele>297</ele>
        <time>2012-03-25T08:35:36Z</time>
      </trkpt>
      <trkpt lat="47.28068" lon="4.98713">
        <ele>299</ele>
        <time>2012-03-25T08:35:42Z</time>
      </trkpt>
      <trkpt lat="47.2808" lon="4.98695">
        <ele>300</ele>
        <time>2012-03-25T08:35:46Z</time>
      </trkpt>
      <trkpt lat="47.28088" lon="4.98678">
        <ele>299</ele>
        <time>2012-03-25T08:35:50Z</time>
      </trkpt>
      <trkpt lat="47.28098" lon="4.9866">
        <ele>297</ele>
        <time>2012-03-25T08:35:54Z</time>
      </trkpt>
      <trkpt lat="47.28113" lon="4.98633">
        <ele>297</ele>
        <time>2012-03-25T08:36:00Z</time>
      </trkpt>
      <trkpt lat="47.2813" lon="4.98617">
        <ele>298</ele>
        <time>2012-03-25T08:36:04Z</time>
      </trkpt>
      <trkpt lat="47.28143" lon="4.9861">
        <ele>296</ele>
        <time>2012-03-25T08:36:08Z</time>
      </trkpt>
      <trkpt lat="47.28157" lon="4.98617">
        <ele>296</ele>
        <time>2012-03-25T08:36:12Z</time>
      </trkpt>
      <trkpt lat="47.28168" lon="4.98627">
        <ele>295</ele>
        <time>2012-03-25T08:36:16Z</time>
      </trkpt>
      <trkpt lat="47.28183" lon="4.9862">
        <ele>296</ele>
        <time>2012-03-25T08:36:21Z</time>
      </trkpt>
      <trkpt lat="47.28197" lon="4.986">
        <ele>298</ele>
        <time>2012-03-25T08:36:25Z</time>
      </trkpt>
      <trkpt lat="47.28212" lon="4.98582">
        <ele>299</ele>
        <time>2012-03-25T08:36:29Z</time>
      </trkpt>
      <trkpt lat="47.28227" lon="4.98563">
        <ele>299</ele>
        <time>2012-03-25T08:36:33Z</time>
      </trkpt>
      <trkpt lat="47.28248" lon="4.98535">
        <ele>299</ele>
        <time>2012-03-25T08:36:39Z</time>
      </trkpt>
      <trkpt lat="47.28262" lon="4.98513">
        <ele>300</ele>
        <time>2012-03-25T08:36:43Z</time>
      </trkpt>
      <trkpt lat="47.28272" lon="4.98492">
        <ele>302</ele>
        <time>2012-03-25T08:36:47Z</time>
      </trkpt>
      <trkpt lat="47.2828" lon="4.98468">
        <ele>303</ele>
        <time>2012-03-25T08:36:51Z</time>
      </trkpt>
      <trkpt lat="47.28285" lon="4.9844">
        <ele>303</ele>
        <time>2012-03-25T08:36:55Z</time>
      </trkpt>
      <trkpt lat="47.28295" lon="4.98412">
        <ele>303</ele>
        <time>2012-03-25T08:36:59Z</time>
      </trkpt>
      <trkpt lat="47.28317" lon="4.9839">
        <ele>304</ele>
        <time>2012-03-25T08:37:03Z</time>
      </trkpt>
      <trkpt lat="47.28337" lon="4.98377">
        <ele>304</ele>
        <time>2012-03-25T08:37:07Z</time>
      </trkpt>
      <trkpt lat="47.28353" lon="4.98357">
        <ele>307</ele>
        <time>2012-03-25T08:37:13Z</time>
      </trkpt>
      <trkpt lat="47.28352" lon="4.98335">
        <ele>308</ele>
        <time>2012-03-25T08:37:17Z</time>
      </trkpt>
      <trkpt lat="47.28353" lon="4.98313">
        <ele>309</ele>
        <time>2012-03-25T08:37:21Z</time>
      </trkpt>
      <trkpt lat="47.28357" lon="4.98287">
        <ele>314</ele>
        <time>2012-03-25T08:37:28Z</time>
      </trkpt>
      <trkpt lat="47.28337" lon="4.98273">
        <ele>311</ele>
        <time>2012-03-25T08:37:34Z</time>
      </trkpt>
      <trkpt lat="47.28313" lon="4.98252">
        <ele>310</ele>
        <time>2012-03-25T08:37:42Z</time>
      </trkpt>
      <trkpt lat="47.28302" lon="4.98242">
        <ele>309</ele>
        <time>2012-03-25T08:37:46Z</time>
      </trkpt>
      <trkpt lat="47.28273" lon="4.98223">
        <ele>307</ele>
        <time>2012-03-25T08:37:54Z</time>
      </trkpt>
      <trkpt lat="47.28258" lon="4.98208">
        <ele>307</ele>
        <time>2012-03-25T08:37:58Z</time>
      </trkpt>
      <trkpt lat="47.28232" lon="4.98178">
        <ele>307</ele>
        <time>2012-03-25T08:38:06Z</time>
      </trkpt>
      <trkpt lat="47.28215" lon="4.98165">
        <ele>307</ele>
        <time>2012-03-25T08:38:10Z</time>
      </trkpt>
      <trkpt lat="47.28202" lon="4.9815">
        <ele>307</ele>
        <time>2012-03-25T08:38:14Z</time>
      </trkpt>
      <trkpt lat="47.28182" lon="4.98132">
        <ele>306</ele>
        <time>2012-03-25T08:38:20Z</time>
      </trkpt>
      <trkpt lat="47.28168" lon="4.98122">
        <ele>305</ele>
        <time>2012-03-25T08:38:24Z</time>
      </trkpt>
      <trkpt lat="47.28147" lon="4.98103">
        <ele>305</ele>
        <time>2012-03-25T08:38:31Z</time>
      </trkpt>
      <trkpt lat="47.2813" lon="4.98093">
        <ele>303</ele>
        <time>2012-03-25T08:38:35Z</time>
      </trkpt>
      <trkpt lat="47.28117" lon="4.98085">
        <ele>304</ele>
        <time>2012-03-25T08:38:39Z</time>
      </trkpt>
      <trkpt lat="47.28105" lon="4.98073">
        <ele>304</ele>
        <time>2012-03-25T08:38:43Z</time>
      </trkpt>
      <trkpt lat="47.28078" lon="4.98052">
        <ele>305</ele>
        <time>2012-03-25T08:38:51Z</time>
      </trkpt>
      <trkpt lat="47.2806" lon="4.98037">
        <ele>304</ele>
        <time>2012-03-25T08:38:57Z</time>
      </trkpt>
      <trkpt lat="47.28062" lon="4.98015">
        <ele>305</ele>
        <time>2012-03-25T08:39:03Z</time>
      </trkpt>
      <trkpt lat="47.28073" lon="4.97992">
        <ele>308</ele>
        <time>2012-03-25T08:39:09Z</time>
      </trkpt>
      <trkpt lat="47.28083" lon="4.9797">
        <ele>308</ele>
        <time>2012-03-25T08:39:13Z</time>
      </trkpt>
      <trkpt lat="47.28095" lon="4.97948">
        <ele>309</ele>
        <time>2012-03-25T08:39:19Z</time>
      </trkpt>
      <trkpt lat="47.28107" lon="4.9793">
        <ele>310</ele>
        <time>2012-03-25T08:39:25Z</time>
      </trkpt>
      <trkpt lat="47.2812" lon="4.97915">
        <ele>314</ele>
        <time>2012-03-25T08:39:32Z</time>
      </trkpt>
      <trkpt lat="47.2813" lon="4.97902">
        <ele>315</ele>
        <time>2012-03-25T08:39:36Z</time>
      </trkpt>
      <trkpt lat="47.28142" lon="4.97882">
        <ele>313</ele>
        <time>2012-03-25T08:39:42Z</time>
      </trkpt>
      <trkpt lat="47.28147" lon="4.9786">
        <ele>314</ele>
        <time>2012-03-25T08:39:48Z</time>
      </trkpt>
      <trkpt lat="47.2814" lon="4.9784">
        <ele>312</ele>
        <time>2012-03-25T08:39:52Z</time>
      </trkpt>
      <trkpt lat="47.28132" lon="4.97823">
        <ele>312</ele>
        <time>2012-03-25T08:39:56Z</time>
      </trkpt>
      <trkpt lat="47.2812" lon="4.97803">
        <ele>311</ele>
        <time>2012-03-25T08:40:02Z</time>
      </trkpt>
      <trkpt lat="47.28107" lon="4.97787">
        <ele>312</ele>
        <time>2012-03-25T08:40:08Z</time>
      </trkpt>
      <trkpt lat="47.28095" lon="4.97773">
        <ele>311</ele>
        <time>2012-03-25T08:40:12Z</time>
      </trkpt>
      <trkpt lat="47.28082" lon="4.9776">
        <ele>313</ele>
        <time>2012-03-25T08:40:18Z</time>
      </trkpt>
      <trkpt lat="47.2807" lon="4.97748">
        <ele>314</ele>
        <time>2012-03-25T08:40:24Z</time>
      </trkpt>
      <trkpt lat="47.2805" lon="4.97728">
        <ele>313</ele>
        <time>2012-03-25T08:40:35Z</time>
      </trkpt>
      <trkpt lat="47.28033" lon="4.97708">
        <ele>317</ele>
        <time>2012-03-25T08:40:45Z</time>
      </trkpt>
      <trkpt lat="47.28023" lon="4.97695">
        <ele>318</ele>
        <time>2012-03-25T08:40:51Z</time>
      </trkpt>
      <trkpt lat="47.28013" lon="4.9768">
        <ele>326</ele>
        <time>2012-03-25T08:40:59Z</time>
      </trkpt>
      <trkpt lat="47.28015" lon="4.97658">
        <ele>331</ele>
        <time>2012-03-25T08:41:09Z</time>
      </trkpt>
      <trkpt lat="47.28022" lon="4.97633">
        <ele>334</ele>
        <time>2012-03-25T08:41:17Z</time>
      </trkpt>
      <trkpt lat="47.28025" lon="4.97612">
        <ele>336</ele>
        <time>2012-03-25T08:41:25Z</time>
      </trkpt>
      <trkpt lat="47.28033" lon="4.97592">
        <ele>339</ele>
        <time>2012-03-25T08:41:33Z</time>
      </trkpt>
      <trkpt lat="47.28038" lon="4.9757">
        <ele>342</ele>
        <time>2012-03-25T08:41:42Z</time>
      </trkpt>
      <trkpt lat="47.28042" lon="4.97548">
        <ele>345</ele>
        <time>2012-03-25T08:41:48Z</time>
      </trkpt>
      <trkpt lat="47.28047" lon="4.97523">
        <ele>348</ele>
        <time>2012-03-25T08:41:58Z</time>
      </trkpt>
      <trkpt lat="47.2805" lon="4.97488">
        <ele>350</ele>
        <time>2012-03-25T08:42:10Z</time>
      </trkpt>
      <trkpt lat="47.28052" lon="4.97468">
        <ele>350</ele>
        <time>2012-03-25T08:42:16Z</time>
      </trkpt>
      <trkpt lat="47.28053" lon="4.97445">
        <ele>348</ele>
        <time>2012-03-25T08:42:22Z</time>
      </trkpt>
      <trkpt lat="47.28057" lon="4.97422">
        <ele>347</ele>
        <time>2012-03-25T08:42:30Z</time>
      </trkpt>
      <trkpt lat="47.2806" lon="4.97402">
        <ele>348</ele>
        <time>2012-03-25T08:42:36Z</time>
      </trkpt>
      <trkpt lat="47.28065" lon="4.97377">
        <ele>343</ele>
        <time>2012-03-25T08:42:45Z</time>
      </trkpt>
      <trkpt lat="47.28068" lon="4.97355">
        <ele>344</ele>
        <time>2012-03-25T08:42:53Z</time>
      </trkpt>
      <trkpt lat="47.28072" lon="4.97327">
        <ele>347</ele>
        <time>2012-03-25T08:43:03Z</time>
      </trkpt>
      <trkpt lat="47.28073" lon="4.97307">
        <ele>350</ele>
        <time>2012-03-25T08:43:13Z</time>
      </trkpt>
      <trkpt lat="47.28073" lon="4.97285">
        <ele>353</ele>
        <time>2012-03-25T08:43:21Z</time>
      </trkpt>
      <trkpt lat="47.28075" lon="4.97263">
        <ele>355</ele>
        <time>2012-03-25T08:43:29Z</time>
      </trkpt>
      <trkpt lat="47.28082" lon="4.9724">
        <ele>353</ele>
        <time>2012-03-25T08:43:35Z</time>
      </trkpt>
      <trkpt lat="47.28083" lon="4.9722">
        <ele>350</ele>
        <time>2012-03-25T08:43:41Z</time>
      </trkpt>
      <trkpt lat="47.28087" lon="4.97197">
        <ele>350</ele>
        <time>2012-03-25T08:43:49Z</time>
      </trkpt>
      <trkpt lat="47.28088" lon="4.97172">
        <ele>350</ele>
        <time>2012-03-25T08:43:58Z</time>
      </trkpt>
      <trkpt lat="47.28093" lon="4.9715">
        <ele>355</ele>
        <time>2012-03-25T08:44:06Z</time>
      </trkpt>
      <trkpt lat="47.28098" lon="4.97125">
        <ele>355</ele>
        <time>2012-03-25T08:44:12Z</time>
      </trkpt>
      <trkpt lat="47.28102" lon="4.97088">
        <ele>358</ele>
        <time>2012-03-25T08:44:24Z</time>
      </trkpt>
      <trkpt lat="47.28102" lon="4.97067">
        <ele>362</ele>
        <time>2012-03-25T08:44:32Z</time>
      </trkpt>
      <trkpt lat="47.281" lon="4.97033">
        <ele>368</ele>
        <time>2012-03-25T08:44:42Z</time>
      </trkpt>
      <trkpt lat="47.28108" lon="4.97015">
        <ele>376</ele>
        <time>2012-03-25T08:44:52Z</time>
      </trkpt>
      <trkpt lat="47.28117" lon="4.96998">
        <ele>378</ele>
        <time>2012-03-25T08:44:59Z</time>
      </trkpt>
      <trkpt lat="47.28125" lon="4.96973">
        <ele>374</ele>
        <time>2012-03-25T08:45:05Z</time>
      </trkpt>
      <trkpt lat="47.2813" lon="4.96953">
        <ele>371</ele>
        <time>2012-03-25T08:45:11Z</time>
      </trkpt>
      <trkpt lat="47.28133" lon="4.9693">
        <ele>369</ele>
        <time>2012-03-25T08:45:19Z</time>
      </trkpt>
      <trkpt lat="47.2814" lon="4.96907">
        <ele>369</ele>
        <time>2012-03-25T08:45:27Z</time>
      </trkpt>
      <trkpt lat="47.28143" lon="4.96885">
        <ele>370</ele>
        <time>2012-03-25T08:45:37Z</time>
      </trkpt>
      <trkpt lat="47.28145" lon="4.96863">
        <ele>371</ele>
        <time>2012-03-25T08:45:43Z</time>
      </trkpt>
      <trkpt lat="47.28143" lon="4.96832">
        <ele>381</ele>
        <time>2012-03-25T08:45:53Z</time>
      </trkpt>
      <trkpt lat="47.28148" lon="4.96812">
        <ele>386</ele>
        <time>2012-03-25T08:46:00Z</time>
      </trkpt>
      <trkpt lat="47.28153" lon="4.9679">
        <ele>394</ele>
        <time>2012-03-25T08:46:08Z</time>
      </trkpt>
      <trkpt lat="47.2816" lon="4.96765">
        <ele>397</ele>
        <time>2012-03-25T08:46:14Z</time>
      </trkpt>
      <trkpt lat="47.28162" lon="4.96745">
        <ele>397</ele>
        <time>2012-03-25T08:46:18Z</time>
      </trkpt>
      <trkpt lat="47.28167" lon="4.96718">
        <ele>390</ele>
        <time>2012-03-25T08:46:24Z</time>
      </trkpt>
      <trkpt lat="47.2817" lon="4.96697">
        <ele>382</ele>
        <time>2012-03-25T08:46:30Z</time>
      </trkpt>
      <trkpt lat="47.28152" lon="4.9671">
        <ele>387</ele>
        <time>2012-03-25T08:46:50Z</time>
      </trkpt>
      <trkpt lat="47.28145" lon="4.96728">
        <ele>389</ele>
        <time>2012-03-25T08:46:56Z</time>
      </trkpt>
      <trkpt lat="47.28137" lon="4.96752">
        <ele>388</ele>
        <time>2012-03-25T08:47:04Z</time>
      </trkpt>
      <trkpt lat="47.28128" lon="4.96777">
        <ele>390</ele>
        <time>2012-03-25T08:47:13Z</time>
      </trkpt>
      <trkpt lat="47.2812" lon="4.96802">
        <ele>390</ele>
        <time>2012-03-25T08:47:23Z</time>
      </trkpt>
      <trkpt lat="47.28108" lon="4.96818">
        <ele>389</ele>
        <time>2012-03-25T08:47:33Z</time>
      </trkpt>
      <trkpt lat="47.28102" lon="4.96843">
        <ele>393</ele>
        <time>2012-03-25T08:47:43Z</time>
      </trkpt>
      <trkpt lat="47.28095" lon="4.96865">
        <ele>401</ele>
        <time>2012-03-25T08:47:49Z</time>
      </trkpt>
      <trkpt lat="47.28082" lon="4.9689">
        <ele>401</ele>
        <time>2012-03-25T08:47:59Z</time>
      </trkpt>
      <trkpt lat="47.28072" lon="4.96907">
        <ele>401</ele>
        <time>2012-03-25T08:48:07Z</time>
      </trkpt>
      <trkpt lat="47.2806" lon="4.96918">
        <ele>400</ele>
        <time>2012-03-25T08:48:11Z</time>
      </trkpt>
      <trkpt lat="47.2804" lon="4.96933">
        <ele>398</ele>
        <time>2012-03-25T08:48:19Z</time>
      </trkpt>
      <trkpt lat="47.28023" lon="4.9694">
        <ele>402</ele>
        <time>2012-03-25T08:48:26Z</time>
      </trkpt>
      <trkpt lat="47.2801" lon="4.96943">
        <ele>405</ele>
        <time>2012-03-25T08:48:36Z</time>
      </trkpt>
      <trkpt lat="47.28" lon="4.96958">
        <ele>410</ele>
        <time>2012-03-25T08:48:46Z</time>
      </trkpt>
      <trkpt lat="47.27992" lon="4.96977">
        <ele>413</ele>
        <time>2012-03-25T08:48:52Z</time>
      </trkpt>
      <trkpt lat="47.27988" lon="4.96997">
        <ele>414</ele>
        <time>2012-03-25T08:49:00Z</time>
      </trkpt>
      <trkpt lat="47.27985" lon="4.97017">
        <ele>413</ele>
        <time>2012-03-25T08:49:06Z</time>
      </trkpt>
      <trkpt lat="47.27983" lon="4.97038">
        <ele>411</ele>
        <time>2012-03-25T08:49:12Z</time>
      </trkpt>
      <trkpt lat="47.27977" lon="4.97057">
        <ele>410</ele>
        <time>2012-03-25T08:49:18Z</time>
      </trkpt>
      <trkpt lat="47.27972" lon="4.97082">
        <ele>407</ele>
        <time>2012-03-25T08:49:29Z</time>
      </trkpt>
      <trkpt lat="47.27963" lon="4.97102">
        <ele>404</ele>
        <time>2012-03-25T08:49:37Z</time>
      </trkpt>
      <trkpt lat="47.27958" lon="4.97122">
        <ele>404</ele>
        <time>2012-03-25T08:49:45Z</time>
      </trkpt>
      <trkpt lat="47.2795" lon="4.97143">
        <ele>403</ele>
        <time>2012-03-25T08:49:55Z</time>
      </trkpt>
      <trkpt lat="47.27943" lon="4.97165">
        <ele>403</ele>
        <time>2012-03-25T08:50:03Z</time>
      </trkpt>
      <trkpt lat="47.27933" lon="4.9718">
        <ele>403</ele>
        <time>2012-03-25T08:50:09Z</time>
      </trkpt>
      <trkpt lat="47.27923" lon="4.97195">
        <ele>404</ele>
        <time>2012-03-25T08:50:15Z</time>
      </trkpt>
      <trkpt lat="47.27913" lon="4.9721">
        <ele>405</ele>
        <time>2012-03-25T08:50:21Z</time>
      </trkpt>
      <trkpt lat="47.27902" lon="4.97223">
        <ele>409</ele>
        <time>2012-03-25T08:50:29Z</time>
      </trkpt>
      <trkpt lat="47.27888" lon="4.97235">
        <ele>413</ele>
        <time>2012-03-25T08:50:38Z</time>
      </trkpt>
      <trkpt lat="47.27873" lon="4.97243">
        <ele>413</ele>
        <time>2012-03-25T08:50:44Z</time>
      </trkpt>
      <trkpt lat="47.27858" lon="4.97253">
        <ele>414</ele>
        <time>2012-03-25T08:50:50Z</time>
      </trkpt>
      <trkpt lat="47.27837" lon="4.9727">
        <ele>413</ele>
        <time>2012-03-25T08:51:00Z</time>
      </trkpt>
      <trkpt lat="47.27823" lon="4.97275">
        <ele>413</ele>
        <time>2012-03-25T08:51:06Z</time>
      </trkpt>
      <trkpt lat="47.27807" lon="4.97277">
        <ele>415</ele>
        <time>2012-03-25T08:51:14Z</time>
      </trkpt>
      <trkpt lat="47.2779" lon="4.97273">
        <ele>420</ele>
        <time>2012-03-25T08:51:22Z</time>
      </trkpt>
      <trkpt lat="47.27777" lon="4.9727">
        <ele>424</ele>
        <time>2012-03-25T08:51:28Z</time>
      </trkpt>
      <trkpt lat="47.27762" lon="4.97257">
        <ele>426</ele>
        <time>2012-03-25T08:51:36Z</time>
      </trkpt>
      <trkpt lat="47.27747" lon="4.97242">
        <ele>423</ele>
        <time>2012-03-25T08:51:45Z</time>
      </trkpt>
      <trkpt lat="47.27737" lon="4.97223">
        <ele>425</ele>
        <time>2012-03-25T08:51:53Z</time>
      </trkpt>
      <trkpt lat="47.27725" lon="4.97208">
        <ele>425</ele>
        <time>2012-03-25T08:52:01Z</time>
      </trkpt>
      <trkpt lat="47.27723" lon="4.97187">
        <ele>428</ele>
        <time>2012-03-25T08:52:09Z</time>
      </trkpt>
      <trkpt lat="47.27732" lon="4.97163">
        <ele>432</ele>
        <time>2012-03-25T08:52:19Z</time>
      </trkpt>
      <trkpt lat="47.27743" lon="4.9715">
        <ele>433</ele>
        <time>2012-03-25T08:52:27Z</time>
      </trkpt>
      <trkpt lat="47.27753" lon="4.97137">
        <ele>441</ele>
        <time>2012-03-25T08:52:35Z</time>
      </trkpt>
      <trkpt lat="47.27765" lon="4.97125">
        <ele>441</ele>
        <time>2012-03-25T08:52:43Z</time>
      </trkpt>
      <trkpt lat="47.27773" lon="4.97108">
        <ele>442</ele>
        <time>2012-03-25T08:52:50Z</time>
      </trkpt>
      <trkpt lat="47.27785" lon="4.97093">
        <ele>438</ele>
        <time>2012-03-25T08:52:56Z</time>
      </trkpt>
      <trkpt lat="47.27797" lon="4.97073">
        <ele>437</ele>
        <time>2012-03-25T08:53:04Z</time>
      </trkpt>
      <trkpt lat="47.27803" lon="4.97055">
        <ele>437</ele>
        <time>2012-03-25T08:53:12Z</time>
      </trkpt>
      <trkpt lat="47.27808" lon="4.97035">
        <ele>436</ele>
        <time>2012-03-25T08:53:18Z</time>
      </trkpt>
      <trkpt lat="47.27812" lon="4.97008">
        <ele>437</ele>
        <time>2012-03-25T08:53:26Z</time>
      </trkpt>
      <trkpt lat="47.27818" lon="4.96985">
        <ele>435</ele>
        <time>2012-03-25T08:53:34Z</time>
      </trkpt>
      <trkpt lat="47.27822" lon="4.96963">
        <ele>435</ele>
        <time>2012-03-25T08:53:40Z</time>
      </trkpt>
      <trkpt lat="47.27825" lon="4.9694">
        <ele>439</ele>
        <time>2012-03-25T08:53:48Z</time>
      </trkpt>
      <trkpt lat="47.27828" lon="4.96918">
        <ele>440</ele>
        <time>2012-03-25T08:53:56Z</time>
      </trkpt>
      <trkpt lat="47.27835" lon="4.969">
        <ele>438</ele>
        <time>2012-03-25T08:54:05Z</time>
      </trkpt>
      <trkpt lat="47.27838" lon="4.96877">
        <ele>440</ele>
        <time>2012-03-25T08:54:13Z</time>
      </trkpt>
      <trkpt lat="47.27843" lon="4.96855">
        <ele>440</ele>
        <time>2012-03-25T08:54:21Z</time>
      </trkpt>
      <trkpt lat="47.27845" lon="4.96832">
        <ele>442</ele>
        <time>2012-03-25T08:54:31Z</time>
      </trkpt>
      <trkpt lat="47.27837" lon="4.9681">
        <ele>447</ele>
        <time>2012-03-25T08:54:41Z</time>
      </trkpt>
      <trkpt lat="47.27827" lon="4.96797">
        <ele>450</ele>
        <time>2012-03-25T08:54:49Z</time>
      </trkpt>
      <trkpt lat="47.27815" lon="4.96783">
        <ele>448</ele>
        <time>2012-03-25T08:54:57Z</time>
      </trkpt>
      <trkpt lat="47.278" lon="4.96775">
        <ele>448</ele>
        <time>2012-03-25T08:55:05Z</time>
      </trkpt>
      <trkpt lat="47.27778" lon="4.96768">
        <ele>452</ele>
        <time>2012-03-25T08:55:18Z</time>
      </trkpt>
      <trkpt lat="47.27765" lon="4.9676">
        <ele>454</ele>
        <time>2012-03-25T08:55:26Z</time>
      </trkpt>
      <trkpt lat="47.27745" lon="4.9675">
        <ele>458</ele>
        <time>2012-03-25T08:55:36Z</time>
      </trkpt>
      <trkpt lat="47.27732" lon="4.96738">
        <ele>458</ele>
        <time>2012-03-25T08:55:44Z</time>
      </trkpt>
      <trkpt lat="47.27708" lon="4.96722">
        <ele>461</ele>
        <time>2012-03-25T08:55:56Z</time>
      </trkpt>
      <trkpt lat="47.27695" lon="4.96712">
        <ele>464</ele>
        <time>2012-03-25T08:56:02Z</time>
      </trkpt>
      <trkpt lat="47.2768" lon="4.96702">
        <ele>463</ele>
        <time>2012-03-25T08:56:08Z</time>
      </trkpt>
      <trkpt lat="47.27668" lon="4.96692">
        <ele>463</ele>
        <time>2012-03-25T08:56:14Z</time>
      </trkpt>
      <trkpt lat="47.27658" lon="4.96678">
        <ele>462</ele>
        <time>2012-03-25T08:56:20Z</time>
      </trkpt>
      <trkpt lat="47.27647" lon="4.96658">
        <ele>460</ele>
        <time>2012-03-25T08:56:29Z</time>
      </trkpt>
      <trkpt lat="47.27638" lon="4.96642">
        <ele>459</ele>
        <time>2012-03-25T08:56:35Z</time>
      </trkpt>
      <trkpt lat="47.27632" lon="4.96622">
        <ele>458</ele>
        <time>2012-03-25T08:56:41Z</time>
      </trkpt>
      <trkpt lat="47.27628" lon="4.96602">
        <ele>458</ele>
        <time>2012-03-25T08:56:47Z</time>
      </trkpt>
      <trkpt lat="47.27622" lon="4.96577">
        <ele>459</ele>
        <time>2012-03-25T08:56:55Z</time>
      </trkpt>
      <trkpt lat="47.27618" lon="4.96555">
        <ele>465</ele>
        <time>2012-03-25T08:57:01Z</time>
      </trkpt>
      <trkpt lat="47.27612" lon="4.96533">
        <ele>466</ele>
        <time>2012-03-25T08:57:07Z</time>
      </trkpt>
      <trkpt lat="47.27605" lon="4.96508">
        <ele>467</ele>
        <time>2012-03-25T08:57:15Z</time>
      </trkpt>
      <trkpt lat="47.276" lon="4.96482">
        <ele>466</ele>
        <time>2012-03-25T08:57:23Z</time>
      </trkpt>
      <trkpt lat="47.27595" lon="4.96458">
        <ele>464</ele>
        <time>2012-03-25T08:57:32Z</time>
      </trkpt>
      <trkpt lat="47.2759" lon="4.9643">
        <ele>460</ele>
        <time>2012-03-25T08:57:40Z</time>
      </trkpt>
      <trkpt lat="47.27587" lon="4.96405">
        <ele>462</ele>
        <time>2012-03-25T08:57:48Z</time>
      </trkpt>
      <trkpt lat="47.2758" lon="4.96382">
        <ele>467</ele>
        <time>2012-03-25T08:57:56Z</time>
      </trkpt>
      <trkpt lat="47.27568" lon="4.96352">
        <ele>477</ele>
        <time>2012-03-25T08:58:08Z</time>
      </trkpt>
      <trkpt lat="47.27568" lon="4.96328">
        <ele>474</ele>
        <time>2012-03-25T08:58:16Z</time>
      </trkpt>
      <trkpt lat="47.27572" lon="4.96303">
        <ele>474</ele>
        <time>2012-03-25T08:58:22Z</time>
      </trkpt>
      <trkpt lat="47.27568" lon="4.96278">
        <ele>477</ele>
        <time>2012-03-25T08:58:28Z</time>
      </trkpt>
      <trkpt lat="47.27562" lon="4.9626">
        <ele>478</ele>
        <time>2012-03-25T08:58:34Z</time>
      </trkpt>
      <trkpt lat="47.27547" lon="4.96247">
        <ele>476</ele>
        <time>2012-03-25T08:58:41Z</time>
      </trkpt>
      <trkpt lat="47.27522" lon="4.96227">
        <ele>479</ele>
        <time>2012-03-25T08:58:49Z</time>
      </trkpt>
      <trkpt lat="47.2751" lon="4.96213">
        <ele>478</ele>
        <time>2012-03-25T08:58:53Z</time>
      </trkpt>
      <trkpt lat="47.27493" lon="4.96207">
        <ele>474</ele>
        <time>2012-03-25T08:58:57Z</time>
      </trkpt>
      <trkpt lat="47.27477" lon="4.96198">
        <ele>470</ele>
        <time>2012-03-25T08:59:01Z</time>
      </trkpt>
      <trkpt lat="47.27458" lon="4.9619">
        <ele>468</ele>
        <time>2012-03-25T08:59:05Z</time>
      </trkpt>
      <trkpt lat="47.27428" lon="4.96175">
        <ele>464</ele>
        <time>2012-03-25T08:59:11Z</time>
      </trkpt>
      <trkpt lat="47.27415" lon="4.96172">
        <ele>464</ele>
        <time>2012-03-25T08:59:13Z</time>
      </trkpt>
      <trkpt lat="47.27393" lon="4.96162">
        <ele>460</ele>
        <time>2012-03-25T08:59:17Z</time>
      </trkpt>
      <trkpt lat="47.27373" lon="4.9615">
        <ele>459</ele>
        <time>2012-03-25T08:59:21Z</time>
      </trkpt>
      <trkpt lat="47.27355" lon="4.96137">
        <ele>457</ele>
        <time>2012-03-25T08:59:25Z</time>
      </trkpt>
      <trkpt lat="47.27317" lon="4.9611">
        <ele>456</ele>
        <time>2012-03-25T08:59:33Z</time>
      </trkpt>
      <trkpt lat="47.2729" lon="4.96093">
        <ele>456</ele>
        <time>2012-03-25T08:59:39Z</time>
      </trkpt>
      <trkpt lat="47.27262" lon="4.9608">
        <ele>454</ele>
        <time>2012-03-25T08:59:45Z</time>
      </trkpt>
      <trkpt lat="47.27247" lon="4.96065">
        <ele>450</ele>
        <time>2012-03-25T09:00:02Z</time>
      </trkpt>
      <trkpt lat="47.27237" lon="4.96048">
        <ele>453</ele>
        <time>2012-03-25T09:00:10Z</time>
      </trkpt>
      <trkpt lat="47.27238" lon="4.96028">
        <ele>471</ele>
        <time>2012-03-25T09:00:40Z</time>
      </trkpt>
      <trkpt lat="47.2724" lon="4.96007">
        <ele>474</ele>
        <time>2012-03-25T09:00:46Z</time>
      </trkpt>
      <trkpt lat="47.27245" lon="4.95987">
        <ele>476</ele>
        <time>2012-03-25T09:00:54Z</time>
      </trkpt>
      <trkpt lat="47.27253" lon="4.95967">
        <ele>477</ele>
        <time>2012-03-25T09:01:07Z</time>
      </trkpt>
      <trkpt lat="47.27258" lon="4.95947">
        <ele>476</ele>
        <time>2012-03-25T09:01:13Z</time>
      </trkpt>
      <trkpt lat="47.27267" lon="4.9591">
        <ele>472</ele>
        <time>2012-03-25T09:01:23Z</time>
      </trkpt>
      <trkpt lat="47.27272" lon="4.9589">
        <ele>472</ele>
        <time>2012-03-25T09:01:29Z</time>
      </trkpt>
      <trkpt lat="47.27273" lon="4.95865">
        <ele>476</ele>
        <time>2012-03-25T09:01:37Z</time>
      </trkpt>
      <trkpt lat="47.27275" lon="4.95845">
        <ele>478</ele>
        <time>2012-03-25T09:01:43Z</time>
      </trkpt>
      <trkpt lat="47.27277" lon="4.95817">
        <ele>474</ele>
        <time>2012-03-25T09:01:49Z</time>
      </trkpt>
      <trkpt lat="47.2728" lon="4.95795">
        <ele>476</ele>
        <time>2012-03-25T09:01:55Z</time>
      </trkpt>
      <trkpt lat="47.27285" lon="4.9577">
        <ele>477</ele>
        <time>2012-03-25T09:02:01Z</time>
      </trkpt>
      <trkpt lat="47.27288" lon="4.95748">
        <ele>477</ele>
        <time>2012-03-25T09:02:05Z</time>
      </trkpt>
      <trkpt lat="47.2729" lon="4.95722">
        <ele>476</ele>
        <time>2012-03-25T09:02:09Z</time>
      </trkpt>
      <trkpt lat="47.27292" lon="4.95702">
        <ele>475</ele>
        <time>2012-03-25T09:02:13Z</time>
      </trkpt>
      <trkpt lat="47.27293" lon="4.95678">
        <ele>474</ele>
        <time>2012-03-25T09:02:17Z</time>
      </trkpt>
      <trkpt lat="47.27297" lon="4.95653">
        <ele>473</ele>
        <time>2012-03-25T09:02:22Z</time>
      </trkpt>
      <trkpt lat="47.27295" lon="4.95632">
        <ele>473</ele>
        <time>2012-03-25T09:02:26Z</time>
      </trkpt>
      <trkpt lat="47.273" lon="4.95612">
        <ele>475</ele>
        <time>2012-03-25T09:02:32Z</time>
      </trkpt>
      <trkpt lat="47.27302" lon="4.95592">
        <ele>477</ele>
        <time>2012-03-25T09:02:38Z</time>
      </trkpt>
      <trkpt lat="47.27305" lon="4.95572">
        <ele>481</ele>
        <time>2012-03-25T09:02:42Z</time>
      </trkpt>
      <trkpt lat="47.27308" lon="4.95545">
        <ele>483</ele>
        <time>2012-03-25T09:02:46Z</time>
      </trkpt>
      <trkpt lat="47.27317" lon="4.95515">
        <ele>482</ele>
        <time>2012-03-25T09:02:50Z</time>
      </trkpt>
      <trkpt lat="47.27323" lon="4.95482">
        <ele>480</ele>
        <time>2012-03-25T09:02:54Z</time>
      </trkpt>
      <trkpt lat="47.27332" lon="4.95453">
        <ele>477</ele>
        <time>2012-03-25T09:02:58Z</time>
      </trkpt>
      <trkpt lat="47.27338" lon="4.95433">
        <ele>475</ele>
        <time>2012-03-25T09:03:02Z</time>
      </trkpt>
      <trkpt lat="47.27342" lon="4.954">
        <ele>470</ele>
        <time>2012-03-25T09:03:06Z</time>
      </trkpt>
      <trkpt lat="47.27347" lon="4.95377">
        <ele>466</ele>
        <time>2012-03-25T09:03:10Z</time>
      </trkpt>
      <trkpt lat="47.27342" lon="4.9535">
        <ele>464</ele>
        <time>2012-03-25T09:03:16Z</time>
      </trkpt>
      <trkpt lat="47.27332" lon="4.95328">
        <ele>463</ele>
        <time>2012-03-25T09:03:20Z</time>
      </trkpt>
      <trkpt lat="47.27317" lon="4.95298">
        <ele>462</ele>
        <time>2012-03-25T09:03:27Z</time>
      </trkpt>
      <trkpt lat="47.27307" lon="4.95275">
        <ele>465</ele>
        <time>2012-03-25T09:03:33Z</time>
      </trkpt>
      <trkpt lat="47.273" lon="4.95255">
        <ele>469</ele>
        <time>2012-03-25T09:03:37Z</time>
      </trkpt>
      <trkpt lat="47.27293" lon="4.95232">
        <ele>471</ele>
        <time>2012-03-25T09:03:41Z</time>
      </trkpt>
      <trkpt lat="47.27283" lon="4.95212">
        <ele>470</ele>
        <time>2012-03-25T09:03:45Z</time>
      </trkpt>
      <trkpt lat="47.27275" lon="4.95193">
        <ele>470</ele>
        <time>2012-03-25T09:03:49Z</time>
      </trkpt>
      <trkpt lat="47.27267" lon="4.95175">
        <ele>471</ele>
        <time>2012-03-25T09:03:53Z</time>
      </trkpt>
      <trkpt lat="47.27252" lon="4.95183">
        <ele>476</ele>
        <time>2012-03-25T09:03:59Z</time>
      </trkpt>
      <trkpt lat="47.2724" lon="4.95195">
        <ele>478</ele>
        <time>2012-03-25T09:04:03Z</time>
      </trkpt>
      <trkpt lat="47.27227" lon="4.95203">
        <ele>481</ele>
        <time>2012-03-25T09:04:09Z</time>
      </trkpt>
      <trkpt lat="47.27212" lon="4.9521">
        <ele>481</ele>
        <time>2012-03-25T09:04:15Z</time>
      </trkpt>
      <trkpt lat="47.27198" lon="4.9522">
        <ele>480</ele>
        <time>2012-03-25T09:04:21Z</time>
      </trkpt>
      <trkpt lat="47.27183" lon="4.95237">
        <ele>478</ele>
        <time>2012-03-25T09:04:30Z</time>
      </trkpt>
      <trkpt lat="47.27167" lon="4.95263">
        <ele>479</ele>
        <time>2012-03-25T09:04:36Z</time>
      </trkpt>
      <trkpt lat="47.27155" lon="4.95282">
        <ele>477</ele>
        <time>2012-03-25T09:04:40Z</time>
      </trkpt>
      <trkpt lat="47.2714" lon="4.95298">
        <ele>478</ele>
        <time>2012-03-25T09:04:44Z</time>
      </trkpt>
      <trkpt lat="47.27127" lon="4.95313">
        <ele>479</ele>
        <time>2012-03-25T09:04:48Z</time>
      </trkpt>
      <trkpt lat="47.2711" lon="4.95323">
        <ele>480</ele>
        <time>2012-03-25T09:04:52Z</time>
      </trkpt>
      <trkpt lat="47.27095" lon="4.95337">
        <ele>476</ele>
        <time>2012-03-25T09:04:56Z</time>
      </trkpt>
      <trkpt lat="47.27083" lon="4.95348">
        <ele>475</ele>
        <time>2012-03-25T09:05:00Z</time>
      </trkpt>
      <trkpt lat="47.27072" lon="4.95363">
        <ele>474</ele>
        <time>2012-03-25T09:05:04Z</time>
      </trkpt>
      <trkpt lat="47.2706" lon="4.95378">
        <ele>474</ele>
        <time>2012-03-25T09:05:08Z</time>
      </trkpt>
      <trkpt lat="47.27028" lon="4.95418">
        <ele>471</ele>
        <time>2012-03-25T09:05:16Z</time>
      </trkpt>
      <trkpt lat="47.26992" lon="4.95468">
        <ele>467</ele>
        <time>2012-03-25T09:05:26Z</time>
      </trkpt>
      <trkpt lat="47.2698" lon="4.95492">
        <ele>467</ele>
        <time>2012-03-25T09:05:30Z</time>
      </trkpt>
      <trkpt lat="47.2695" lon="4.95545">
        <ele>467</ele>
        <time>2012-03-25T09:05:41Z</time>
      </trkpt>
      <trkpt lat="47.26933" lon="4.95567">
        <ele>466</ele>
        <time>2012-03-25T09:05:45Z</time>
      </trkpt>
      <trkpt lat="47.26917" lon="4.95582">
        <ele>464</ele>
        <time>2012-03-25T09:05:49Z</time>
      </trkpt>
      <trkpt lat="47.269" lon="4.95593">
        <ele>464</ele>
        <time>2012-03-25T09:05:53Z</time>
      </trkpt>
      <trkpt lat="47.26888" lon="4.95605">
        <ele>465</ele>
        <time>2012-03-25T09:05:57Z</time>
      </trkpt>
      <trkpt lat="47.26872" lon="4.95622">
        <ele>465</ele>
        <time>2012-03-25T09:06:03Z</time>
      </trkpt>
      <trkpt lat="47.2686" lon="4.95635">
        <ele>467</ele>
        <time>2012-03-25T09:06:07Z</time>
      </trkpt>
      <trkpt lat="47.26848" lon="4.95657">
        <ele>470</ele>
        <time>2012-03-25T09:06:13Z</time>
      </trkpt>
      <trkpt lat="47.26828" lon="4.95695">
        <ele>472</ele>
        <time>2012-03-25T09:06:21Z</time>
      </trkpt>
      <trkpt lat="47.26817" lon="4.9571">
        <ele>474</ele>
        <time>2012-03-25T09:06:25Z</time>
      </trkpt>
      <trkpt lat="47.26807" lon="4.95727">
        <ele>473</ele>
        <time>2012-03-25T09:06:29Z</time>
      </trkpt>
      <trkpt lat="47.26798" lon="4.95748">
        <ele>473</ele>
        <time>2012-03-25T09:06:33Z</time>
      </trkpt>
      <trkpt lat="47.26785" lon="4.95782">
        <ele>472</ele>
        <time>2012-03-25T09:06:40Z</time>
      </trkpt>
      <trkpt lat="47.26767" lon="4.95797">
        <ele>471</ele>
        <time>2012-03-25T09:06:44Z</time>
      </trkpt>
      <trkpt lat="47.2675" lon="4.95808">
        <ele>470</ele>
        <time>2012-03-25T09:06:48Z</time>
      </trkpt>
      <trkpt lat="47.26735" lon="4.95803">
        <ele>471</ele>
        <time>2012-03-25T09:06:52Z</time>
      </trkpt>
      <trkpt lat="47.26725" lon="4.95785">
        <ele>471</ele>
        <time>2012-03-25T09:06:56Z</time>
      </trkpt>
      <trkpt lat="47.26715" lon="4.95765">
        <ele>472</ele>
        <time>2012-03-25T09:07:00Z</time>
      </trkpt>
      <trkpt lat="47.26708" lon="4.95742">
        <ele>473</ele>
        <time>2012-03-25T09:07:04Z</time>
      </trkpt>
      <trkpt lat="47.26707" lon="4.9572">
        <ele>475</ele>
        <time>2012-03-25T09:07:08Z</time>
      </trkpt>
      <trkpt lat="47.26703" lon="4.95698">
        <ele>475</ele>
        <time>2012-03-25T09:07:12Z</time>
      </trkpt>
      <trkpt lat="47.26708" lon="4.95673">
        <ele>478</ele>
        <time>2012-03-25T09:07:18Z</time>
      </trkpt>
      <trkpt lat="47.26712" lon="4.95633">
        <ele>477</ele>
        <time>2012-03-25T09:07:26Z</time>
      </trkpt>
      <trkpt lat="47.2671" lon="4.95603">
        <ele>476</ele>
        <time>2012-03-25T09:07:32Z</time>
      </trkpt>
      <trkpt lat="47.26713" lon="4.9558">
        <ele>476</ele>
        <time>2012-03-25T09:07:38Z</time>
      </trkpt>
      <trkpt lat="47.267" lon="4.95558">
        <ele>475</ele>
        <time>2012-03-25T09:07:44Z</time>
      </trkpt>
      <trkpt lat="47.26683" lon="4.95532">
        <ele>482</ele>
        <time>2012-03-25T09:07:53Z</time>
      </trkpt>
      <trkpt lat="47.26672" lon="4.95513">
        <ele>484</ele>
        <time>2012-03-25T09:07:59Z</time>
      </trkpt>
      <trkpt lat="47.2666" lon="4.95493">
        <ele>483</ele>
        <time>2012-03-25T09:08:05Z</time>
      </trkpt>
      <trkpt lat="47.26648" lon="4.95477">
        <ele>486</ele>
        <time>2012-03-25T09:08:11Z</time>
      </trkpt>
      <trkpt lat="47.26635" lon="4.95462">
        <ele>489</ele>
        <time>2012-03-25T09:08:17Z</time>
      </trkpt>
      <trkpt lat="47.26625" lon="4.95447">
        <ele>489</ele>
        <time>2012-03-25T09:08:21Z</time>
      </trkpt>
      <trkpt lat="47.26613" lon="4.95428">
        <ele>490</ele>
        <time>2012-03-25T09:08:27Z</time>
      </trkpt>
      <trkpt lat="47.26595" lon="4.9541">
        <ele>489</ele>
        <time>2012-03-25T09:08:35Z</time>
      </trkpt>
      <trkpt lat="47.2657" lon="4.95377">
        <ele>494</ele>
        <time>2012-03-25T09:08:45Z</time>
      </trkpt>
      <trkpt lat="47.2655" lon="4.95357">
        <ele>494</ele>
        <time>2012-03-25T09:08:53Z</time>
      </trkpt>
      <trkpt lat="47.26538" lon="4.95342">
        <ele>493</ele>
        <time>2012-03-25T09:08:57Z</time>
      </trkpt>
      <trkpt lat="47.26525" lon="4.95325">
        <ele>493</ele>
        <time>2012-03-25T09:09:04Z</time>
      </trkpt>
      <trkpt lat="47.26512" lon="4.95317">
        <ele>495</ele>
        <time>2012-03-25T09:09:08Z</time>
      </trkpt>
      <trkpt lat="47.26495" lon="4.95307">
        <ele>497</ele>
        <time>2012-03-25T09:09:14Z</time>
      </trkpt>
      <trkpt lat="47.26477" lon="4.95297">
        <ele>499</ele>
        <time>2012-03-25T09:09:20Z</time>
      </trkpt>
      <trkpt lat="47.26457" lon="4.95285">
        <ele>498</ele>
        <time>2012-03-25T09:09:26Z</time>
      </trkpt>
      <trkpt lat="47.26443" lon="4.95277">
        <ele>500</ele>
        <time>2012-03-25T09:09:30Z</time>
      </trkpt>
      <trkpt lat="47.26433" lon="4.95262">
        <ele>500</ele>
        <time>2012-03-25T09:09:34Z</time>
      </trkpt>
      <trkpt lat="47.26428" lon="4.9524">
        <ele>500</ele>
        <time>2012-03-25T09:09:38Z</time>
      </trkpt>
      <trkpt lat="47.26428" lon="4.95218">
        <ele>498</ele>
        <time>2012-03-25T09:09:42Z</time>
      </trkpt>
      <trkpt lat="47.26423" lon="4.95198">
        <ele>495</ele>
        <time>2012-03-25T09:09:46Z</time>
      </trkpt>
      <trkpt lat="47.26422" lon="4.95178">
        <ele>496</ele>
        <time>2012-03-25T09:09:50Z</time>
      </trkpt>
      <trkpt lat="47.26427" lon="4.95155">
        <ele>494</ele>
        <time>2012-03-25T09:09:54Z</time>
      </trkpt>
      <trkpt lat="47.2643" lon="4.95128">
        <ele>490</ele>
        <time>2012-03-25T09:10:00Z</time>
      </trkpt>
      <trkpt lat="47.26423" lon="4.95107">
        <ele>489</ele>
        <time>2012-03-25T09:10:07Z</time>
      </trkpt>
      <trkpt lat="47.26435" lon="4.95093">
        <ele>495</ele>
        <time>2012-03-25T09:10:25Z</time>
      </trkpt>
      <trkpt lat="47.26452" lon="4.95103">
        <ele>497</ele>
        <time>2012-03-25T09:10:35Z</time>
      </trkpt>
      <trkpt lat="47.26453" lon="4.95082">
        <ele>494</ele>
        <time>2012-03-25T09:10:45Z</time>
      </trkpt>
      <trkpt lat="47.26448" lon="4.95057">
        <ele>490</ele>
        <time>2012-03-25T09:10:51Z</time>
      </trkpt>
      <trkpt lat="47.26438" lon="4.95032">
        <ele>491</ele>
        <time>2012-03-25T09:10:57Z</time>
      </trkpt>
      <trkpt lat="47.2643" lon="4.9501">
        <ele>490</ele>
        <time>2012-03-25T09:11:03Z</time>
      </trkpt>
      <trkpt lat="47.26418" lon="4.94983">
        <ele>493</ele>
        <time>2012-03-25T09:11:10Z</time>
      </trkpt>
      <trkpt lat="47.26402" lon="4.9495">
        <ele>492</ele>
        <time>2012-03-25T09:11:18Z</time>
      </trkpt>
      <trkpt lat="47.26392" lon="4.94933">
        <ele>491</ele>
        <time>2012-03-25T09:11:22Z</time>
      </trkpt>
      <trkpt lat="47.26383" lon="4.94913">
        <ele>493</ele>
        <time>2012-03-25T09:11:26Z</time>
      </trkpt>
      <trkpt lat="47.26375" lon="4.94893">
        <ele>495</ele>
        <time>2012-03-25T09:11:30Z</time>
      </trkpt>
      <trkpt lat="47.26365" lon="4.94875">
        <ele>496</ele>
        <time>2012-03-25T09:11:34Z</time>
      </trkpt>
      <trkpt lat="47.26358" lon="4.94855">
        <ele>497</ele>
        <time>2012-03-25T09:11:38Z</time>
      </trkpt>
      <trkpt lat="47.26348" lon="4.9483">
        <ele>494</ele>
        <time>2012-03-25T09:11:42Z</time>
      </trkpt>
      <trkpt lat="47.26328" lon="4.94778">
        <ele>490</ele>
        <time>2012-03-25T09:11:50Z</time>
      </trkpt>
      <trkpt lat="47.26323" lon="4.94757">
        <ele>490</ele>
        <time>2012-03-25T09:11:54Z</time>
      </trkpt>
      <trkpt lat="47.2631" lon="4.94717">
        <ele>495</ele>
        <time>2012-03-25T09:12:00Z</time>
      </trkpt>
      <trkpt lat="47.26307" lon="4.94692">
        <ele>492</ele>
        <time>2012-03-25T09:12:04Z</time>
      </trkpt>
      <trkpt lat="47.26302" lon="4.94668">
        <ele>491</ele>
        <time>2012-03-25T09:12:08Z</time>
      </trkpt>
      <trkpt lat="47.26297" lon="4.94647">
        <ele>492</ele>
        <time>2012-03-25T09:12:12Z</time>
      </trkpt>
      <trkpt lat="47.26293" lon="4.94622">
        <ele>491</ele>
        <time>2012-03-25T09:12:17Z</time>
      </trkpt>
      <trkpt lat="47.26287" lon="4.94598">
        <ele>489</ele>
        <time>2012-03-25T09:12:21Z</time>
      </trkpt>
      <trkpt lat="47.26273" lon="4.94562">
        <ele>486</ele>
        <time>2012-03-25T09:12:27Z</time>
      </trkpt>
      <trkpt lat="47.2626" lon="4.94542">
        <ele>485</ele>
        <time>2012-03-25T09:12:31Z</time>
      </trkpt>
      <trkpt lat="47.26245" lon="4.94522">
        <ele>484</ele>
        <time>2012-03-25T09:12:35Z</time>
      </trkpt>
      <trkpt lat="47.26225" lon="4.94495">
        <ele>484</ele>
        <time>2012-03-25T09:12:41Z</time>
      </trkpt>
      <trkpt lat="47.26212" lon="4.94473">
        <ele>483</ele>
        <time>2012-03-25T09:12:45Z</time>
      </trkpt>
      <trkpt lat="47.26197" lon="4.94447">
        <ele>482</ele>
        <time>2012-03-25T09:12:51Z</time>
      </trkpt>
      <trkpt lat="47.26188" lon="4.94428">
        <ele>482</ele>
        <time>2012-03-25T09:12:55Z</time>
      </trkpt>
      <trkpt lat="47.26178" lon="4.94408">
        <ele>485</ele>
        <time>2012-03-25T09:13:03Z</time>
      </trkpt>
      <trkpt lat="47.26193" lon="4.94403">
        <ele>488</ele>
        <time>2012-03-25T09:13:09Z</time>
      </trkpt>
      <trkpt lat="47.26208" lon="4.94393">
        <ele>488</ele>
        <time>2012-03-25T09:13:17Z</time>
      </trkpt>
      <trkpt lat="47.26218" lon="4.94375">
        <ele>488</ele>
        <time>2012-03-25T09:13:24Z</time>
      </trkpt>
      <trkpt lat="47.26225" lon="4.94355">
        <ele>488</ele>
        <time>2012-03-25T09:13:30Z</time>
      </trkpt>
      <trkpt lat="47.26217" lon="4.94338">
        <ele>493</ele>
        <time>2012-03-25T09:13:38Z</time>
      </trkpt>
      <trkpt lat="47.26203" lon="4.94327">
        <ele>497</ele>
        <time>2012-03-25T09:13:46Z</time>
      </trkpt>
      <trkpt lat="47.26188" lon="4.94322">
        <ele>500</ele>
        <time>2012-03-25T09:13:52Z</time>
      </trkpt>
      <trkpt lat="47.26173" lon="4.94322">
        <ele>503</ele>
        <time>2012-03-25T09:13:58Z</time>
      </trkpt>
      <trkpt lat="47.26152" lon="4.94325">
        <ele>506</ele>
        <time>2012-03-25T09:14:06Z</time>
      </trkpt>
      <trkpt lat="47.26133" lon="4.9432">
        <ele>506</ele>
        <time>2012-03-25T09:14:12Z</time>
      </trkpt>
      <trkpt lat="47.26115" lon="4.94315">
        <ele>506</ele>
        <time>2012-03-25T09:14:18Z</time>
      </trkpt>
      <trkpt lat="47.2609" lon="4.94307">
        <ele>509</ele>
        <time>2012-03-25T09:14:24Z</time>
      </trkpt>
      <trkpt lat="47.2607" lon="4.94297">
        <ele>510</ele>
        <time>2012-03-25T09:14:29Z</time>
      </trkpt>
      <trkpt lat="47.26057" lon="4.94293">
        <ele>503</ele>
        <time>2012-03-25T09:14:39Z</time>
      </trkpt>
      <trkpt lat="47.26052" lon="4.94273">
        <ele>505</ele>
        <time>2012-03-25T09:14:49Z</time>
      </trkpt>
      <trkpt lat="47.26048" lon="4.9425">
        <ele>503</ele>
        <time>2012-03-25T09:14:57Z</time>
      </trkpt>
      <trkpt lat="47.26043" lon="4.9423">
        <ele>499</ele>
        <time>2012-03-25T09:15:03Z</time>
      </trkpt>
      <trkpt lat="47.26033" lon="4.94203">
        <ele>499</ele>
        <time>2012-03-25T09:15:15Z</time>
      </trkpt>
      <trkpt lat="47.26025" lon="4.94187">
        <ele>501</ele>
        <time>2012-03-25T09:15:23Z</time>
      </trkpt>
      <trkpt lat="47.26017" lon="4.9417">
        <ele>501</ele>
        <time>2012-03-25T09:15:31Z</time>
      </trkpt>
      <trkpt lat="47.26008" lon="4.9415">
        <ele>502</ele>
        <time>2012-03-25T09:15:38Z</time>
      </trkpt>
      <trkpt lat="47.26005" lon="4.94127">
        <ele>503</ele>
        <time>2012-03-25T09:15:48Z</time>
      </trkpt>
      <trkpt lat="47.26002" lon="4.94107">
        <ele>506</ele>
        <time>2012-03-25T09:15:54Z</time>
      </trkpt>
      <trkpt lat="47.25997" lon="4.94087">
        <ele>511</ele>
        <time>2012-03-25T09:16:04Z</time>
      </trkpt>
      <trkpt lat="47.25993" lon="4.94065">
        <ele>517</ele>
        <time>2012-03-25T09:16:14Z</time>
      </trkpt>
      <trkpt lat="47.25995" lon="4.94035">
        <ele>514</ele>
        <time>2012-03-25T09:16:24Z</time>
      </trkpt>
      <trkpt lat="47.25997" lon="4.94015">
        <ele>516</ele>
        <time>2012-03-25T09:16:32Z</time>
      </trkpt>
      <trkpt lat="47.26" lon="4.93993">
        <ele>519</ele>
        <time>2012-03-25T09:16:42Z</time>
      </trkpt>
      <trkpt lat="47.26008" lon="4.93975">
        <ele>519</ele>
        <time>2012-03-25T09:16:49Z</time>
      </trkpt>
      <trkpt lat="47.26007" lon="4.93955">
        <ele>520</ele>
        <time>2012-03-25T09:17:01Z</time>
      </trkpt>
      <trkpt lat="47.25992" lon="4.93948">
        <ele>524</ele>
        <time>2012-03-25T09:17:13Z</time>
      </trkpt>
      <trkpt lat="47.25977" lon="4.93945">
        <ele>526</ele>
        <time>2012-03-25T09:17:23Z</time>
      </trkpt>
      <trkpt lat="47.2596" lon="4.93942">
        <ele>525</ele>
        <time>2012-03-25T09:17:31Z</time>
      </trkpt>
      <trkpt lat="47.25948" lon="4.93932">
        <ele>526</ele>
        <time>2012-03-25T09:17:39Z</time>
      </trkpt>
      <trkpt lat="47.25932" lon="4.9393">
        <ele>527</ele>
        <time>2012-03-25T09:17:48Z</time>
      </trkpt>
      <trkpt lat="47.25923" lon="4.93913">
        <ele>523</ele>
        <time>2012-03-25T09:17:58Z</time>
      </trkpt>
      <trkpt lat="47.25918" lon="4.93892">
        <ele>519</ele>
        <time>2012-03-25T09:18:08Z</time>
      </trkpt>
      <trkpt lat="47.25917" lon="4.93867">
        <ele>516</ele>
        <time>2012-03-25T09:18:18Z</time>
      </trkpt>
      <trkpt lat="47.25915" lon="4.9384">
        <ele>513</ele>
        <time>2012-03-25T09:18:26Z</time>
      </trkpt>
      <trkpt lat="47.25913" lon="4.93802">
        <ele>514</ele>
        <time>2012-03-25T09:18:36Z</time>
      </trkpt>
      <trkpt lat="47.25913" lon="4.93778">
        <ele>516</ele>
        <time>2012-03-25T09:18:42Z</time>
      </trkpt>
      <trkpt lat="47.25915" lon="4.93757">
        <ele>519</ele>
        <time>2012-03-25T09:18:48Z</time>
      </trkpt>
      <trkpt lat="47.25913" lon="4.93735">
        <ele>520</ele>
        <time>2012-03-25T09:18:55Z</time>
      </trkpt>
      <trkpt lat="47.25915" lon="4.93713">
        <ele>519</ele>
        <time>2012-03-25T09:19:01Z</time>
      </trkpt>
      <trkpt lat="47.25915" lon="4.93693">
        <ele>521</ele>
        <time>2012-03-25T09:19:09Z</time>
      </trkpt>
      <trkpt lat="47.25917" lon="4.93673">
        <ele>522</ele>
        <time>2012-03-25T09:19:15Z</time>
      </trkpt>
      <trkpt lat="47.25917" lon="4.9365">
        <ele>522</ele>
        <time>2012-03-25T09:19:23Z</time>
      </trkpt>
      <trkpt lat="47.25917" lon="4.93627">
        <ele>521</ele>
        <time>2012-03-25T09:19:31Z</time>
      </trkpt>
      <trkpt lat="47.25915" lon="4.93593">
        <ele>526</ele>
        <time>2012-03-25T09:19:41Z</time>
      </trkpt>
      <trkpt lat="47.25913" lon="4.93573">
        <ele>527</ele>
        <time>2012-03-25T09:19:45Z</time>
      </trkpt>
      <trkpt lat="47.25915" lon="4.9355">
        <ele>526</ele>
        <time>2012-03-25T09:19:51Z</time>
      </trkpt>
      <trkpt lat="47.25917" lon="4.93523">
        <ele>525</ele>
        <time>2012-03-25T09:19:57Z</time>
      </trkpt>
      <trkpt lat="47.25917" lon="4.93498">
        <ele>526</ele>
        <time>2012-03-25T09:20:04Z</time>
      </trkpt>
      <trkpt lat="47.25917" lon="4.93478">
        <ele>527</ele>
        <time>2012-03-25T09:20:08Z</time>
      </trkpt>
      <trkpt lat="47.25908" lon="4.93455">
        <ele>526</ele>
        <time>2012-03-25T09:20:14Z</time>
      </trkpt>
      <trkpt lat="47.25893" lon="4.93443">
        <ele>531</ele>
        <time>2012-03-25T09:20:22Z</time>
      </trkpt>
      <trkpt lat="47.25883" lon="4.93423">
        <ele>534</ele>
        <time>2012-03-25T09:20:28Z</time>
      </trkpt>
      <trkpt lat="47.25872" lon="4.93408">
        <ele>535</ele>
        <time>2012-03-25T09:20:36Z</time>
      </trkpt>
      <trkpt lat="47.25855" lon="4.93388">
        <ele>533</ele>
        <time>2012-03-25T09:20:44Z</time>
      </trkpt>
      <trkpt lat="47.25842" lon="4.93377">
        <ele>533</ele>
        <time>2012-03-25T09:20:48Z</time>
      </trkpt>
      <trkpt lat="47.2583" lon="4.93363">
        <ele>533</ele>
        <time>2012-03-25T09:20:54Z</time>
      </trkpt>
      <trkpt lat="47.25815" lon="4.93342">
        <ele>532</ele>
        <time>2012-03-25T09:21:02Z</time>
      </trkpt>
      <trkpt lat="47.25803" lon="4.93325">
        <ele>530</ele>
        <time>2012-03-25T09:21:08Z</time>
      </trkpt>
      <trkpt lat="47.2579" lon="4.93308">
        <ele>533</ele>
        <time>2012-03-25T09:21:17Z</time>
      </trkpt>
      <trkpt lat="47.25797" lon="4.93288">
        <ele>535</ele>
        <time>2012-03-25T09:21:23Z</time>
      </trkpt>
      <trkpt lat="47.25805" lon="4.93265">
        <ele>536</ele>
        <time>2012-03-25T09:21:29Z</time>
      </trkpt>
      <trkpt lat="47.25808" lon="4.93242">
        <ele>537</ele>
        <time>2012-03-25T09:21:35Z</time>
      </trkpt>
      <trkpt lat="47.25818" lon="4.93225">
        <ele>533</ele>
        <time>2012-03-25T09:21:41Z</time>
      </trkpt>
      <trkpt lat="47.25825" lon="4.93205">
        <ele>531</ele>
        <time>2012-03-25T09:21:47Z</time>
      </trkpt>
      <trkpt lat="47.25828" lon="4.93175">
        <ele>532</ele>
        <time>2012-03-25T09:21:57Z</time>
      </trkpt>
      <trkpt lat="47.25835" lon="4.93152">
        <ele>536</ele>
        <time>2012-03-25T09:22:03Z</time>
      </trkpt>
      <trkpt lat="47.25842" lon="4.93128">
        <ele>541</ele>
        <time>2012-03-25T09:22:11Z</time>
      </trkpt>
      <trkpt lat="47.25852" lon="4.93098">
        <ele>542</ele>
        <time>2012-03-25T09:22:21Z</time>
      </trkpt>
      <trkpt lat="47.25862" lon="4.93083">
        <ele>543</ele>
        <time>2012-03-25T09:22:28Z</time>
      </trkpt>
      <trkpt lat="47.25868" lon="4.93065">
        <ele>544</ele>
        <time>2012-03-25T09:22:32Z</time>
      </trkpt>
      <trkpt lat="47.25873" lon="4.93043">
        <ele>541</ele>
        <time>2012-03-25T09:22:38Z</time>
      </trkpt>
      <trkpt lat="47.2588" lon="4.93025">
        <ele>541</ele>
        <time>2012-03-25T09:22:44Z</time>
      </trkpt>
      <trkpt lat="47.25892" lon="4.93005">
        <ele>544</ele>
        <time>2012-03-25T09:22:52Z</time>
      </trkpt>
      <trkpt lat="47.259" lon="4.92983">
        <ele>546</ele>
        <time>2012-03-25T09:22:58Z</time>
      </trkpt>
      <trkpt lat="47.25907" lon="4.92958">
        <ele>544</ele>
        <time>2012-03-25T09:23:04Z</time>
      </trkpt>
      <trkpt lat="47.25907" lon="4.92928">
        <ele>541</ele>
        <time>2012-03-25T09:23:10Z</time>
      </trkpt>
      <trkpt lat="47.25908" lon="4.92908">
        <ele>540</ele>
        <time>2012-03-25T09:23:14Z</time>
      </trkpt>
      <trkpt lat="47.25912" lon="4.92885">
        <ele>539</ele>
        <time>2012-03-25T09:23:20Z</time>
      </trkpt>
      <trkpt lat="47.25913" lon="4.92857">
        <ele>533</ele>
        <time>2012-03-25T09:23:26Z</time>
      </trkpt>
      <trkpt lat="47.25905" lon="4.92832">
        <ele>533</ele>
        <time>2012-03-25T09:23:31Z</time>
      </trkpt>
      <trkpt lat="47.25897" lon="4.928">
        <ele>534</ele>
        <time>2012-03-25T09:23:35Z</time>
      </trkpt>
      <trkpt lat="47.25892" lon="4.92773">
        <ele>538</ele>
        <time>2012-03-25T09:23:39Z</time>
      </trkpt>
      <trkpt lat="47.25887" lon="4.92742">
        <ele>539</ele>
        <time>2012-03-25T09:23:43Z</time>
      </trkpt>
      <trkpt lat="47.25883" lon="4.92705">
        <ele>536</ele>
        <time>2012-03-25T09:23:47Z</time>
      </trkpt>
      <trkpt lat="47.25885" lon="4.92673">
        <ele>537</ele>
        <time>2012-03-25T09:23:51Z</time>
      </trkpt>
      <trkpt lat="47.25878" lon="4.92645">
        <ele>539</ele>
        <time>2012-03-25T09:23:55Z</time>
      </trkpt>
      <trkpt lat="47.25867" lon="4.92587">
        <ele>538</ele>
        <time>2012-03-25T09:24:03Z</time>
      </trkpt>
      <trkpt lat="47.25865" lon="4.92567">
        <ele>537</ele>
        <time>2012-03-25T09:24:07Z</time>
      </trkpt>
      <trkpt lat="47.25868" lon="4.92542">
        <ele>533</ele>
        <time>2012-03-25T09:24:11Z</time>
      </trkpt>
      <trkpt lat="47.25875" lon="4.92492">
        <ele>529</ele>
        <time>2012-03-25T09:24:17Z</time>
      </trkpt>
      <trkpt lat="47.25878" lon="4.9246">
        <ele>527</ele>
        <time>2012-03-25T09:24:21Z</time>
      </trkpt>
      <trkpt lat="47.2588" lon="4.92432">
        <ele>523</ele>
        <time>2012-03-25T09:24:25Z</time>
      </trkpt>
      <trkpt lat="47.2588" lon="4.92398">
        <ele>521</ele>
        <time>2012-03-25T09:24:29Z</time>
      </trkpt>
      <trkpt lat="47.25882" lon="4.92372">
        <ele>522</ele>
        <time>2012-03-25T09:24:34Z</time>
      </trkpt>
      <trkpt lat="47.25885" lon="4.92342">
        <ele>524</ele>
        <time>2012-03-25T09:24:38Z</time>
      </trkpt>
      <trkpt lat="47.25887" lon="4.92313">
        <ele>523</ele>
        <time>2012-03-25T09:24:42Z</time>
      </trkpt>
      <trkpt lat="47.25888" lon="4.92287">
        <ele>521</ele>
        <time>2012-03-25T09:24:46Z</time>
      </trkpt>
      <trkpt lat="47.2589" lon="4.92263">
        <ele>519</ele>
        <time>2012-03-25T09:24:50Z</time>
      </trkpt>
      <trkpt lat="47.25892" lon="4.9222">
        <ele>518</ele>
        <time>2012-03-25T09:24:56Z</time>
      </trkpt>
      <trkpt lat="47.25895" lon="4.92188">
        <ele>517</ele>
        <time>2012-03-25T09:25:00Z</time>
      </trkpt>
      <trkpt lat="47.25902" lon="4.9216">
        <ele>515</ele>
        <time>2012-03-25T09:25:04Z</time>
      </trkpt>
      <trkpt lat="47.259" lon="4.92135">
        <ele>514</ele>
        <time>2012-03-25T09:25:08Z</time>
      </trkpt>
      <trkpt lat="47.25898" lon="4.92115">
        <ele>515</ele>
        <time>2012-03-25T09:25:12Z</time>
      </trkpt>
      <trkpt lat="47.25882" lon="4.92107">
        <ele>524</ele>
        <time>2012-03-25T09:25:18Z</time>
      </trkpt>
      <trkpt lat="47.25865" lon="4.92098">
        <ele>532</ele>
        <time>2012-03-25T09:25:24Z</time>
      </trkpt>
      <trkpt lat="47.2585" lon="4.92085">
        <ele>537</ele>
        <time>2012-03-25T09:25:30Z</time>
      </trkpt>
      <trkpt lat="47.25837" lon="4.92063">
        <ele>541</ele>
        <time>2012-03-25T09:25:36Z</time>
      </trkpt>
      <trkpt lat="47.25825" lon="4.92043">
        <ele>542</ele>
        <time>2012-03-25T09:25:43Z</time>
      </trkpt>
      <trkpt lat="47.25813" lon="4.92033">
        <ele>540</ele>
        <time>2012-03-25T09:25:47Z</time>
      </trkpt>
      <trkpt lat="47.25798" lon="4.92025">
        <ele>537</ele>
        <time>2012-03-25T09:25:53Z</time>
      </trkpt>
      <trkpt lat="47.25785" lon="4.92022">
        <ele>535</ele>
        <time>2012-03-25T09:25:57Z</time>
      </trkpt>
      <trkpt lat="47.25768" lon="4.92003">
        <ele>533</ele>
        <time>2012-03-25T09:26:03Z</time>
      </trkpt>
      <trkpt lat="47.2575" lon="4.91992">
        <ele>533</ele>
        <time>2012-03-25T09:26:07Z</time>
      </trkpt>
      <trkpt lat="47.25733" lon="4.91977">
        <ele>535</ele>
        <time>2012-03-25T09:26:11Z</time>
      </trkpt>
      <trkpt lat="47.25717" lon="4.91958">
        <ele>536</ele>
        <time>2012-03-25T09:26:15Z</time>
      </trkpt>
      <trkpt lat="47.25695" lon="4.91947">
        <ele>536</ele>
        <time>2012-03-25T09:26:19Z</time>
      </trkpt>
      <trkpt lat="47.25682" lon="4.91942">
        <ele>535</ele>
        <time>2012-03-25T09:26:21Z</time>
      </trkpt>
      <trkpt lat="47.25665" lon="4.91937">
        <ele>536</ele>
        <time>2012-03-25T09:26:23Z</time>
      </trkpt>
      <trkpt lat="47.25643" lon="4.91913">
        <ele>536</ele>
        <time>2012-03-25T09:26:27Z</time>
      </trkpt>
      <trkpt lat="47.2565" lon="4.91882">
        <ele>534</ele>
        <time>2012-03-25T09:26:31Z</time>
      </trkpt>
      <trkpt lat="47.25655" lon="4.91858">
        <ele>534</ele>
        <time>2012-03-25T09:26:35Z</time>
      </trkpt>
      <trkpt lat="47.25665" lon="4.91837">
        <ele>528</ele>
        <time>2012-03-25T09:26:39Z</time>
      </trkpt>
      <trkpt lat="47.25683" lon="4.91797">
        <ele>523</ele>
        <time>2012-03-25T09:26:48Z</time>
      </trkpt>
      <trkpt lat="47.25675" lon="4.9178">
        <ele>523</ele>
        <time>2012-03-25T09:26:56Z</time>
      </trkpt>
      <trkpt lat="47.25668" lon="4.91758">
        <ele>520</ele>
        <time>2012-03-25T09:27:02Z</time>
      </trkpt>
      <trkpt lat="47.25657" lon="4.91742">
        <ele>521</ele>
        <time>2012-03-25T09:27:10Z</time>
      </trkpt>
      <trkpt lat="47.25647" lon="4.91722">
        <ele>523</ele>
        <time>2012-03-25T09:27:20Z</time>
      </trkpt>
      <trkpt lat="47.25637" lon="4.91698">
        <ele>523</ele>
        <time>2012-03-25T09:27:26Z</time>
      </trkpt>
      <trkpt lat="47.25628" lon="4.91678">
        <ele>522</ele>
        <time>2012-03-25T09:27:30Z</time>
      </trkpt>
      <trkpt lat="47.25618" lon="4.91658">
        <ele>521</ele>
        <time>2012-03-25T09:27:34Z</time>
      </trkpt>
      <trkpt lat="47.25613" lon="4.91637">
        <ele>521</ele>
        <time>2012-03-25T09:27:38Z</time>
      </trkpt>
      <trkpt lat="47.25605" lon="4.91608">
        <ele>518</ele>
        <time>2012-03-25T09:27:44Z</time>
      </trkpt>
      <trkpt lat="47.25595" lon="4.9158">
        <ele>514</ele>
        <time>2012-03-25T09:27:51Z</time>
      </trkpt>
      <trkpt lat="47.25587" lon="4.91562">
        <ele>515</ele>
        <time>2012-03-25T09:27:55Z</time>
      </trkpt>
      <trkpt lat="47.25583" lon="4.91537">
        <ele>518</ele>
        <time>2012-03-25T09:27:59Z</time>
      </trkpt>
      <trkpt lat="47.25578" lon="4.91513">
        <ele>520</ele>
        <time>2012-03-25T09:28:03Z</time>
      </trkpt>
      <trkpt lat="47.25567" lon="4.91487">
        <ele>521</ele>
        <time>2012-03-25T09:28:07Z</time>
      </trkpt>
      <trkpt lat="47.25552" lon="4.91467">
        <ele>520</ele>
        <time>2012-03-25T09:28:11Z</time>
      </trkpt>
      <trkpt lat="47.25527" lon="4.91433">
        <ele>514</ele>
        <time>2012-03-25T09:28:17Z</time>
      </trkpt>
      <trkpt lat="47.25513" lon="4.91417">
        <ele>505</ele>
        <time>2012-03-25T09:28:21Z</time>
      </trkpt>
      <trkpt lat="47.25498" lon="4.91407">
        <ele>499</ele>
        <time>2012-03-25T09:28:25Z</time>
      </trkpt>
      <trkpt lat="47.25485" lon="4.91397">
        <ele>498</ele>
        <time>2012-03-25T09:28:35Z</time>
      </trkpt>
      <trkpt lat="47.25483" lon="4.9137">
        <ele>501</ele>
        <time>2012-03-25T09:28:41Z</time>
      </trkpt>
      <trkpt lat="47.25487" lon="4.91338">
        <ele>501</ele>
        <time>2012-03-25T09:28:45Z</time>
      </trkpt>
      <trkpt lat="47.25493" lon="4.91302">
        <ele>500</ele>
        <time>2012-03-25T09:28:49Z</time>
      </trkpt>
      <trkpt lat="47.25493" lon="4.9128">
        <ele>502</ele>
        <time>2012-03-25T09:28:51Z</time>
      </trkpt>
      <trkpt lat="47.25493" lon="4.9126">
        <ele>505</ele>
        <time>2012-03-25T09:28:54Z</time>
      </trkpt>
      <trkpt lat="47.25498" lon="4.91233">
        <ele>508</ele>
        <time>2012-03-25T09:28:58Z</time>
      </trkpt>
      <trkpt lat="47.25503" lon="4.91212">
        <ele>510</ele>
        <time>2012-03-25T09:29:02Z</time>
      </trkpt>
      <trkpt lat="47.25508" lon="4.91187">
        <ele>511</ele>
        <time>2012-03-25T09:29:06Z</time>
      </trkpt>
      <trkpt lat="47.25518" lon="4.91143">
        <ele>510</ele>
        <time>2012-03-25T09:29:12Z</time>
      </trkpt>
      <trkpt lat="47.25532" lon="4.91095">
        <ele>509</ele>
        <time>2012-03-25T09:29:20Z</time>
      </trkpt>
      <trkpt lat="47.25542" lon="4.91065">
        <ele>510</ele>
        <time>2012-03-25T09:29:26Z</time>
      </trkpt>
      <trkpt lat="47.25552" lon="4.91028">
        <ele>512</ele>
        <time>2012-03-25T09:29:34Z</time>
      </trkpt>
      <trkpt lat="47.25563" lon="4.90982">
        <ele>513</ele>
        <time>2012-03-25T09:29:42Z</time>
      </trkpt>
      <trkpt lat="47.25568" lon="4.9096">
        <ele>513</ele>
        <time>2012-03-25T09:29:46Z</time>
      </trkpt>
      <trkpt lat="47.25572" lon="4.90937">
        <ele>514</ele>
        <time>2012-03-25T09:29:51Z</time>
      </trkpt>
      <trkpt lat="47.25577" lon="4.90913">
        <ele>516</ele>
        <time>2012-03-25T09:29:55Z</time>
      </trkpt>
      <trkpt lat="47.25582" lon="4.90878">
        <ele>518</ele>
        <time>2012-03-25T09:30:01Z</time>
      </trkpt>
      <trkpt lat="47.25587" lon="4.90858">
        <ele>518</ele>
        <time>2012-03-25T09:30:05Z</time>
      </trkpt>
      <trkpt lat="47.25598" lon="4.9084">
        <ele>518</ele>
        <time>2012-03-25T09:30:11Z</time>
      </trkpt>
      <trkpt lat="47.25605" lon="4.90818">
        <ele>508</ele>
        <time>2012-03-25T09:30:49Z</time>
      </trkpt>
      <trkpt lat="47.25593" lon="4.90828">
        <ele>510</ele>
        <time>2012-03-25T09:31:42Z</time>
      </trkpt>
      <trkpt lat="47.25598" lon="4.90853">
        <ele>524</ele>
        <time>2012-03-25T09:32:39Z</time>
      </trkpt>
      <trkpt lat="47.25598" lon="4.90832">
        <ele>508</ele>
        <time>2012-03-25T09:32:50Z</time>
      </trkpt>
      <trkpt lat="47.25587" lon="4.90818">
        <ele>511</ele>
        <time>2012-03-25T09:32:56Z</time>
      </trkpt>
      <trkpt lat="47.25573" lon="4.90808">
        <ele>513</ele>
        <time>2012-03-25T09:33:04Z</time>
      </trkpt>
      <trkpt lat="47.25562" lon="4.90793">
        <ele>512</ele>
        <time>2012-03-25T09:33:12Z</time>
      </trkpt>
      <trkpt lat="47.25547" lon="4.90782">
        <ele>513</ele>
        <time>2012-03-25T09:33:21Z</time>
      </trkpt>
      <trkpt lat="47.25532" lon="4.9076">
        <ele>516</ele>
        <time>2012-03-25T09:33:33Z</time>
      </trkpt>
      <trkpt lat="47.2552" lon="4.90743">
        <ele>516</ele>
        <time>2012-03-25T09:33:44Z</time>
      </trkpt>
      <trkpt lat="47.25528" lon="4.90722">
        <ele>516</ele>
        <time>2012-03-25T09:33:54Z</time>
      </trkpt>
      <trkpt lat="47.25537" lon="4.90705">
        <ele>517</ele>
        <time>2012-03-25T09:34:06Z</time>
      </trkpt>
      <trkpt lat="47.25547" lon="4.90685">
        <ele>517</ele>
        <time>2012-03-25T09:34:16Z</time>
      </trkpt>
      <trkpt lat="47.25553" lon="4.90667">
        <ele>521</ele>
        <time>2012-03-25T09:34:22Z</time>
      </trkpt>
      <trkpt lat="47.2556" lon="4.90648">
        <ele>525</ele>
        <time>2012-03-25T09:34:29Z</time>
      </trkpt>
      <trkpt lat="47.25562" lon="4.90627">
        <ele>524</ele>
        <time>2012-03-25T09:34:37Z</time>
      </trkpt>
      <trkpt lat="47.25587" lon="4.90587">
        <ele>511</ele>
        <time>2012-03-25T09:35:17Z</time>
      </trkpt>
      <trkpt lat="47.25583" lon="4.90565">
        <ele>523</ele>
        <time>2012-03-25T09:35:40Z</time>
      </trkpt>
      <trkpt lat="47.25575" lon="4.90547">
        <ele>543</ele>
        <time>2012-03-25T09:36:02Z</time>
      </trkpt>
      <trkpt lat="47.25573" lon="4.90518">
        <ele>551</ele>
        <time>2012-03-25T09:36:19Z</time>
      </trkpt>
      <trkpt lat="47.2558" lon="4.90495">
        <ele>548</ele>
        <time>2012-03-25T09:36:31Z</time>
      </trkpt>
      <trkpt lat="47.25585" lon="4.90467">
        <ele>554</ele>
        <time>2012-03-25T09:36:40Z</time>
      </trkpt>
      <trkpt lat="47.25592" lon="4.90443">
        <ele>559</ele>
        <time>2012-03-25T09:36:53Z</time>
      </trkpt>
      <trkpt lat="47.25607" lon="4.90398">
        <ele>559</ele>
        <time>2012-03-25T09:37:17Z</time>
      </trkpt>
      <trkpt lat="47.25622" lon="4.90398">
        <ele>574</ele>
        <time>2012-03-25T09:37:35Z</time>
      </trkpt>
      <trkpt lat="47.25635" lon="4.90395">
        <ele>571</ele>
        <time>2012-03-25T09:38:24Z</time>
      </trkpt>
      <trkpt lat="47.25645" lon="4.90378">
        <ele>573</ele>
        <time>2012-03-25T09:38:34Z</time>
      </trkpt>
      <trkpt lat="47.2566" lon="4.90372">
        <ele>575</ele>
        <time>2012-03-25T09:38:43Z</time>
      </trkpt>
      <trkpt lat="47.25677" lon="4.90375">
        <ele>574</ele>
        <time>2012-03-25T09:38:53Z</time>
      </trkpt>
      <trkpt lat="47.2569" lon="4.90378">
        <ele>575</ele>
        <time>2012-03-25T09:39:01Z</time>
      </trkpt>
      <trkpt lat="47.25705" lon="4.9038">
        <ele>579</ele>
        <time>2012-03-25T09:39:12Z</time>
      </trkpt>
      <trkpt lat="47.25722" lon="4.90375">
        <ele>582</ele>
        <time>2012-03-25T09:39:18Z</time>
      </trkpt>
      <trkpt lat="47.2574" lon="4.90362">
        <ele>586</ele>
        <time>2012-03-25T09:39:26Z</time>
      </trkpt>
      <trkpt lat="47.2576" lon="4.90367">
        <ele>583</ele>
        <time>2012-03-25T09:39:32Z</time>
      </trkpt>
      <trkpt lat="47.25782" lon="4.90375">
        <ele>583</ele>
        <time>2012-03-25T09:39:41Z</time>
      </trkpt>
      <trkpt lat="47.25795" lon="4.9037">
        <ele>585</ele>
        <time>2012-03-25T09:39:47Z</time>
      </trkpt>
      <trkpt lat="47.25817" lon="4.9036">
        <ele>577</ele>
        <time>2012-03-25T09:39:55Z</time>
      </trkpt>
      <trkpt lat="47.25833" lon="4.90352">
        <ele>578</ele>
        <time>2012-03-25T09:40:02Z</time>
      </trkpt>
      <trkpt lat="47.25852" lon="4.90353">
        <ele>573</ele>
        <time>2012-03-25T09:40:08Z</time>
      </trkpt>
      <trkpt lat="47.25867" lon="4.90355">
        <ele>569</ele>
        <time>2012-03-25T09:40:14Z</time>
      </trkpt>
      <trkpt lat="47.25883" lon="4.90352">
        <ele>577</ele>
        <time>2012-03-25T09:40:20Z</time>
      </trkpt>
      <trkpt lat="47.25898" lon="4.90358">
        <ele>581</ele>
        <time>2012-03-25T09:40:27Z</time>
      </trkpt>
      <trkpt lat="47.25912" lon="4.90363">
        <ele>581</ele>
        <time>2012-03-25T09:40:31Z</time>
      </trkpt>
      <trkpt lat="47.2593" lon="4.9036">
        <ele>580</ele>
        <time>2012-03-25T09:40:37Z</time>
      </trkpt>
      <trkpt lat="47.2595" lon="4.9036">
        <ele>576</ele>
        <time>2012-03-25T09:40:45Z</time>
      </trkpt>
      <trkpt lat="47.25965" lon="4.90358">
        <ele>575</ele>
        <time>2012-03-25T09:40:49Z</time>
      </trkpt>
      <trkpt lat="47.25982" lon="4.90355">
        <ele>574</ele>
        <time>2012-03-25T09:40:53Z</time>
      </trkpt>
      <trkpt lat="47.26" lon="4.90348">
        <ele>580</ele>
        <time>2012-03-25T09:40:59Z</time>
      </trkpt>
      <trkpt lat="47.26017" lon="4.90342">
        <ele>582</ele>
        <time>2012-03-25T09:41:06Z</time>
      </trkpt>
      <trkpt lat="47.26035" lon="4.90327">
        <ele>593</ele>
        <time>2012-03-25T09:41:14Z</time>
      </trkpt>
      <trkpt lat="47.26047" lon="4.90317">
        <ele>597</ele>
        <time>2012-03-25T09:41:18Z</time>
      </trkpt>
      <trkpt lat="47.2606" lon="4.90303">
        <ele>598</ele>
        <time>2012-03-25T09:41:22Z</time>
      </trkpt>
      <trkpt lat="47.26085" lon="4.9028">
        <ele>594</ele>
        <time>2012-03-25T09:41:28Z</time>
      </trkpt>
      <trkpt lat="47.26103" lon="4.90262">
        <ele>588</ele>
        <time>2012-03-25T09:41:32Z</time>
      </trkpt>
      <trkpt lat="47.2612" lon="4.90237">
        <ele>583</ele>
        <time>2012-03-25T09:41:36Z</time>
      </trkpt>
      <trkpt lat="47.26135" lon="4.90215">
        <ele>582</ele>
        <time>2012-03-25T09:41:40Z</time>
      </trkpt>
      <trkpt lat="47.2615" lon="4.90202">
        <ele>581</ele>
        <time>2012-03-25T09:41:42Z</time>
      </trkpt>
      <trkpt lat="47.2617" lon="4.90188">
        <ele>580</ele>
        <time>2012-03-25T09:41:46Z</time>
      </trkpt>
      <trkpt lat="47.26193" lon="4.90178">
        <ele>578</ele>
        <time>2012-03-25T09:41:50Z</time>
      </trkpt>
      <trkpt lat="47.26218" lon="4.90158">
        <ele>574</ele>
        <time>2012-03-25T09:41:55Z</time>
      </trkpt>
      <trkpt lat="47.26232" lon="4.90128">
        <ele>571</ele>
        <time>2012-03-25T09:41:59Z</time>
      </trkpt>
      <trkpt lat="47.2624" lon="4.90098">
        <ele>569</ele>
        <time>2012-03-25T09:42:03Z</time>
      </trkpt>
      <trkpt lat="47.26248" lon="4.90063">
        <ele>564</ele>
        <time>2012-03-25T09:42:07Z</time>
      </trkpt>
      <trkpt lat="47.26263" lon="4.90017">
        <ele>558</ele>
        <time>2012-03-25T09:42:13Z</time>
      </trkpt>
      <trkpt lat="47.26275" lon="4.89997">
        <ele>558</ele>
        <time>2012-03-25T09:42:17Z</time>
      </trkpt>
      <trkpt lat="47.26288" lon="4.89993">
        <ele>560</ele>
        <time>2012-03-25T09:42:52Z</time>
      </trkpt>
      <trkpt lat="47.26302" lon="4.89997">
        <ele>560</ele>
        <time>2012-03-25T09:42:58Z</time>
      </trkpt>
      <trkpt lat="47.26315" lon="4.90008">
        <ele>558</ele>
        <time>2012-03-25T09:43:04Z</time>
      </trkpt>
      <trkpt lat="47.26328" lon="4.90025">
        <ele>553</ele>
        <time>2012-03-25T09:43:10Z</time>
      </trkpt>
      <trkpt lat="47.26343" lon="4.90035">
        <ele>551</ele>
        <time>2012-03-25T09:43:14Z</time>
      </trkpt>
      <trkpt lat="47.26363" lon="4.90052">
        <ele>547</ele>
        <time>2012-03-25T09:43:20Z</time>
      </trkpt>
      <trkpt lat="47.26377" lon="4.90062">
        <ele>544</ele>
        <time>2012-03-25T09:43:24Z</time>
      </trkpt>
      <trkpt lat="47.26397" lon="4.90073">
        <ele>548</ele>
        <time>2012-03-25T09:43:28Z</time>
      </trkpt>
      <trkpt lat="47.26412" lon="4.90092">
        <ele>549</ele>
        <time>2012-03-25T09:43:34Z</time>
      </trkpt>
      <trkpt lat="47.26423" lon="4.90113">
        <ele>550</ele>
        <time>2012-03-25T09:43:43Z</time>
      </trkpt>
      <trkpt lat="47.26433" lon="4.90132">
        <ele>551</ele>
        <time>2012-03-25T09:43:49Z</time>
      </trkpt>
      <trkpt lat="47.26437" lon="4.90157">
        <ele>552</ele>
        <time>2012-03-25T09:43:53Z</time>
      </trkpt>
      <trkpt lat="47.26447" lon="4.90173">
        <ele>555</ele>
        <time>2012-03-25T09:43:57Z</time>
      </trkpt>
      <trkpt lat="47.26463" lon="4.90197">
        <ele>559</ele>
        <time>2012-03-25T09:44:01Z</time>
      </trkpt>
      <trkpt lat="47.26478" lon="4.9022">
        <ele>565</ele>
        <time>2012-03-25T09:44:05Z</time>
      </trkpt>
      <trkpt lat="47.26487" lon="4.9025">
        <ele>568</ele>
        <time>2012-03-25T09:44:09Z</time>
      </trkpt>
      <trkpt lat="47.26498" lon="4.90273">
        <ele>568</ele>
        <time>2012-03-25T09:44:13Z</time>
      </trkpt>
      <trkpt lat="47.26513" lon="4.90287">
        <ele>563</ele>
        <time>2012-03-25T09:44:17Z</time>
      </trkpt>
      <trkpt lat="47.26538" lon="4.90308">
        <ele>564</ele>
        <time>2012-03-25T09:44:24Z</time>
      </trkpt>
      <trkpt lat="47.26555" lon="4.90327">
        <ele>561</ele>
        <time>2012-03-25T09:44:28Z</time>
      </trkpt>
      <trkpt lat="47.2657" lon="4.90338">
        <ele>561</ele>
        <time>2012-03-25T09:44:32Z</time>
      </trkpt>
      <trkpt lat="47.2659" lon="4.90352">
        <ele>562</ele>
        <time>2012-03-25T09:44:36Z</time>
      </trkpt>
      <trkpt lat="47.26607" lon="4.90355">
        <ele>560</ele>
        <time>2012-03-25T09:44:40Z</time>
      </trkpt>
      <trkpt lat="47.26627" lon="4.90365">
        <ele>560</ele>
        <time>2012-03-25T09:44:44Z</time>
      </trkpt>
      <trkpt lat="47.26657" lon="4.9039">
        <ele>562</ele>
        <time>2012-03-25T09:44:50Z</time>
      </trkpt>
      <trkpt lat="47.26672" lon="4.90407">
        <ele>561</ele>
        <time>2012-03-25T09:44:52Z</time>
      </trkpt>
      <trkpt lat="47.26683" lon="4.9042">
        <ele>562</ele>
        <time>2012-03-25T09:44:54Z</time>
      </trkpt>
      <trkpt lat="47.26697" lon="4.90433">
        <ele>553</ele>
        <time>2012-03-25T09:45:01Z</time>
      </trkpt>
      <trkpt lat="47.26712" lon="4.90433">
        <ele>540</ele>
        <time>2012-03-25T09:45:10Z</time>
      </trkpt>
      <trkpt lat="47.26735" lon="4.90452">
        <ele>516</ele>
        <time>2012-03-25T09:45:29Z</time>
      </trkpt>
      <trkpt lat="47.26755" lon="4.90458">
        <ele>504</ele>
        <time>2012-03-25T09:45:35Z</time>
      </trkpt>
      <trkpt lat="47.26772" lon="4.90487">
        <ele>498</ele>
        <time>2012-03-25T09:45:42Z</time>
      </trkpt>
      <trkpt lat="47.26782" lon="4.905">
        <ele>499</ele>
        <time>2012-03-25T09:45:45Z</time>
      </trkpt>
      <trkpt lat="47.2679" lon="4.90523">
        <ele>500</ele>
        <time>2012-03-25T09:45:50Z</time>
      </trkpt>
      <trkpt lat="47.26805" lon="4.9055">
        <ele>492</ele>
        <time>2012-03-25T09:45:55Z</time>
      </trkpt>
      <trkpt lat="47.26815" lon="4.90573">
        <ele>478</ele>
        <time>2012-03-25T09:45:59Z</time>
      </trkpt>
      <trkpt lat="47.2683" lon="4.90595">
        <ele>459</ele>
        <time>2012-03-25T09:46:06Z</time>
      </trkpt>
      <trkpt lat="47.2685" lon="4.90598">
        <ele>451</ele>
        <time>2012-03-25T09:46:11Z</time>
      </trkpt>
      <trkpt lat="47.26872" lon="4.90593">
        <ele>442</ele>
        <time>2012-03-25T09:46:16Z</time>
      </trkpt>
      <trkpt lat="47.26905" lon="4.90582">
        <ele>432</ele>
        <time>2012-03-25T09:46:21Z</time>
      </trkpt>
      <trkpt lat="47.26925" lon="4.90575">
        <ele>431</ele>
        <time>2012-03-25T09:46:25Z</time>
      </trkpt>
      <trkpt lat="47.26942" lon="4.90563">
        <ele>424</ele>
        <time>2012-03-25T09:46:27Z</time>
      </trkpt>
      <trkpt lat="47.26963" lon="4.90547">
        <ele>416</ele>
        <time>2012-03-25T09:46:32Z</time>
      </trkpt>
      <trkpt lat="47.26987" lon="4.90535">
        <ele>404</ele>
        <time>2012-03-25T09:46:36Z</time>
      </trkpt>
      <trkpt lat="47.2702" lon="4.90537">
        <ele>391</ele>
        <time>2012-03-25T09:46:40Z</time>
      </trkpt>
      <trkpt lat="47.27057" lon="4.90552">
        <ele>382</ele>
        <time>2012-03-25T09:46:47Z</time>
      </trkpt>
      <trkpt lat="47.27068" lon="4.90562">
        <ele>380</ele>
        <time>2012-03-25T09:46:49Z</time>
      </trkpt>
      <trkpt lat="47.27092" lon="4.90578">
        <ele>375</ele>
        <time>2012-03-25T09:46:53Z</time>
      </trkpt>
      <trkpt lat="47.2711" lon="4.90595">
        <ele>374</ele>
        <time>2012-03-25T09:46:57Z</time>
      </trkpt>
      <trkpt lat="47.27132" lon="4.90607">
        <ele>373</ele>
        <time>2012-03-25T09:47:01Z</time>
      </trkpt>
      <trkpt lat="47.27152" lon="4.90623">
        <ele>368</ele>
        <time>2012-03-25T09:47:05Z</time>
      </trkpt>
      <trkpt lat="47.27187" lon="4.90662">
        <ele>357</ele>
        <time>2012-03-25T09:47:11Z</time>
      </trkpt>
      <trkpt lat="47.27202" lon="4.90678">
        <ele>355</ele>
        <time>2012-03-25T09:47:16Z</time>
      </trkpt>
      <trkpt lat="47.27217" lon="4.90695">
        <ele>359</ele>
        <time>2012-03-25T09:47:20Z</time>
      </trkpt>
      <trkpt lat="47.27237" lon="4.90708">
        <ele>359</ele>
        <time>2012-03-25T09:47:24Z</time>
      </trkpt>
      <trkpt lat="47.27253" lon="4.90722">
        <ele>356</ele>
        <time>2012-03-25T09:47:28Z</time>
      </trkpt>
      <trkpt lat="47.2727" lon="4.90732">
        <ele>352</ele>
        <time>2012-03-25T09:47:32Z</time>
      </trkpt>
      <trkpt lat="47.27287" lon="4.9075">
        <ele>349</ele>
        <time>2012-03-25T09:47:36Z</time>
      </trkpt>
      <trkpt lat="47.273" lon="4.90753">
        <ele>355</ele>
        <time>2012-03-25T09:47:41Z</time>
      </trkpt>
      <trkpt lat="47.27313" lon="4.90763">
        <ele>358</ele>
        <time>2012-03-25T09:47:45Z</time>
      </trkpt>
      <trkpt lat="47.27325" lon="4.9078">
        <ele>367</ele>
        <time>2012-03-25T09:47:51Z</time>
      </trkpt>
      <trkpt lat="47.27333" lon="4.90797">
        <ele>367</ele>
        <time>2012-03-25T09:47:55Z</time>
      </trkpt>
      <trkpt lat="47.2734" lon="4.90822">
        <ele>365</ele>
        <time>2012-03-25T09:47:59Z</time>
      </trkpt>
      <trkpt lat="47.27338" lon="4.90847">
        <ele>382</ele>
        <time>2012-03-25T09:48:09Z</time>
      </trkpt>
      <trkpt lat="47.2734" lon="4.90873">
        <ele>382</ele>
        <time>2012-03-25T09:48:15Z</time>
      </trkpt>
      <trkpt lat="47.27345" lon="4.90897">
        <ele>379</ele>
        <time>2012-03-25T09:48:24Z</time>
      </trkpt>
      <trkpt lat="47.27353" lon="4.90917">
        <ele>375</ele>
        <time>2012-03-25T09:48:30Z</time>
      </trkpt>
      <trkpt lat="47.2736" lon="4.9094">
        <ele>380</ele>
        <time>2012-03-25T09:48:38Z</time>
      </trkpt>
      <trkpt lat="47.27357" lon="4.9096">
        <ele>379</ele>
        <time>2012-03-25T09:48:42Z</time>
      </trkpt>
      <trkpt lat="47.2735" lon="4.90978">
        <ele>399</ele>
        <time>2012-03-25T09:48:51Z</time>
      </trkpt>
      <trkpt lat="47.2735" lon="4.91005">
        <ele>394</ele>
        <time>2012-03-25T09:49:01Z</time>
      </trkpt>
      <trkpt lat="47.27348" lon="4.91025">
        <ele>398</ele>
        <time>2012-03-25T09:49:07Z</time>
      </trkpt>
      <trkpt lat="47.27352" lon="4.91045">
        <ele>388</ele>
        <time>2012-03-25T09:49:16Z</time>
      </trkpt>
      <trkpt lat="47.27365" lon="4.91053">
        <ele>373</ele>
        <time>2012-03-25T09:49:26Z</time>
      </trkpt>
      <trkpt lat="47.27365" lon="4.91075">
        <ele>375</ele>
        <time>2012-03-25T09:49:32Z</time>
      </trkpt>
      <trkpt lat="47.27375" lon="4.9109">
        <ele>366</ele>
        <time>2012-03-25T09:49:38Z</time>
      </trkpt>
      <trkpt lat="47.27382" lon="4.91113">
        <ele>362</ele>
        <time>2012-03-25T09:49:48Z</time>
      </trkpt>
      <trkpt lat="47.27387" lon="4.91133">
        <ele>365</ele>
        <time>2012-03-25T09:49:54Z</time>
      </trkpt>
      <trkpt lat="47.27395" lon="4.91158">
        <ele>365</ele>
        <time>2012-03-25T09:50:00Z</time>
      </trkpt>
      <trkpt lat="47.27392" lon="4.91187">
        <ele>380</ele>
        <time>2012-03-25T09:50:11Z</time>
      </trkpt>
      <trkpt lat="47.27392" lon="4.91207">
        <ele>385</ele>
        <time>2012-03-25T09:50:17Z</time>
      </trkpt>
      <trkpt lat="47.27387" lon="4.9123">
        <ele>398</ele>
        <time>2012-03-25T09:50:25Z</time>
      </trkpt>
      <trkpt lat="47.27385" lon="4.91253">
        <ele>416</ele>
        <time>2012-03-25T09:50:33Z</time>
      </trkpt>
      <trkpt lat="47.27392" lon="4.91273">
        <ele>416</ele>
        <time>2012-03-25T09:50:43Z</time>
      </trkpt>
      <trkpt lat="47.27402" lon="4.91293">
        <ele>405</ele>
        <time>2012-03-25T09:50:56Z</time>
      </trkpt>
      <trkpt lat="47.27407" lon="4.91317">
        <ele>404</ele>
        <time>2012-03-25T09:51:04Z</time>
      </trkpt>
      <trkpt lat="47.27412" lon="4.91347">
        <ele>407</ele>
        <time>2012-03-25T09:51:12Z</time>
      </trkpt>
      <trkpt lat="47.27412" lon="4.91368">
        <ele>415</ele>
        <time>2012-03-25T09:51:18Z</time>
      </trkpt>
      <trkpt lat="47.27418" lon="4.91388">
        <ele>407</ele>
        <time>2012-03-25T09:51:26Z</time>
      </trkpt>
      <trkpt lat="47.27417" lon="4.91412">
        <ele>418</ele>
        <time>2012-03-25T09:51:32Z</time>
      </trkpt>
      <trkpt lat="47.2742" lon="4.91433">
        <ele>414</ele>
        <time>2012-03-25T09:51:40Z</time>
      </trkpt>
      <trkpt lat="47.27423" lon="4.91455">
        <ele>413</ele>
        <time>2012-03-25T09:51:57Z</time>
      </trkpt>
      <trkpt lat="47.27433" lon="4.91472">
        <ele>416</ele>
        <time>2012-03-25T09:52:07Z</time>
      </trkpt>
      <trkpt lat="47.27447" lon="4.91495">
        <ele>420</ele>
        <time>2012-03-25T09:52:19Z</time>
      </trkpt>
      <trkpt lat="47.27455" lon="4.91512">
        <ele>421</ele>
        <time>2012-03-25T09:52:27Z</time>
      </trkpt>
      <trkpt lat="47.27462" lon="4.91537">
        <ele>421</ele>
        <time>2012-03-25T09:52:35Z</time>
      </trkpt>
      <trkpt lat="47.2747" lon="4.91553">
        <ele>420</ele>
        <time>2012-03-25T09:52:44Z</time>
      </trkpt>
      <trkpt lat="47.27473" lon="4.91573">
        <ele>425</ele>
        <time>2012-03-25T09:52:54Z</time>
      </trkpt>
      <trkpt lat="47.27483" lon="4.91598">
        <ele>429</ele>
        <time>2012-03-25T09:53:06Z</time>
      </trkpt>
      <trkpt lat="47.27487" lon="4.9162">
        <ele>427</ele>
        <time>2012-03-25T09:53:14Z</time>
      </trkpt>
      <trkpt lat="47.2749" lon="4.9164">
        <ele>417</ele>
        <time>2012-03-25T09:53:22Z</time>
      </trkpt>
      <trkpt lat="47.27497" lon="4.91662">
        <ele>422</ele>
        <time>2012-03-25T09:53:35Z</time>
      </trkpt>
      <trkpt lat="47.27493" lon="4.91632">
        <ele>428</ele>
        <time>2012-03-25T09:53:53Z</time>
      </trkpt>
      <trkpt lat="47.27497" lon="4.91612">
        <ele>429</ele>
        <time>2012-03-25T09:54:01Z</time>
      </trkpt>
      <trkpt lat="47.27507" lon="4.91593">
        <ele>433</ele>
        <time>2012-03-25T09:54:11Z</time>
      </trkpt>
      <trkpt lat="47.27522" lon="4.9159">
        <ele>443</ele>
        <time>2012-03-25T09:54:24Z</time>
      </trkpt>
      <trkpt lat="47.27537" lon="4.91595">
        <ele>444</ele>
        <time>2012-03-25T09:54:32Z</time>
      </trkpt>
      <trkpt lat="47.27553" lon="4.916">
        <ele>442</ele>
        <time>2012-03-25T09:54:40Z</time>
      </trkpt>
      <trkpt lat="47.27575" lon="4.91607">
        <ele>451</ele>
        <time>2012-03-25T09:54:58Z</time>
      </trkpt>
      <trkpt lat="47.27592" lon="4.91615">
        <ele>452</ele>
        <time>2012-03-25T09:55:09Z</time>
      </trkpt>
      <trkpt lat="47.27607" lon="4.91625">
        <ele>458</ele>
        <time>2012-03-25T09:55:21Z</time>
      </trkpt>
      <trkpt lat="47.2762" lon="4.9163">
        <ele>461</ele>
        <time>2012-03-25T09:56:00Z</time>
      </trkpt>
      <trkpt lat="47.27633" lon="4.91638">
        <ele>463</ele>
        <time>2012-03-25T09:56:21Z</time>
      </trkpt>
      <trkpt lat="47.2765" lon="4.9165">
        <ele>451</ele>
        <time>2012-03-25T09:56:41Z</time>
      </trkpt>
      <trkpt lat="47.27663" lon="4.91663">
        <ele>465</ele>
        <time>2012-03-25T09:56:59Z</time>
      </trkpt>
      <trkpt lat="47.27663" lon="4.91683">
        <ele>463</ele>
        <time>2012-03-25T09:57:22Z</time>
      </trkpt>
      <trkpt lat="47.2766" lon="4.91703">
        <ele>459</ele>
        <time>2012-03-25T09:57:30Z</time>
      </trkpt>
      <trkpt lat="47.27653" lon="4.91725">
        <ele>461</ele>
        <time>2012-03-25T09:57:38Z</time>
      </trkpt>
      <trkpt lat="47.27647" lon="4.91743">
        <ele>461</ele>
        <time>2012-03-25T09:57:46Z</time>
      </trkpt>
      <trkpt lat="47.27643" lon="4.91767">
        <ele>465</ele>
        <time>2012-03-25T09:57:55Z</time>
      </trkpt>
      <trkpt lat="47.27648" lon="4.91787">
        <ele>461</ele>
        <time>2012-03-25T09:58:03Z</time>
      </trkpt>
      <trkpt lat="47.27658" lon="4.91803">
        <ele>464</ele>
        <time>2012-03-25T09:58:11Z</time>
      </trkpt>
      <trkpt lat="47.2767" lon="4.91817">
        <ele>471</ele>
        <time>2012-03-25T09:58:17Z</time>
      </trkpt>
      <trkpt lat="47.2768" lon="4.91837">
        <ele>475</ele>
        <time>2012-03-25T09:58:25Z</time>
      </trkpt>
      <trkpt lat="47.27693" lon="4.91857">
        <ele>474</ele>
        <time>2012-03-25T09:58:31Z</time>
      </trkpt>
      <trkpt lat="47.27705" lon="4.91875">
        <ele>468</ele>
        <time>2012-03-25T09:58:39Z</time>
      </trkpt>
      <trkpt lat="47.27717" lon="4.91888">
        <ele>464</ele>
        <time>2012-03-25T09:58:45Z</time>
      </trkpt>
      <trkpt lat="47.27728" lon="4.91908">
        <ele>464</ele>
        <time>2012-03-25T09:58:54Z</time>
      </trkpt>
      <trkpt lat="47.27742" lon="4.91927">
        <ele>468</ele>
        <time>2012-03-25T09:59:02Z</time>
      </trkpt>
      <trkpt lat="47.27752" lon="4.9194">
        <ele>471</ele>
        <time>2012-03-25T09:59:08Z</time>
      </trkpt>
      <trkpt lat="47.27765" lon="4.91947">
        <ele>473</ele>
        <time>2012-03-25T09:59:14Z</time>
      </trkpt>
      <trkpt lat="47.27777" lon="4.91958">
        <ele>472</ele>
        <time>2012-03-25T09:59:22Z</time>
      </trkpt>
      <trkpt lat="47.2779" lon="4.91948">
        <ele>469</ele>
        <time>2012-03-25T09:59:28Z</time>
      </trkpt>
      <trkpt lat="47.278" lon="4.9193">
        <ele>469</ele>
        <time>2012-03-25T09:59:34Z</time>
      </trkpt>
      <trkpt lat="47.27812" lon="4.91908">
        <ele>469</ele>
        <time>2012-03-25T09:59:44Z</time>
      </trkpt>
      <trkpt lat="47.27822" lon="4.91888">
        <ele>474</ele>
        <time>2012-03-25T09:59:55Z</time>
      </trkpt>
      <trkpt lat="47.27828" lon="4.91863">
        <ele>484</ele>
        <time>2012-03-25T10:00:07Z</time>
      </trkpt>
      <trkpt lat="47.27838" lon="4.91843">
        <ele>489</ele>
        <time>2012-03-25T10:00:17Z</time>
      </trkpt>
      <trkpt lat="47.27847" lon="4.91823">
        <ele>491</ele>
        <time>2012-03-25T10:00:25Z</time>
      </trkpt>
      <trkpt lat="47.27853" lon="4.918">
        <ele>490</ele>
        <time>2012-03-25T10:00:35Z</time>
      </trkpt>
      <trkpt lat="47.27857" lon="4.91778">
        <ele>484</ele>
        <time>2012-03-25T10:00:45Z</time>
      </trkpt>
      <trkpt lat="47.27858" lon="4.91755">
        <ele>477</ele>
        <time>2012-03-25T10:00:55Z</time>
      </trkpt>
      <trkpt lat="47.2786" lon="4.91725">
        <ele>479</ele>
        <time>2012-03-25T10:01:08Z</time>
      </trkpt>
      <trkpt lat="47.27863" lon="4.91705">
        <ele>484</ele>
        <time>2012-03-25T10:01:14Z</time>
      </trkpt>
      <trkpt lat="47.27868" lon="4.91678">
        <ele>484</ele>
        <time>2012-03-25T10:01:22Z</time>
      </trkpt>
      <trkpt lat="47.27878" lon="4.91663">
        <ele>489</ele>
        <time>2012-03-25T10:01:28Z</time>
      </trkpt>
      <trkpt lat="47.27895" lon="4.91655">
        <ele>492</ele>
        <time>2012-03-25T10:01:36Z</time>
      </trkpt>
      <trkpt lat="47.27908" lon="4.91658">
        <ele>492</ele>
        <time>2012-03-25T10:01:42Z</time>
      </trkpt>
      <trkpt lat="47.27925" lon="4.91653">
        <ele>493</ele>
        <time>2012-03-25T10:01:50Z</time>
      </trkpt>
      <trkpt lat="47.27938" lon="4.91645">
        <ele>497</ele>
        <time>2012-03-25T10:01:56Z</time>
      </trkpt>
      <trkpt lat="47.27953" lon="4.91637">
        <ele>501</ele>
        <time>2012-03-25T10:02:04Z</time>
      </trkpt>
      <trkpt lat="47.2797" lon="4.91638">
        <ele>497</ele>
        <time>2012-03-25T10:02:13Z</time>
      </trkpt>
      <trkpt lat="47.27983" lon="4.91648">
        <ele>494</ele>
        <time>2012-03-25T10:02:21Z</time>
      </trkpt>
      <trkpt lat="47.27995" lon="4.91662">
        <ele>500</ele>
        <time>2012-03-25T10:02:31Z</time>
      </trkpt>
      <trkpt lat="47.28005" lon="4.91675">
        <ele>504</ele>
        <time>2012-03-25T10:02:39Z</time>
      </trkpt>
      <trkpt lat="47.28017" lon="4.91688">
        <ele>499</ele>
        <time>2012-03-25T10:02:45Z</time>
      </trkpt>
      <trkpt lat="47.28018" lon="4.91715">
        <ele>502</ele>
        <time>2012-03-25T10:02:56Z</time>
      </trkpt>
      <trkpt lat="47.28002" lon="4.91727">
        <ele>504</ele>
        <time>2012-03-25T10:03:04Z</time>
      </trkpt>
      <trkpt lat="47.27987" lon="4.91737">
        <ele>513</ele>
        <time>2012-03-25T10:03:12Z</time>
      </trkpt>
      <trkpt lat="47.27975" lon="4.91753">
        <ele>513</ele>
        <time>2012-03-25T10:03:22Z</time>
      </trkpt>
      <trkpt lat="47.2797" lon="4.91773">
        <ele>512</ele>
        <time>2012-03-25T10:03:30Z</time>
      </trkpt>
      <trkpt lat="47.27963" lon="4.91798">
        <ele>513</ele>
        <time>2012-03-25T10:03:36Z</time>
      </trkpt>
      <trkpt lat="47.27957" lon="4.9182">
        <ele>511</ele>
        <time>2012-03-25T10:03:40Z</time>
      </trkpt>
      <trkpt lat="47.2795" lon="4.91842">
        <ele>510</ele>
        <time>2012-03-25T10:03:44Z</time>
      </trkpt>
      <trkpt lat="47.27947" lon="4.91865">
        <ele>511</ele>
        <time>2012-03-25T10:03:48Z</time>
      </trkpt>
      <trkpt lat="47.27945" lon="4.91895">
        <ele>515</ele>
        <time>2012-03-25T10:03:52Z</time>
      </trkpt>
      <trkpt lat="47.27943" lon="4.91915">
        <ele>518</ele>
        <time>2012-03-25T10:03:56Z</time>
      </trkpt>
      <trkpt lat="47.27943" lon="4.9194">
        <ele>519</ele>
        <time>2012-03-25T10:04:02Z</time>
      </trkpt>
      <trkpt lat="47.27947" lon="4.91963">
        <ele>528</ele>
        <time>2012-03-25T10:04:10Z</time>
      </trkpt>
      <trkpt lat="47.27952" lon="4.91988">
        <ele>528</ele>
        <time>2012-03-25T10:04:19Z</time>
      </trkpt>
      <trkpt lat="47.2796" lon="4.92017">
        <ele>530</ele>
        <time>2012-03-25T10:04:25Z</time>
      </trkpt>
      <trkpt lat="47.27968" lon="4.92038">
        <ele>535</ele>
        <time>2012-03-25T10:04:29Z</time>
      </trkpt>
      <trkpt lat="47.27977" lon="4.92058">
        <ele>533</ele>
        <time>2012-03-25T10:04:33Z</time>
      </trkpt>
      <trkpt lat="47.27988" lon="4.92073">
        <ele>532</ele>
        <time>2012-03-25T10:04:37Z</time>
      </trkpt>
      <trkpt lat="47.28002" lon="4.92092">
        <ele>536</ele>
        <time>2012-03-25T10:04:43Z</time>
      </trkpt>
      <trkpt lat="47.28015" lon="4.92107">
        <ele>532</ele>
        <time>2012-03-25T10:04:49Z</time>
      </trkpt>
      <trkpt lat="47.28028" lon="4.92122">
        <ele>528</ele>
        <time>2012-03-25T10:04:55Z</time>
      </trkpt>
      <trkpt lat="47.28042" lon="4.92135">
        <ele>527</ele>
        <time>2012-03-25T10:05:03Z</time>
      </trkpt>
      <trkpt lat="47.28052" lon="4.92148">
        <ele>523</ele>
        <time>2012-03-25T10:05:10Z</time>
      </trkpt>
      <trkpt lat="47.28062" lon="4.92162">
        <ele>516</ele>
        <time>2012-03-25T10:05:16Z</time>
      </trkpt>
      <trkpt lat="47.28075" lon="4.92177">
        <ele>514</ele>
        <time>2012-03-25T10:05:26Z</time>
      </trkpt>
      <trkpt lat="47.28087" lon="4.92188">
        <ele>517</ele>
        <time>2012-03-25T10:05:34Z</time>
      </trkpt>
      <trkpt lat="47.28097" lon="4.92203">
        <ele>518</ele>
        <time>2012-03-25T10:05:42Z</time>
      </trkpt>
      <trkpt lat="47.2811" lon="4.92215">
        <ele>515</ele>
        <time>2012-03-25T10:05:50Z</time>
      </trkpt>
      <trkpt lat="47.28122" lon="4.92228">
        <ele>519</ele>
        <time>2012-03-25T10:05:59Z</time>
      </trkpt>
      <trkpt lat="47.28137" lon="4.92235">
        <ele>527</ele>
        <time>2012-03-25T10:06:11Z</time>
      </trkpt>
      <trkpt lat="47.28148" lon="4.92255">
        <ele>526</ele>
        <time>2012-03-25T10:06:19Z</time>
      </trkpt>
      <trkpt lat="47.28165" lon="4.92272">
        <ele>529</ele>
        <time>2012-03-25T10:06:27Z</time>
      </trkpt>
      <trkpt lat="47.28185" lon="4.92292">
        <ele>529</ele>
        <time>2012-03-25T10:06:39Z</time>
      </trkpt>
      <trkpt lat="47.28198" lon="4.92307">
        <ele>535</ele>
        <time>2012-03-25T10:06:50Z</time>
      </trkpt>
      <trkpt lat="47.28212" lon="4.92325">
        <ele>542</ele>
        <time>2012-03-25T10:07:00Z</time>
      </trkpt>
      <trkpt lat="47.28222" lon="4.9234">
        <ele>546</ele>
        <time>2012-03-25T10:07:08Z</time>
      </trkpt>
      <trkpt lat="47.28233" lon="4.92358">
        <ele>541</ele>
        <time>2012-03-25T10:07:18Z</time>
      </trkpt>
      <trkpt lat="47.28245" lon="4.92368">
        <ele>540</ele>
        <time>2012-03-25T10:07:26Z</time>
      </trkpt>
      <trkpt lat="47.28257" lon="4.92383">
        <ele>539</ele>
        <time>2012-03-25T10:07:32Z</time>
      </trkpt>
      <trkpt lat="47.28267" lon="4.924">
        <ele>548</ele>
        <time>2012-03-25T10:07:40Z</time>
      </trkpt>
      <trkpt lat="47.28278" lon="4.92417">
        <ele>545</ele>
        <time>2012-03-25T10:07:48Z</time>
      </trkpt>
      <trkpt lat="47.2829" lon="4.92433">
        <ele>542</ele>
        <time>2012-03-25T10:07:57Z</time>
      </trkpt>
      <trkpt lat="47.28303" lon="4.92447">
        <ele>548</ele>
        <time>2012-03-25T10:08:07Z</time>
      </trkpt>
      <trkpt lat="47.28315" lon="4.92458">
        <ele>548</ele>
        <time>2012-03-25T10:08:15Z</time>
      </trkpt>
      <trkpt lat="47.28325" lon="4.92473">
        <ele>553</ele>
        <time>2012-03-25T10:08:23Z</time>
      </trkpt>
      <trkpt lat="47.28338" lon="4.92487">
        <ele>545</ele>
        <time>2012-03-25T10:08:31Z</time>
      </trkpt>
      <trkpt lat="47.2835" lon="4.92502">
        <ele>548</ele>
        <time>2012-03-25T10:08:42Z</time>
      </trkpt>
      <trkpt lat="47.28362" lon="4.92515">
        <ele>549</ele>
        <time>2012-03-25T10:08:48Z</time>
      </trkpt>
      <trkpt lat="47.28375" lon="4.9253">
        <ele>551</ele>
        <time>2012-03-25T10:08:56Z</time>
      </trkpt>
      <trkpt lat="47.28392" lon="4.92547">
        <ele>560</ele>
        <time>2012-03-25T10:09:06Z</time>
      </trkpt>
      <trkpt lat="47.28407" lon="4.92558">
        <ele>563</ele>
        <time>2012-03-25T10:09:16Z</time>
      </trkpt>
      <trkpt lat="47.28418" lon="4.9257">
        <ele>561</ele>
        <time>2012-03-25T10:09:26Z</time>
      </trkpt>
      <trkpt lat="47.2843" lon="4.92583">
        <ele>561</ele>
        <time>2012-03-25T10:09:32Z</time>
      </trkpt>
      <trkpt lat="47.28442" lon="4.92595">
        <ele>560</ele>
        <time>2012-03-25T10:09:42Z</time>
      </trkpt>
      <trkpt lat="47.28457" lon="4.92608">
        <ele>564</ele>
        <time>2012-03-25T10:09:53Z</time>
      </trkpt>
      <trkpt lat="47.28465" lon="4.9263">
        <ele>565</ele>
        <time>2012-03-25T10:10:01Z</time>
      </trkpt>
      <trkpt lat="47.28468" lon="4.92655">
        <ele>563</ele>
        <time>2012-03-25T10:10:07Z</time>
      </trkpt>
      <trkpt lat="47.28463" lon="4.92678">
        <ele>568</ele>
        <time>2012-03-25T10:10:13Z</time>
      </trkpt>
      <trkpt lat="47.28447" lon="4.92683">
        <ele>568</ele>
        <time>2012-03-25T10:10:17Z</time>
      </trkpt>
      <trkpt lat="47.28428" lon="4.92695">
        <ele>568</ele>
        <time>2012-03-25T10:10:21Z</time>
      </trkpt>
      <trkpt lat="47.28412" lon="4.92713">
        <ele>564</ele>
        <time>2012-03-25T10:10:26Z</time>
      </trkpt>
      <trkpt lat="47.28387" lon="4.92742">
        <ele>560</ele>
        <time>2012-03-25T10:10:32Z</time>
      </trkpt>
      <trkpt lat="47.28372" lon="4.9276">
        <ele>560</ele>
        <time>2012-03-25T10:10:36Z</time>
      </trkpt>
      <trkpt lat="47.28368" lon="4.92783">
        <ele>561</ele>
        <time>2012-03-25T10:10:40Z</time>
      </trkpt>
      <trkpt lat="47.28358" lon="4.92818">
        <ele>559</ele>
        <time>2012-03-25T10:10:46Z</time>
      </trkpt>
      <trkpt lat="47.2835" lon="4.92845">
        <ele>561</ele>
        <time>2012-03-25T10:10:52Z</time>
      </trkpt>
      <trkpt lat="47.28343" lon="4.92867">
        <ele>559</ele>
        <time>2012-03-25T10:10:56Z</time>
      </trkpt>
      <trkpt lat="47.28322" lon="4.92888">
        <ele>559</ele>
        <time>2012-03-25T10:11:02Z</time>
      </trkpt>
      <trkpt lat="47.28302" lon="4.92878">
        <ele>565</ele>
        <time>2012-03-25T10:11:06Z</time>
      </trkpt>
      <trkpt lat="47.28295" lon="4.92858">
        <ele>568</ele>
        <time>2012-03-25T10:11:10Z</time>
      </trkpt>
      <trkpt lat="47.28282" lon="4.9282">
        <ele>562</ele>
        <time>2012-03-25T10:11:17Z</time>
      </trkpt>
      <trkpt lat="47.28262" lon="4.92813">
        <ele>561</ele>
        <time>2012-03-25T10:11:21Z</time>
      </trkpt>
      <trkpt lat="47.28243" lon="4.92813">
        <ele>561</ele>
        <time>2012-03-25T10:11:25Z</time>
      </trkpt>
      <trkpt lat="47.28227" lon="4.9282">
        <ele>560</ele>
        <time>2012-03-25T10:11:29Z</time>
      </trkpt>
      <trkpt lat="47.28198" lon="4.92828">
        <ele>566</ele>
        <time>2012-03-25T10:11:35Z</time>
      </trkpt>
      <trkpt lat="47.28187" lon="4.9284">
        <ele>564</ele>
        <time>2012-03-25T10:11:39Z</time>
      </trkpt>
      <trkpt lat="47.28173" lon="4.92852">
        <ele>562</ele>
        <time>2012-03-25T10:11:43Z</time>
      </trkpt>
      <trkpt lat="47.28157" lon="4.9286">
        <ele>565</ele>
        <time>2012-03-25T10:11:47Z</time>
      </trkpt>
      <trkpt lat="47.28135" lon="4.92868">
        <ele>565</ele>
        <time>2012-03-25T10:11:51Z</time>
      </trkpt>
      <trkpt lat="47.28118" lon="4.92867">
        <ele>558</ele>
        <time>2012-03-25T10:11:57Z</time>
      </trkpt>
      <trkpt lat="47.28105" lon="4.92863">
        <ele>569</ele>
        <time>2012-03-25T10:12:01Z</time>
      </trkpt>
      <trkpt lat="47.28088" lon="4.92862">
        <ele>573</ele>
        <time>2012-03-25T10:12:07Z</time>
      </trkpt>
      <trkpt lat="47.28048" lon="4.9286">
        <ele>573</ele>
        <time>2012-03-25T10:12:18Z</time>
      </trkpt>
      <trkpt lat="47.2803" lon="4.9286">
        <ele>575</ele>
        <time>2012-03-25T10:12:22Z</time>
      </trkpt>
      <trkpt lat="47.28012" lon="4.92858">
        <ele>582</ele>
        <time>2012-03-25T10:12:26Z</time>
      </trkpt>
      <trkpt lat="47.27985" lon="4.92855">
        <ele>578</ele>
        <time>2012-03-25T10:12:32Z</time>
      </trkpt>
      <trkpt lat="47.2796" lon="4.9285">
        <ele>579</ele>
        <time>2012-03-25T10:12:36Z</time>
      </trkpt>
      <trkpt lat="47.27943" lon="4.92845">
        <ele>581</ele>
        <time>2012-03-25T10:12:40Z</time>
      </trkpt>
      <trkpt lat="47.27927" lon="4.92845">
        <ele>581</ele>
        <time>2012-03-25T10:12:44Z</time>
      </trkpt>
      <trkpt lat="47.27913" lon="4.92855">
        <ele>581</ele>
        <time>2012-03-25T10:12:48Z</time>
      </trkpt>
      <trkpt lat="47.27907" lon="4.9288">
        <ele>581</ele>
        <time>2012-03-25T10:12:52Z</time>
      </trkpt>
      <trkpt lat="47.2792" lon="4.92907">
        <ele>580</ele>
        <time>2012-03-25T10:12:56Z</time>
      </trkpt>
      <trkpt lat="47.27943" lon="4.9294">
        <ele>576</ele>
        <time>2012-03-25T10:13:03Z</time>
      </trkpt>
      <trkpt lat="47.27955" lon="4.92958">
        <ele>579</ele>
        <time>2012-03-25T10:13:07Z</time>
      </trkpt>
      <trkpt lat="47.27967" lon="4.92978">
        <ele>581</ele>
        <time>2012-03-25T10:13:11Z</time>
      </trkpt>
      <trkpt lat="47.27975" lon="4.93002">
        <ele>579</ele>
        <time>2012-03-25T10:13:15Z</time>
      </trkpt>
      <trkpt lat="47.27987" lon="4.93025">
        <ele>573</ele>
        <time>2012-03-25T10:13:19Z</time>
      </trkpt>
      <trkpt lat="47.28003" lon="4.93057">
        <ele>569</ele>
        <time>2012-03-25T10:13:25Z</time>
      </trkpt>
      <trkpt lat="47.28023" lon="4.9308">
        <ele>568</ele>
        <time>2012-03-25T10:13:29Z</time>
      </trkpt>
      <trkpt lat="47.28038" lon="4.93102">
        <ele>566</ele>
        <time>2012-03-25T10:13:33Z</time>
      </trkpt>
      <trkpt lat="47.28067" lon="4.93137">
        <ele>560</ele>
        <time>2012-03-25T10:13:39Z</time>
      </trkpt>
      <trkpt lat="47.28083" lon="4.93145">
        <ele>565</ele>
        <time>2012-03-25T10:13:44Z</time>
      </trkpt>
      <trkpt lat="47.28102" lon="4.93142">
        <ele>568</ele>
        <time>2012-03-25T10:13:48Z</time>
      </trkpt>
      <trkpt lat="47.2812" lon="4.93153">
        <ele>567</ele>
        <time>2012-03-25T10:13:52Z</time>
      </trkpt>
      <trkpt lat="47.28137" lon="4.93172">
        <ele>567</ele>
        <time>2012-03-25T10:13:56Z</time>
      </trkpt>
      <trkpt lat="47.2816" lon="4.93197">
        <ele>567</ele>
        <time>2012-03-25T10:14:02Z</time>
      </trkpt>
      <trkpt lat="47.28175" lon="4.93213">
        <ele>570</ele>
        <time>2012-03-25T10:14:06Z</time>
      </trkpt>
      <trkpt lat="47.2818" lon="4.93238">
        <ele>575</ele>
        <time>2012-03-25T10:14:10Z</time>
      </trkpt>
      <trkpt lat="47.28188" lon="4.93282">
        <ele>574</ele>
        <time>2012-03-25T10:14:14Z</time>
      </trkpt>
      <trkpt lat="47.28202" lon="4.93312">
        <ele>571</ele>
        <time>2012-03-25T10:14:18Z</time>
      </trkpt>
      <trkpt lat="47.28217" lon="4.9333">
        <ele>568</ele>
        <time>2012-03-25T10:14:22Z</time>
      </trkpt>
      <trkpt lat="47.28235" lon="4.93347">
        <ele>571</ele>
        <time>2012-03-25T10:14:26Z</time>
      </trkpt>
      <trkpt lat="47.28265" lon="4.93378">
        <ele>573</ele>
        <time>2012-03-25T10:14:32Z</time>
      </trkpt>
      <trkpt lat="47.28277" lon="4.93388">
        <ele>573</ele>
        <time>2012-03-25T10:14:34Z</time>
      </trkpt>
      <trkpt lat="47.28298" lon="4.934">
        <ele>573</ele>
        <time>2012-03-25T10:14:39Z</time>
      </trkpt>
      <trkpt lat="47.28317" lon="4.93408">
        <ele>570</ele>
        <time>2012-03-25T10:14:43Z</time>
      </trkpt>
      <trkpt lat="47.28333" lon="4.93408">
        <ele>563</ele>
        <time>2012-03-25T10:14:47Z</time>
      </trkpt>
      <trkpt lat="47.28348" lon="4.93407">
        <ele>557</ele>
        <time>2012-03-25T10:14:51Z</time>
      </trkpt>
      <trkpt lat="47.28342" lon="4.93432">
        <ele>554</ele>
        <time>2012-03-25T10:14:59Z</time>
      </trkpt>
      <trkpt lat="47.28332" lon="4.9345">
        <ele>548</ele>
        <time>2012-03-25T10:15:03Z</time>
      </trkpt>
      <trkpt lat="47.28322" lon="4.93465">
        <ele>545</ele>
        <time>2012-03-25T10:15:07Z</time>
      </trkpt>
      <trkpt lat="47.28308" lon="4.9349">
        <ele>546</ele>
        <time>2012-03-25T10:15:11Z</time>
      </trkpt>
      <trkpt lat="47.28295" lon="4.93505">
        <ele>545</ele>
        <time>2012-03-25T10:15:17Z</time>
      </trkpt>
      <trkpt lat="47.28283" lon="4.93523">
        <ele>554</ele>
        <time>2012-03-25T10:15:22Z</time>
      </trkpt>
      <trkpt lat="47.28258" lon="4.93542">
        <ele>539</ele>
        <time>2012-03-25T10:15:30Z</time>
      </trkpt>
      <trkpt lat="47.28227" lon="4.93558">
        <ele>534</ele>
        <time>2012-03-25T10:15:34Z</time>
      </trkpt>
      <trkpt lat="47.28175" lon="4.93587">
        <ele>523</ele>
        <time>2012-03-25T10:15:40Z</time>
      </trkpt>
      <trkpt lat="47.28067" lon="4.93657">
        <ele>500</ele>
        <time>2012-03-25T10:15:59Z</time>
      </trkpt>
      <trkpt lat="47.28077" lon="4.93673">
        <ele>495</ele>
        <time>2012-03-25T10:16:03Z</time>
      </trkpt>
      <trkpt lat="47.28095" lon="4.93687">
        <ele>493</ele>
        <time>2012-03-25T10:16:07Z</time>
      </trkpt>
      <trkpt lat="47.2811" lon="4.93697">
        <ele>489</ele>
        <time>2012-03-25T10:16:11Z</time>
      </trkpt>
      <trkpt lat="47.28123" lon="4.93708">
        <ele>489</ele>
        <time>2012-03-25T10:16:15Z</time>
      </trkpt>
      <trkpt lat="47.2814" lon="4.93723">
        <ele>489</ele>
        <time>2012-03-25T10:16:19Z</time>
      </trkpt>
      <trkpt lat="47.28155" lon="4.9374">
        <ele>488</ele>
        <time>2012-03-25T10:16:23Z</time>
      </trkpt>
      <trkpt lat="47.2817" lon="4.93755">
        <ele>490</ele>
        <time>2012-03-25T10:16:27Z</time>
      </trkpt>
      <trkpt lat="47.28282" lon="4.93878">
        <ele>492</ele>
        <time>2012-03-25T10:16:52Z</time>
      </trkpt>
      <trkpt lat="47.2837" lon="4.93978">
        <ele>487</ele>
        <time>2012-03-25T10:17:10Z</time>
      </trkpt>
      <trkpt lat="47.2839" lon="4.94">
        <ele>488</ele>
        <time>2012-03-25T10:17:14Z</time>
      </trkpt>
      <trkpt lat="47.284" lon="4.94013">
        <ele>486</ele>
        <time>2012-03-25T10:17:16Z</time>
      </trkpt>
      <trkpt lat="47.28418" lon="4.94038">
        <ele>484</ele>
        <time>2012-03-25T10:17:20Z</time>
      </trkpt>
      <trkpt lat="47.2843" lon="4.94048">
        <ele>484</ele>
        <time>2012-03-25T10:17:22Z</time>
      </trkpt>
      <trkpt lat="47.2844" lon="4.94062">
        <ele>483</ele>
        <time>2012-03-25T10:17:24Z</time>
      </trkpt>
      <trkpt lat="47.28462" lon="4.94082">
        <ele>481</ele>
        <time>2012-03-25T10:17:28Z</time>
      </trkpt>
      <trkpt lat="47.28483" lon="4.94097">
        <ele>480</ele>
        <time>2012-03-25T10:17:32Z</time>
      </trkpt>
      <trkpt lat="47.28493" lon="4.94112">
        <ele>479</ele>
        <time>2012-03-25T10:17:34Z</time>
      </trkpt>
      <trkpt lat="47.28503" lon="4.9413">
        <ele>478</ele>
        <time>2012-03-25T10:17:36Z</time>
      </trkpt>
      <trkpt lat="47.28542" lon="4.94203">
        <ele>479</ele>
        <time>2012-03-25T10:17:44Z</time>
      </trkpt>
      <trkpt lat="47.28562" lon="4.9423">
        <ele>478</ele>
        <time>2012-03-25T10:17:48Z</time>
      </trkpt>
      <trkpt lat="47.28578" lon="4.9426">
        <ele>478</ele>
        <time>2012-03-25T10:17:52Z</time>
      </trkpt>
      <trkpt lat="47.28605" lon="4.94305">
        <ele>473</ele>
        <time>2012-03-25T10:17:59Z</time>
      </trkpt>
      <trkpt lat="47.28617" lon="4.94323">
        <ele>470</ele>
        <time>2012-03-25T10:18:01Z</time>
      </trkpt>
      <trkpt lat="47.28642" lon="4.94353">
        <ele>465</ele>
        <time>2012-03-25T10:18:05Z</time>
      </trkpt>
      <trkpt lat="47.28667" lon="4.94385">
        <ele>462</ele>
        <time>2012-03-25T10:18:09Z</time>
      </trkpt>
      <trkpt lat="47.28693" lon="4.94412">
        <ele>456</ele>
        <time>2012-03-25T10:18:13Z</time>
      </trkpt>
      <trkpt lat="47.28778" lon="4.94505">
        <ele>450</ele>
        <time>2012-03-25T10:18:25Z</time>
      </trkpt>
      <trkpt lat="47.28788" lon="4.94518">
        <ele>448</ele>
        <time>2012-03-25T10:18:27Z</time>
      </trkpt>
      <trkpt lat="47.28883" lon="4.94643">
        <ele>443</ele>
        <time>2012-03-25T10:18:44Z</time>
      </trkpt>
      <trkpt lat="47.2891" lon="4.94672">
        <ele>440</ele>
        <time>2012-03-25T10:18:48Z</time>
      </trkpt>
      <trkpt lat="47.28925" lon="4.94685">
        <ele>438</ele>
        <time>2012-03-25T10:18:50Z</time>
      </trkpt>
      <trkpt lat="47.2897" lon="4.94722">
        <ele>436</ele>
        <time>2012-03-25T10:18:56Z</time>
      </trkpt>
      <trkpt lat="47.28998" lon="4.94747">
        <ele>438</ele>
        <time>2012-03-25T10:19:00Z</time>
      </trkpt>
      <trkpt lat="47.2905" lon="4.94798">
        <ele>432</ele>
        <time>2012-03-25T10:19:06Z</time>
      </trkpt>
      <trkpt lat="47.29063" lon="4.94817">
        <ele>431</ele>
        <time>2012-03-25T10:19:08Z</time>
      </trkpt>
      <trkpt lat="47.29078" lon="4.94832">
        <ele>429</ele>
        <time>2012-03-25T10:19:10Z</time>
      </trkpt>
      <trkpt lat="47.29093" lon="4.94847">
        <ele>428</ele>
        <time>2012-03-25T10:19:12Z</time>
      </trkpt>
      <trkpt lat="47.29108" lon="4.94858">
        <ele>427</ele>
        <time>2012-03-25T10:19:14Z</time>
      </trkpt>
      <trkpt lat="47.2914" lon="4.94877">
        <ele>424</ele>
        <time>2012-03-25T10:19:19Z</time>
      </trkpt>
      <trkpt lat="47.29155" lon="4.94885">
        <ele>423</ele>
        <time>2012-03-25T10:19:21Z</time>
      </trkpt>
      <trkpt lat="47.29187" lon="4.94907">
        <ele>421</ele>
        <time>2012-03-25T10:19:27Z</time>
      </trkpt>
      <trkpt lat="47.292" lon="4.9492">
        <ele>423</ele>
        <time>2012-03-25T10:19:33Z</time>
      </trkpt>
      <trkpt lat="47.29212" lon="4.94935">
        <ele>424</ele>
        <time>2012-03-25T10:19:37Z</time>
      </trkpt>
      <trkpt lat="47.29242" lon="4.94977">
        <ele>422</ele>
        <time>2012-03-25T10:19:45Z</time>
      </trkpt>
      <trkpt lat="47.2928" lon="4.95037">
        <ele>420</ele>
        <time>2012-03-25T10:19:53Z</time>
      </trkpt>
      <trkpt lat="47.29345" lon="4.95138">
        <ele>425</ele>
        <time>2012-03-25T10:20:14Z</time>
      </trkpt>
      <trkpt lat="47.29357" lon="4.95153">
        <ele>423</ele>
        <time>2012-03-25T10:20:18Z</time>
      </trkpt>
      <trkpt lat="47.29372" lon="4.95178">
        <ele>424</ele>
        <time>2012-03-25T10:20:24Z</time>
      </trkpt>
      <trkpt lat="47.29397" lon="4.95217">
        <ele>428</ele>
        <time>2012-03-25T10:20:32Z</time>
      </trkpt>
      <trkpt lat="47.29417" lon="4.95248">
        <ele>428</ele>
        <time>2012-03-25T10:20:40Z</time>
      </trkpt>
      <trkpt lat="47.29428" lon="4.95265">
        <ele>428</ele>
        <time>2012-03-25T10:20:45Z</time>
      </trkpt>
      <trkpt lat="47.29438" lon="4.95282">
        <ele>428</ele>
        <time>2012-03-25T10:20:49Z</time>
      </trkpt>
      <trkpt lat="47.29448" lon="4.95297">
        <ele>428</ele>
        <time>2012-03-25T10:20:53Z</time>
      </trkpt>
      <trkpt lat="47.2946" lon="4.9531">
        <ele>427</ele>
        <time>2012-03-25T10:20:57Z</time>
      </trkpt>
      <trkpt lat="47.29477" lon="4.95333">
        <ele>428</ele>
        <time>2012-03-25T10:21:03Z</time>
      </trkpt>
      <trkpt lat="47.29495" lon="4.95357">
        <ele>430</ele>
        <time>2012-03-25T10:21:09Z</time>
      </trkpt>
      <trkpt lat="47.29508" lon="4.95372">
        <ele>429</ele>
        <time>2012-03-25T10:21:13Z</time>
      </trkpt>
      <trkpt lat="47.29535" lon="4.95405">
        <ele>429</ele>
        <time>2012-03-25T10:21:21Z</time>
      </trkpt>
      <trkpt lat="47.29548" lon="4.95422">
        <ele>428</ele>
        <time>2012-03-25T10:21:25Z</time>
      </trkpt>
      <trkpt lat="47.29572" lon="4.95455">
        <ele>427</ele>
        <time>2012-03-25T10:21:33Z</time>
      </trkpt>
      <trkpt lat="47.29583" lon="4.95475">
        <ele>427</ele>
        <time>2012-03-25T10:21:38Z</time>
      </trkpt>
      <trkpt lat="47.29595" lon="4.95493">
        <ele>428</ele>
        <time>2012-03-25T10:21:42Z</time>
      </trkpt>
      <trkpt lat="47.29615" lon="4.95523">
        <ele>429</ele>
        <time>2012-03-25T10:21:48Z</time>
      </trkpt>
      <trkpt lat="47.29638" lon="4.95558">
        <ele>429</ele>
        <time>2012-03-25T10:21:56Z</time>
      </trkpt>
      <trkpt lat="47.2965" lon="4.95575">
        <ele>429</ele>
        <time>2012-03-25T10:22:00Z</time>
      </trkpt>
      <trkpt lat="47.29662" lon="4.9559">
        <ele>430</ele>
        <time>2012-03-25T10:22:04Z</time>
      </trkpt>
      <trkpt lat="47.2967" lon="4.95607">
        <ele>431</ele>
        <time>2012-03-25T10:22:08Z</time>
      </trkpt>
      <trkpt lat="47.29678" lon="4.95625">
        <ele>429</ele>
        <time>2012-03-25T10:22:12Z</time>
      </trkpt>
      <trkpt lat="47.29687" lon="4.95647">
        <ele>429</ele>
        <time>2012-03-25T10:22:16Z</time>
      </trkpt>
      <trkpt lat="47.297" lon="4.95672">
        <ele>427</ele>
        <time>2012-03-25T10:22:20Z</time>
      </trkpt>
      <trkpt lat="47.29738" lon="4.95742">
        <ele>425</ele>
        <time>2012-03-25T10:22:33Z</time>
      </trkpt>
      <trkpt lat="47.29803" lon="4.95878">
        <ele>417</ele>
        <time>2012-03-25T10:22:53Z</time>
      </trkpt>
      <trkpt lat="47.2982" lon="4.95908">
        <ele>415</ele>
        <time>2012-03-25T10:22:57Z</time>
      </trkpt>
      <trkpt lat="47.2984" lon="4.95945">
        <ele>416</ele>
        <time>2012-03-25T10:23:04Z</time>
      </trkpt>
      <trkpt lat="47.29852" lon="4.95965">
        <ele>417</ele>
        <time>2012-03-25T10:23:08Z</time>
      </trkpt>
      <trkpt lat="47.29865" lon="4.95992">
        <ele>418</ele>
        <time>2012-03-25T10:23:14Z</time>
      </trkpt>
      <trkpt lat="47.29875" lon="4.9601">
        <ele>420</ele>
        <time>2012-03-25T10:23:18Z</time>
      </trkpt>
      <trkpt lat="47.29883" lon="4.96027">
        <ele>420</ele>
        <time>2012-03-25T10:23:22Z</time>
      </trkpt>
      <trkpt lat="47.29892" lon="4.96043">
        <ele>419</ele>
        <time>2012-03-25T10:23:26Z</time>
      </trkpt>
      <trkpt lat="47.29908" lon="4.96072">
        <ele>418</ele>
        <time>2012-03-25T10:23:32Z</time>
      </trkpt>
      <trkpt lat="47.29925" lon="4.961">
        <ele>418</ele>
        <time>2012-03-25T10:23:38Z</time>
      </trkpt>
      <trkpt lat="47.29935" lon="4.96117">
        <ele>420</ele>
        <time>2012-03-25T10:23:42Z</time>
      </trkpt>
      <trkpt lat="47.29953" lon="4.96145">
        <ele>422</ele>
        <time>2012-03-25T10:23:48Z</time>
      </trkpt>
      <trkpt lat="47.29962" lon="4.96165">
        <ele>421</ele>
        <time>2012-03-25T10:23:52Z</time>
      </trkpt>
      <trkpt lat="47.29972" lon="4.9618">
        <ele>421</ele>
        <time>2012-03-25T10:23:57Z</time>
      </trkpt>
      <trkpt lat="47.29985" lon="4.96187">
        <ele>421</ele>
        <time>2012-03-25T10:24:01Z</time>
      </trkpt>
      <trkpt lat="47.30003" lon="4.96175">
        <ele>421</ele>
        <time>2012-03-25T10:24:07Z</time>
      </trkpt>
      <trkpt lat="47.30017" lon="4.96193">
        <ele>422</ele>
        <time>2012-03-25T10:24:11Z</time>
      </trkpt>
      <trkpt lat="47.30027" lon="4.96217">
        <ele>422</ele>
        <time>2012-03-25T10:24:15Z</time>
      </trkpt>
      <trkpt lat="47.30033" lon="4.96242">
        <ele>423</ele>
        <time>2012-03-25T10:24:21Z</time>
      </trkpt>
      <trkpt lat="47.3002" lon="4.9626">
        <ele>422</ele>
        <time>2012-03-25T10:24:26Z</time>
      </trkpt>
      <trkpt lat="47.30017" lon="4.96283">
        <ele>421</ele>
        <time>2012-03-25T10:24:30Z</time>
      </trkpt>
      <trkpt lat="47.30025" lon="4.96307">
        <ele>423</ele>
        <time>2012-03-25T10:24:34Z</time>
      </trkpt>
      <trkpt lat="47.30035" lon="4.96332">
        <ele>426</ele>
        <time>2012-03-25T10:24:38Z</time>
      </trkpt>
      <trkpt lat="47.30042" lon="4.96357">
        <ele>426</ele>
        <time>2012-03-25T10:24:42Z</time>
      </trkpt>
      <trkpt lat="47.30047" lon="4.9638">
        <ele>428</ele>
        <time>2012-03-25T10:24:46Z</time>
      </trkpt>
      <trkpt lat="47.30062" lon="4.96435">
        <ele>427</ele>
        <time>2012-03-25T10:24:54Z</time>
      </trkpt>
      <trkpt lat="47.30068" lon="4.96458">
        <ele>428</ele>
        <time>2012-03-25T10:24:58Z</time>
      </trkpt>
      <trkpt lat="47.30083" lon="4.96505">
        <ele>428</ele>
        <time>2012-03-25T10:25:06Z</time>
      </trkpt>
      <trkpt lat="47.30088" lon="4.9653">
        <ele>425</ele>
        <time>2012-03-25T10:25:10Z</time>
      </trkpt>
      <trkpt lat="47.30085" lon="4.9655">
        <ele>422</ele>
        <time>2012-03-25T10:25:15Z</time>
      </trkpt>
      <trkpt lat="47.30058" lon="4.9656">
        <ele>415</ele>
        <time>2012-03-25T10:25:19Z</time>
      </trkpt>
      <trkpt lat="47.30043" lon="4.96563">
        <ele>411</ele>
        <time>2012-03-25T10:25:21Z</time>
      </trkpt>
      <trkpt lat="47.30017" lon="4.96565">
        <ele>405</ele>
        <time>2012-03-25T10:25:25Z</time>
      </trkpt>
      <trkpt lat="47.29988" lon="4.96577">
        <ele>398</ele>
        <time>2012-03-25T10:25:29Z</time>
      </trkpt>
      <trkpt lat="47.29977" lon="4.96588">
        <ele>397</ele>
        <time>2012-03-25T10:25:31Z</time>
      </trkpt>
      <trkpt lat="47.29972" lon="4.9662">
        <ele>397</ele>
        <time>2012-03-25T10:25:35Z</time>
      </trkpt>
      <trkpt lat="47.2997" lon="4.96652">
        <ele>396</ele>
        <time>2012-03-25T10:25:39Z</time>
      </trkpt>
      <trkpt lat="47.29955" lon="4.96683">
        <ele>391</ele>
        <time>2012-03-25T10:25:43Z</time>
      </trkpt>
      <trkpt lat="47.29945" lon="4.96698">
        <ele>387</ele>
        <time>2012-03-25T10:25:45Z</time>
      </trkpt>
      <trkpt lat="47.29927" lon="4.9673">
        <ele>385</ele>
        <time>2012-03-25T10:25:49Z</time>
      </trkpt>
      <trkpt lat="47.2991" lon="4.96762">
        <ele>386</ele>
        <time>2012-03-25T10:25:53Z</time>
      </trkpt>
      <trkpt lat="47.2989" lon="4.968">
        <ele>390</ele>
        <time>2012-03-25T10:25:57Z</time>
      </trkpt>
      <trkpt lat="47.29883" lon="4.96832">
        <ele>392</ele>
        <time>2012-03-25T10:26:01Z</time>
      </trkpt>
      <trkpt lat="47.29858" lon="4.9691">
        <ele>393</ele>
        <time>2012-03-25T10:26:14Z</time>
      </trkpt>
      <trkpt lat="47.2985" lon="4.96945">
        <ele>392</ele>
        <time>2012-03-25T10:26:18Z</time>
      </trkpt>
      <trkpt lat="47.29845" lon="4.96982">
        <ele>391</ele>
        <time>2012-03-25T10:26:22Z</time>
      </trkpt>
      <trkpt lat="47.29833" lon="4.97052">
        <ele>387</ele>
        <time>2012-03-25T10:26:30Z</time>
      </trkpt>
      <trkpt lat="47.29835" lon="4.97085">
        <ele>386</ele>
        <time>2012-03-25T10:26:34Z</time>
      </trkpt>
      <trkpt lat="47.29838" lon="4.97115">
        <ele>388</ele>
        <time>2012-03-25T10:26:38Z</time>
      </trkpt>
      <trkpt lat="47.2984" lon="4.97143">
        <ele>389</ele>
        <time>2012-03-25T10:26:42Z</time>
      </trkpt>
      <trkpt lat="47.29843" lon="4.97165">
        <ele>390</ele>
        <time>2012-03-25T10:26:46Z</time>
      </trkpt>
      <trkpt lat="47.29827" lon="4.97182">
        <ele>390</ele>
        <time>2012-03-25T10:27:04Z</time>
      </trkpt>
      <trkpt lat="47.29812" lon="4.97188">
        <ele>389</ele>
        <time>2012-03-25T10:27:13Z</time>
      </trkpt>
      <trkpt lat="47.29793" lon="4.9719">
        <ele>390</ele>
        <time>2012-03-25T10:27:21Z</time>
      </trkpt>
      <trkpt lat="47.29778" lon="4.97192">
        <ele>391</ele>
        <time>2012-03-25T10:27:27Z</time>
      </trkpt>
      <trkpt lat="47.2976" lon="4.97185">
        <ele>390</ele>
        <time>2012-03-25T10:27:33Z</time>
      </trkpt>
      <trkpt lat="47.29738" lon="4.97178">
        <ele>391</ele>
        <time>2012-03-25T10:27:39Z</time>
      </trkpt>
      <trkpt lat="47.29722" lon="4.97182">
        <ele>392</ele>
        <time>2012-03-25T10:27:43Z</time>
      </trkpt>
      <trkpt lat="47.29708" lon="4.97187">
        <ele>392</ele>
        <time>2012-03-25T10:27:47Z</time>
      </trkpt>
      <trkpt lat="47.2968" lon="4.97205">
        <ele>391</ele>
        <time>2012-03-25T10:27:55Z</time>
      </trkpt>
      <trkpt lat="47.29663" lon="4.97193">
        <ele>392</ele>
        <time>2012-03-25T10:28:02Z</time>
      </trkpt>
      <trkpt lat="47.2965" lon="4.97183">
        <ele>392</ele>
        <time>2012-03-25T10:28:06Z</time>
      </trkpt>
      <trkpt lat="47.29635" lon="4.97173">
        <ele>393</ele>
        <time>2012-03-25T10:28:10Z</time>
      </trkpt>
      <trkpt lat="47.29623" lon="4.97152">
        <ele>393</ele>
        <time>2012-03-25T10:28:14Z</time>
      </trkpt>
      <trkpt lat="47.29612" lon="4.97132">
        <ele>392</ele>
        <time>2012-03-25T10:28:18Z</time>
      </trkpt>
      <trkpt lat="47.29602" lon="4.97118">
        <ele>392</ele>
        <time>2012-03-25T10:28:24Z</time>
      </trkpt>
      <trkpt lat="47.29587" lon="4.9711">
        <ele>393</ele>
        <time>2012-03-25T10:28:32Z</time>
      </trkpt>
      <trkpt lat="47.29582" lon="4.97088">
        <ele>395</ele>
        <time>2012-03-25T10:28:38Z</time>
      </trkpt>
      <trkpt lat="47.29568" lon="4.97085">
        <ele>395</ele>
        <time>2012-03-25T10:28:44Z</time>
      </trkpt>
      <trkpt lat="47.29548" lon="4.9709">
        <ele>393</ele>
        <time>2012-03-25T10:28:52Z</time>
      </trkpt>
      <trkpt lat="47.29533" lon="4.97098">
        <ele>391</ele>
        <time>2012-03-25T10:28:58Z</time>
      </trkpt>
      <trkpt lat="47.2952" lon="4.97113">
        <ele>389</ele>
        <time>2012-03-25T10:29:05Z</time>
      </trkpt>
      <trkpt lat="47.2951" lon="4.97128">
        <ele>388</ele>
        <time>2012-03-25T10:29:09Z</time>
      </trkpt>
      <trkpt lat="47.29495" lon="4.97155">
        <ele>387</ele>
        <time>2012-03-25T10:29:17Z</time>
      </trkpt>
      <trkpt lat="47.29485" lon="4.97175">
        <ele>390</ele>
        <time>2012-03-25T10:29:25Z</time>
      </trkpt>
      <trkpt lat="47.29475" lon="4.97197">
        <ele>389</ele>
        <time>2012-03-25T10:29:33Z</time>
      </trkpt>
      <trkpt lat="47.29465" lon="4.97213">
        <ele>389</ele>
        <time>2012-03-25T10:29:41Z</time>
      </trkpt>
      <trkpt lat="47.29453" lon="4.97228">
        <ele>389</ele>
        <time>2012-03-25T10:29:48Z</time>
      </trkpt>
      <trkpt lat="47.29438" lon="4.97238">
        <ele>387</ele>
        <time>2012-03-25T10:29:54Z</time>
      </trkpt>
      <trkpt lat="47.29412" lon="4.97265">
        <ele>386</ele>
        <time>2012-03-25T10:30:04Z</time>
      </trkpt>
      <trkpt lat="47.294" lon="4.97283">
        <ele>385</ele>
        <time>2012-03-25T10:30:08Z</time>
      </trkpt>
      <trkpt lat="47.29385" lon="4.97295">
        <ele>385</ele>
        <time>2012-03-25T10:30:12Z</time>
      </trkpt>
      <trkpt lat="47.29372" lon="4.97312">
        <ele>387</ele>
        <time>2012-03-25T10:30:16Z</time>
      </trkpt>
      <trkpt lat="47.2935" lon="4.97342">
        <ele>386</ele>
        <time>2012-03-25T10:30:22Z</time>
      </trkpt>
      <trkpt lat="47.29342" lon="4.97363">
        <ele>386</ele>
        <time>2012-03-25T10:30:26Z</time>
      </trkpt>
      <trkpt lat="47.29332" lon="4.97385">
        <ele>389</ele>
        <time>2012-03-25T10:30:30Z</time>
      </trkpt>
      <trkpt lat="47.29323" lon="4.97403">
        <ele>389</ele>
        <time>2012-03-25T10:30:34Z</time>
      </trkpt>
      <trkpt lat="47.29305" lon="4.97432">
        <ele>389</ele>
        <time>2012-03-25T10:30:41Z</time>
      </trkpt>
      <trkpt lat="47.29288" lon="4.97457">
        <ele>389</ele>
        <time>2012-03-25T10:30:47Z</time>
      </trkpt>
      <trkpt lat="47.2927" lon="4.97483">
        <ele>389</ele>
        <time>2012-03-25T10:30:53Z</time>
      </trkpt>
      <trkpt lat="47.29258" lon="4.97507">
        <ele>388</ele>
        <time>2012-03-25T10:30:57Z</time>
      </trkpt>
      <trkpt lat="47.29248" lon="4.97528">
        <ele>389</ele>
        <time>2012-03-25T10:31:01Z</time>
      </trkpt>
      <trkpt lat="47.29243" lon="4.97553">
        <ele>387</ele>
        <time>2012-03-25T10:31:05Z</time>
      </trkpt>
      <trkpt lat="47.29243" lon="4.97583">
        <ele>386</ele>
        <time>2012-03-25T10:31:09Z</time>
      </trkpt>
      <trkpt lat="47.29252" lon="4.97623">
        <ele>385</ele>
        <time>2012-03-25T10:31:13Z</time>
      </trkpt>
      <trkpt lat="47.2926" lon="4.97657">
        <ele>386</ele>
        <time>2012-03-25T10:31:17Z</time>
      </trkpt>
      <trkpt lat="47.29267" lon="4.97675">
        <ele>386</ele>
        <time>2012-03-25T10:31:21Z</time>
      </trkpt>
      <trkpt lat="47.29278" lon="4.97705">
        <ele>382</ele>
        <time>2012-03-25T10:31:27Z</time>
      </trkpt>
      <trkpt lat="47.29293" lon="4.97725">
        <ele>381</ele>
        <time>2012-03-25T10:31:31Z</time>
      </trkpt>
      <trkpt lat="47.2931" lon="4.97742">
        <ele>379</ele>
        <time>2012-03-25T10:31:37Z</time>
      </trkpt>
      <trkpt lat="47.29315" lon="4.97762">
        <ele>375</ele>
        <time>2012-03-25T10:31:43Z</time>
      </trkpt>
      <trkpt lat="47.29328" lon="4.9777">
        <ele>378</ele>
        <time>2012-03-25T10:32:02Z</time>
      </trkpt>
      <trkpt lat="47.2934" lon="4.9778">
        <ele>384</ele>
        <time>2012-03-25T10:32:28Z</time>
      </trkpt>
      <trkpt lat="47.29348" lon="4.97798">
        <ele>381</ele>
        <time>2012-03-25T10:32:53Z</time>
      </trkpt>
      <trkpt lat="47.29338" lon="4.97813">
        <ele>379</ele>
        <time>2012-03-25T10:33:01Z</time>
      </trkpt>
      <trkpt lat="47.29325" lon="4.97808">
        <ele>378</ele>
        <time>2012-03-25T10:33:05Z</time>
      </trkpt>
      <trkpt lat="47.29312" lon="4.97805">
        <ele>376</ele>
        <time>2012-03-25T10:33:09Z</time>
      </trkpt>
      <trkpt lat="47.29292" lon="4.97802">
        <ele>373</ele>
        <time>2012-03-25T10:33:15Z</time>
      </trkpt>
      <trkpt lat="47.29272" lon="4.97787">
        <ele>367</ele>
        <time>2012-03-25T10:33:21Z</time>
      </trkpt>
      <trkpt lat="47.29248" lon="4.97772">
        <ele>362</ele>
        <time>2012-03-25T10:33:27Z</time>
      </trkpt>
      <trkpt lat="47.2923" lon="4.97757">
        <ele>357</ele>
        <time>2012-03-25T10:33:33Z</time>
      </trkpt>
      <trkpt lat="47.2919" lon="4.97722">
        <ele>351</ele>
        <time>2012-03-25T10:33:43Z</time>
      </trkpt>
      <trkpt lat="47.29173" lon="4.9771">
        <ele>349</ele>
        <time>2012-03-25T10:33:47Z</time>
      </trkpt>
      <trkpt lat="47.29163" lon="4.97692">
        <ele>344</ele>
        <time>2012-03-25T10:33:54Z</time>
      </trkpt>
      <trkpt lat="47.29153" lon="4.97665">
        <ele>340</ele>
        <time>2012-03-25T10:34:00Z</time>
      </trkpt>
      <trkpt lat="47.2914" lon="4.97627">
        <ele>334</ele>
        <time>2012-03-25T10:34:06Z</time>
      </trkpt>
      <trkpt lat="47.29125" lon="4.97607">
        <ele>333</ele>
        <time>2012-03-25T10:34:10Z</time>
      </trkpt>
      <trkpt lat="47.29112" lon="4.97595">
        <ele>329</ele>
        <time>2012-03-25T10:34:14Z</time>
      </trkpt>
      <trkpt lat="47.29095" lon="4.97587">
        <ele>326</ele>
        <time>2012-03-25T10:34:20Z</time>
      </trkpt>
      <trkpt lat="47.29073" lon="4.97573">
        <ele>324</ele>
        <time>2012-03-25T10:34:26Z</time>
      </trkpt>
      <trkpt lat="47.29055" lon="4.97567">
        <ele>327</ele>
        <time>2012-03-25T10:34:30Z</time>
      </trkpt>
      <trkpt lat="47.29037" lon="4.97563">
        <ele>327</ele>
        <time>2012-03-25T10:34:34Z</time>
      </trkpt>
      <trkpt lat="47.29027" lon="4.97588">
        <ele>336</ele>
        <time>2012-03-25T10:34:42Z</time>
      </trkpt>
      <trkpt lat="47.29025" lon="4.9761">
        <ele>336</ele>
        <time>2012-03-25T10:34:46Z</time>
      </trkpt>
      <trkpt lat="47.2902" lon="4.97633">
        <ele>333</ele>
        <time>2012-03-25T10:34:50Z</time>
      </trkpt>
      <trkpt lat="47.2901" lon="4.97655">
        <ele>335</ele>
        <time>2012-03-25T10:34:54Z</time>
      </trkpt>
      <trkpt lat="47.29" lon="4.97673">
        <ele>330</ele>
        <time>2012-03-25T10:34:58Z</time>
      </trkpt>
      <trkpt lat="47.28987" lon="4.97698">
        <ele>328</ele>
        <time>2012-03-25T10:35:02Z</time>
      </trkpt>
      <trkpt lat="47.28968" lon="4.97723">
        <ele>326</ele>
        <time>2012-03-25T10:35:07Z</time>
      </trkpt>
      <trkpt lat="47.28922" lon="4.97775">
        <ele>316</ele>
        <time>2012-03-25T10:35:15Z</time>
      </trkpt>
      <trkpt lat="47.28908" lon="4.97785">
        <ele>317</ele>
        <time>2012-03-25T10:35:17Z</time>
      </trkpt>
      <trkpt lat="47.28898" lon="4.978">
        <ele>315</ele>
        <time>2012-03-25T10:35:19Z</time>
      </trkpt>
      <trkpt lat="47.28885" lon="4.97833">
        <ele>310</ele>
        <time>2012-03-25T10:35:23Z</time>
      </trkpt>
      <trkpt lat="47.2887" lon="4.97853">
        <ele>307</ele>
        <time>2012-03-25T10:35:27Z</time>
      </trkpt>
      <trkpt lat="47.28883" lon="4.97845">
        <ele>327</ele>
        <time>2012-03-25T10:35:56Z</time>
      </trkpt>
      <trkpt lat="47.28902" lon="4.97845">
        <ele>334</ele>
        <time>2012-03-25T10:36:08Z</time>
      </trkpt>
      <trkpt lat="47.28918" lon="4.9784">
        <ele>336</ele>
        <time>2012-03-25T10:36:20Z</time>
      </trkpt>
      <trkpt lat="47.28932" lon="4.97837">
        <ele>335</ele>
        <time>2012-03-25T10:36:26Z</time>
      </trkpt>
      <trkpt lat="47.28947" lon="4.9784">
        <ele>334</ele>
        <time>2012-03-25T10:36:34Z</time>
      </trkpt>
      <trkpt lat="47.28962" lon="4.97842">
        <ele>330</ele>
        <time>2012-03-25T10:36:42Z</time>
      </trkpt>
      <trkpt lat="47.28977" lon="4.97853">
        <ele>329</ele>
        <time>2012-03-25T10:36:51Z</time>
      </trkpt>
      <trkpt lat="47.2899" lon="4.97862">
        <ele>327</ele>
        <time>2012-03-25T10:36:59Z</time>
      </trkpt>
      <trkpt lat="47.29003" lon="4.97868">
        <ele>331</ele>
        <time>2012-03-25T10:37:21Z</time>
      </trkpt>
      <trkpt lat="47.28988" lon="4.97865">
        <ele>333</ele>
        <time>2012-03-25T10:37:46Z</time>
      </trkpt>
      <trkpt lat="47.28973" lon="4.97857">
        <ele>333</ele>
        <time>2012-03-25T10:37:50Z</time>
      </trkpt>
      <trkpt lat="47.28953" lon="4.97852">
        <ele>332</ele>
        <time>2012-03-25T10:37:56Z</time>
      </trkpt>
      <trkpt lat="47.28938" lon="4.97848">
        <ele>329</ele>
        <time>2012-03-25T10:38:00Z</time>
      </trkpt>
      <trkpt lat="47.2892" lon="4.9785">
        <ele>325</ele>
        <time>2012-03-25T10:38:04Z</time>
      </trkpt>
      <trkpt lat="47.289" lon="4.97853">
        <ele>322</ele>
        <time>2012-03-25T10:38:10Z</time>
      </trkpt>
      <trkpt lat="47.28872" lon="4.97858">
        <ele>319</ele>
        <time>2012-03-25T10:38:16Z</time>
      </trkpt>
      <trkpt lat="47.28862" lon="4.97873">
        <ele>318</ele>
        <time>2012-03-25T10:38:20Z</time>
      </trkpt>
      <trkpt lat="47.2884" lon="4.97897">
        <ele>320</ele>
        <time>2012-03-25T10:38:26Z</time>
      </trkpt>
      <trkpt lat="47.28825" lon="4.97915">
        <ele>315</ele>
        <time>2012-03-25T10:38:30Z</time>
      </trkpt>
      <trkpt lat="47.28805" lon="4.97932">
        <ele>313</ele>
        <time>2012-03-25T10:38:34Z</time>
      </trkpt>
      <trkpt lat="47.28783" lon="4.97948">
        <ele>308</ele>
        <time>2012-03-25T10:38:38Z</time>
      </trkpt>
      <trkpt lat="47.28728" lon="4.97988">
        <ele>302</ele>
        <time>2012-03-25T10:38:48Z</time>
      </trkpt>
      <trkpt lat="47.28708" lon="4.98005">
        <ele>303</ele>
        <time>2012-03-25T10:38:53Z</time>
      </trkpt>
      <trkpt lat="47.28688" lon="4.98022">
        <ele>303</ele>
        <time>2012-03-25T10:38:57Z</time>
      </trkpt>
      <trkpt lat="47.2867" lon="4.98042">
        <ele>305</ele>
        <time>2012-03-25T10:39:01Z</time>
      </trkpt>
      <trkpt lat="47.28655" lon="4.98058">
        <ele>309</ele>
        <time>2012-03-25T10:39:05Z</time>
      </trkpt>
      <trkpt lat="47.28642" lon="4.98075">
        <ele>307</ele>
        <time>2012-03-25T10:39:09Z</time>
      </trkpt>
      <trkpt lat="47.28622" lon="4.98095">
        <ele>307</ele>
        <time>2012-03-25T10:39:13Z</time>
      </trkpt>
      <trkpt lat="47.28607" lon="4.98117">
        <ele>302</ele>
        <time>2012-03-25T10:39:17Z</time>
      </trkpt>
      <trkpt lat="47.28585" lon="4.98133">
        <ele>297</ele>
        <time>2012-03-25T10:39:21Z</time>
      </trkpt>
      <trkpt lat="47.28558" lon="4.98152">
        <ele>292</ele>
        <time>2012-03-25T10:39:25Z</time>
      </trkpt>
      <trkpt lat="47.28528" lon="4.98168">
        <ele>292</ele>
        <time>2012-03-25T10:39:30Z</time>
      </trkpt>
      <trkpt lat="47.28478" lon="4.98195">
        <ele>299</ele>
        <time>2012-03-25T10:39:38Z</time>
      </trkpt>
      <trkpt lat="47.28457" lon="4.98215">
        <ele>298</ele>
        <time>2012-03-25T10:39:42Z</time>
      </trkpt>
      <trkpt lat="47.28445" lon="4.98245">
        <ele>298</ele>
        <time>2012-03-25T10:39:46Z</time>
      </trkpt>
      <trkpt lat="47.28433" lon="4.98275">
        <ele>295</ele>
        <time>2012-03-25T10:39:50Z</time>
      </trkpt>
      <trkpt lat="47.28413" lon="4.98307">
        <ele>294</ele>
        <time>2012-03-25T10:39:54Z</time>
      </trkpt>
      <trkpt lat="47.28395" lon="4.9833">
        <ele>294</ele>
        <time>2012-03-25T10:39:58Z</time>
      </trkpt>
      <trkpt lat="47.28377" lon="4.98347">
        <ele>295</ele>
        <time>2012-03-25T10:40:02Z</time>
      </trkpt>
      <trkpt lat="47.28345" lon="4.98372">
        <ele>293</ele>
        <time>2012-03-25T10:40:09Z</time>
      </trkpt>
      <trkpt lat="47.28313" lon="4.98397">
        <ele>296</ele>
        <time>2012-03-25T10:40:15Z</time>
      </trkpt>
      <trkpt lat="47.28297" lon="4.98413">
        <ele>299</ele>
        <time>2012-03-25T10:40:19Z</time>
      </trkpt>
      <trkpt lat="47.28285" lon="4.98435">
        <ele>299</ele>
        <time>2012-03-25T10:40:23Z</time>
      </trkpt>
      <trkpt lat="47.2828" lon="4.9846">
        <ele>298</ele>
        <time>2012-03-25T10:40:27Z</time>
      </trkpt>
      <trkpt lat="47.2827" lon="4.98498">
        <ele>298</ele>
        <time>2012-03-25T10:40:33Z</time>
      </trkpt>
      <trkpt lat="47.28255" lon="4.9852">
        <ele>298</ele>
        <time>2012-03-25T10:40:37Z</time>
      </trkpt>
      <trkpt lat="47.28178" lon="4.98622">
        <ele>295</ele>
        <time>2012-03-25T10:40:55Z</time>
      </trkpt>
      <trkpt lat="47.28155" lon="4.9861">
        <ele>293</ele>
        <time>2012-03-25T10:41:00Z</time>
      </trkpt>
      <trkpt lat="47.2813" lon="4.98607">
        <ele>291</ele>
        <time>2012-03-25T10:41:04Z</time>
      </trkpt>
      <trkpt lat="47.28113" lon="4.9863">
        <ele>290</ele>
        <time>2012-03-25T10:41:08Z</time>
      </trkpt>
      <trkpt lat="47.28098" lon="4.9865">
        <ele>290</ele>
        <time>2012-03-25T10:41:12Z</time>
      </trkpt>
      <trkpt lat="47.28088" lon="4.9867">
        <ele>290</ele>
        <time>2012-03-25T10:41:16Z</time>
      </trkpt>
      <trkpt lat="47.28115" lon="4.9863">
        <ele>292</ele>
        <time>2012-03-25T10:41:34Z</time>
      </trkpt>
      <trkpt lat="47.28128" lon="4.98612">
        <ele>292</ele>
        <time>2012-03-25T10:41:38Z</time>
      </trkpt>
      <trkpt lat="47.28145" lon="4.98605">
        <ele>292</ele>
        <time>2012-03-25T10:41:42Z</time>
      </trkpt>
      <trkpt lat="47.2816" lon="4.98615">
        <ele>293</ele>
        <time>2012-03-25T10:41:46Z</time>
      </trkpt>
      <trkpt lat="47.28185" lon="4.98633">
        <ele>298</ele>
        <time>2012-03-25T10:41:55Z</time>
      </trkpt>
      <trkpt lat="47.28202" lon="4.9865">
        <ele>300</ele>
        <time>2012-03-25T10:42:01Z</time>
      </trkpt>
      <trkpt lat="47.28208" lon="4.98672">
        <ele>300</ele>
        <time>2012-03-25T10:42:05Z</time>
      </trkpt>
      <trkpt lat="47.28215" lon="4.98695">
        <ele>298</ele>
        <time>2012-03-25T10:42:09Z</time>
      </trkpt>
      <trkpt lat="47.28223" lon="4.98715">
        <ele>297</ele>
        <time>2012-03-25T10:42:13Z</time>
      </trkpt>
      <trkpt lat="47.28233" lon="4.98732">
        <ele>297</ele>
        <time>2012-03-25T10:42:17Z</time>
      </trkpt>
      <trkpt lat="47.28245" lon="4.98745">
        <ele>298</ele>
        <time>2012-03-25T10:42:21Z</time>
      </trkpt>
      <trkpt lat="47.28268" lon="4.98773">
        <ele>298</ele>
        <time>2012-03-25T10:42:29Z</time>
      </trkpt>
      <trkpt lat="47.28277" lon="4.98792">
        <ele>299</ele>
        <time>2012-03-25T10:42:33Z</time>
      </trkpt>
      <trkpt lat="47.28283" lon="4.9881">
        <ele>299</ele>
        <time>2012-03-25T10:42:37Z</time>
      </trkpt>
      <trkpt lat="47.2829" lon="4.98828">
        <ele>300</ele>
        <time>2012-03-25T10:42:41Z</time>
      </trkpt>
      <trkpt lat="47.28298" lon="4.98857">
        <ele>300</ele>
        <time>2012-03-25T10:42:48Z</time>
      </trkpt>
      <trkpt lat="47.28305" lon="4.98877">
        <ele>301</ele>
        <time>2012-03-25T10:42:52Z</time>
      </trkpt>
      <trkpt lat="47.28308" lon="4.989">
        <ele>300</ele>
        <time>2012-03-25T10:42:56Z</time>
      </trkpt>
      <trkpt lat="47.28318" lon="4.98968">
        <ele>301</ele>
        <time>2012-03-25T10:43:08Z</time>
      </trkpt>
      <trkpt lat="47.28325" lon="4.99">
        <ele>301</ele>
        <time>2012-03-25T10:43:12Z</time>
      </trkpt>
      <trkpt lat="47.28333" lon="4.99042">
        <ele>301</ele>
        <time>2012-03-25T10:43:18Z</time>
      </trkpt>
      <trkpt lat="47.2834" lon="4.99088">
        <ele>300</ele>
        <time>2012-03-25T10:43:24Z</time>
      </trkpt>
      <trkpt lat="47.2834" lon="4.99128">
        <ele>298</ele>
        <time>2012-03-25T10:43:30Z</time>
      </trkpt>
      <trkpt lat="47.28322" lon="4.9915">
        <ele>297</ele>
        <time>2012-03-25T10:43:35Z</time>
      </trkpt>
      <trkpt lat="47.28307" lon="4.99173">
        <ele>295</ele>
        <time>2012-03-25T10:43:39Z</time>
      </trkpt>
      <trkpt lat="47.28308" lon="4.99202">
        <ele>294</ele>
        <time>2012-03-25T10:43:43Z</time>
      </trkpt>
      <trkpt lat="47.28302" lon="4.99235">
        <ele>292</ele>
        <time>2012-03-25T10:43:47Z</time>
      </trkpt>
      <trkpt lat="47.28287" lon="4.99262">
        <ele>289</ele>
        <time>2012-03-25T10:43:51Z</time>
      </trkpt>
      <trkpt lat="47.28283" lon="4.99287">
        <ele>288</ele>
        <time>2012-03-25T10:43:55Z</time>
      </trkpt>
      <trkpt lat="47.28298" lon="4.99312">
        <ele>289</ele>
        <time>2012-03-25T10:43:59Z</time>
      </trkpt>
      <trkpt lat="47.28312" lon="4.9933">
        <ele>289</ele>
        <time>2012-03-25T10:44:03Z</time>
      </trkpt>
      <trkpt lat="47.28353" lon="4.99383">
        <ele>291</ele>
        <time>2012-03-25T10:44:14Z</time>
      </trkpt>
      <trkpt lat="47.2837" lon="4.99407">
        <ele>291</ele>
        <time>2012-03-25T10:44:18Z</time>
      </trkpt>
      <trkpt lat="47.28393" lon="4.99433">
        <ele>290</ele>
        <time>2012-03-25T10:44:24Z</time>
      </trkpt>
      <trkpt lat="47.28408" lon="4.99452">
        <ele>289</ele>
        <time>2012-03-25T10:44:28Z</time>
      </trkpt>
      <trkpt lat="47.28423" lon="4.99472">
        <ele>288</ele>
        <time>2012-03-25T10:44:32Z</time>
      </trkpt>
      <trkpt lat="47.2844" lon="4.99492">
        <ele>288</ele>
        <time>2012-03-25T10:44:36Z</time>
      </trkpt>
      <trkpt lat="47.28457" lon="4.99515">
        <ele>287</ele>
        <time>2012-03-25T10:44:40Z</time>
      </trkpt>
      <trkpt lat="47.28468" lon="4.99533">
        <ele>287</ele>
        <time>2012-03-25T10:44:42Z</time>
      </trkpt>
      <trkpt lat="47.28482" lon="4.99562">
        <ele>287</ele>
        <time>2012-03-25T10:44:46Z</time>
      </trkpt>
      <trkpt lat="47.28495" lon="4.9959">
        <ele>285</ele>
        <time>2012-03-25T10:44:50Z</time>
      </trkpt>
      <trkpt lat="47.28513" lon="4.9961">
        <ele>285</ele>
        <time>2012-03-25T10:44:55Z</time>
      </trkpt>
      <trkpt lat="47.28533" lon="4.99623">
        <ele>286</ele>
        <time>2012-03-25T10:44:59Z</time>
      </trkpt>
      <trkpt lat="47.28548" lon="4.99642">
        <ele>284</ele>
        <time>2012-03-25T10:45:03Z</time>
      </trkpt>
      <trkpt lat="47.28555" lon="4.99672">
        <ele>284</ele>
        <time>2012-03-25T10:45:07Z</time>
      </trkpt>
      <trkpt lat="47.28575" lon="4.99688">
        <ele>284</ele>
        <time>2012-03-25T10:45:11Z</time>
      </trkpt>
      <trkpt lat="47.28597" lon="4.997">
        <ele>284</ele>
        <time>2012-03-25T10:45:15Z</time>
      </trkpt>
      <trkpt lat="47.2869" lon="4.99758">
        <ele>284</ele>
        <time>2012-03-25T10:45:33Z</time>
      </trkpt>
      <trkpt lat="47.28708" lon="4.99772">
        <ele>285</ele>
        <time>2012-03-25T10:45:37Z</time>
      </trkpt>
      <trkpt lat="47.28725" lon="4.99788">
        <ele>284</ele>
        <time>2012-03-25T10:45:41Z</time>
      </trkpt>
      <trkpt lat="47.28742" lon="4.99802">
        <ele>285</ele>
        <time>2012-03-25T10:45:46Z</time>
      </trkpt>
      <trkpt lat="47.28763" lon="4.99813">
        <ele>284</ele>
        <time>2012-03-25T10:45:50Z</time>
      </trkpt>
      <trkpt lat="47.28785" lon="4.99823">
        <ele>284</ele>
        <time>2012-03-25T10:45:54Z</time>
      </trkpt>
      <trkpt lat="47.28832" lon="4.99843">
        <ele>283</ele>
        <time>2012-03-25T10:46:02Z</time>
      </trkpt>
      <trkpt lat="47.28875" lon="4.99863">
        <ele>282</ele>
        <time>2012-03-25T10:46:10Z</time>
      </trkpt>
      <trkpt lat="47.2893" lon="4.99883">
        <ele>280</ele>
        <time>2012-03-25T10:46:20Z</time>
      </trkpt>
      <trkpt lat="47.28968" lon="4.99898">
        <ele>279</ele>
        <time>2012-03-25T10:46:26Z</time>
      </trkpt>
      <trkpt lat="47.28988" lon="4.99912">
        <ele>280</ele>
        <time>2012-03-25T10:46:30Z</time>
      </trkpt>
      <trkpt lat="47.29028" lon="4.99942">
        <ele>278</ele>
        <time>2012-03-25T10:46:39Z</time>
      </trkpt>
      <trkpt lat="47.29057" lon="4.99962">
        <ele>279</ele>
        <time>2012-03-25T10:46:45Z</time>
      </trkpt>
      <trkpt lat="47.29075" lon="4.99975">
        <ele>280</ele>
        <time>2012-03-25T10:46:49Z</time>
      </trkpt>
      <trkpt lat="47.29093" lon="4.9999">
        <ele>281</ele>
        <time>2012-03-25T10:46:55Z</time>
      </trkpt>
      <trkpt lat="47.29107" lon="4.99997">
        <ele>281</ele>
        <time>2012-03-25T10:47:05Z</time>
      </trkpt>
      <trkpt lat="47.29122" lon="5.00002">
        <ele>280</ele>
        <time>2012-03-25T10:47:09Z</time>
      </trkpt>
      <trkpt lat="47.29187" lon="5.00027">
        <ele>285</ele>
        <time>2012-03-25T10:47:28Z</time>
      </trkpt>
      <trkpt lat="47.29212" lon="5.00037">
        <ele>284</ele>
        <time>2012-03-25T10:47:36Z</time>
      </trkpt>
      <trkpt lat="47.29222" lon="5.00013">
        <ele>285</ele>
        <time>2012-03-25T10:47:42Z</time>
      </trkpt>
      <trkpt lat="47.29227" lon="4.99983">
        <ele>291</ele>
        <time>2012-03-25T10:47:48Z</time>
      </trkpt>
      <trkpt lat="47.29232" lon="4.99952">
        <ele>296</ele>
        <time>2012-03-25T10:47:56Z</time>
      </trkpt>
      <trkpt lat="47.29237" lon="4.99928">
        <ele>295</ele>
        <time>2012-03-25T10:48:03Z</time>
      </trkpt>
      <trkpt lat="47.2926" lon="4.99942">
        <ele>293</ele>
        <time>2012-03-25T10:48:21Z</time>
      </trkpt>
      <trkpt lat="47.29278" lon="4.99947">
        <ele>290</ele>
        <time>2012-03-25T10:48:25Z</time>
      </trkpt>
      <trkpt lat="47.2931" lon="4.99955">
        <ele>285</ele>
        <time>2012-03-25T10:48:31Z</time>
      </trkpt>
      <trkpt lat="47.29315" lon="4.99985">
        <ele>284</ele>
        <time>2012-03-25T10:48:39Z</time>
      </trkpt>
      <trkpt lat="47.29313" lon="5.0001">
        <ele>285</ele>
        <time>2012-03-25T10:48:43Z</time>
      </trkpt>
      <trkpt lat="47.29335" lon="5.00022">
        <ele>281</ele>
        <time>2012-03-25T10:48:50Z</time>
      </trkpt>
      <trkpt lat="47.29355" lon="5.0002">
        <ele>281</ele>
        <time>2012-03-25T10:48:54Z</time>
      </trkpt>
      <trkpt lat="47.29378" lon="5.00023">
        <ele>282</ele>
        <time>2012-03-25T10:48:58Z</time>
      </trkpt>
      <trkpt lat="47.29428" lon="5.00027">
        <ele>283</ele>
        <time>2012-03-25T10:49:06Z</time>
      </trkpt>
      <trkpt lat="47.29453" lon="5.00025">
        <ele>283</ele>
        <time>2012-03-25T10:49:10Z</time>
      </trkpt>
      <trkpt lat="47.29482" lon="5.00027">
        <ele>282</ele>
        <time>2012-03-25T10:49:14Z</time>
      </trkpt>
      <trkpt lat="47.29505" lon="5.00037">
        <ele>281</ele>
        <time>2012-03-25T10:49:18Z</time>
      </trkpt>
      <trkpt lat="47.2953" lon="5.00045">
        <ele>280</ele>
        <time>2012-03-25T10:49:22Z</time>
      </trkpt>
      <trkpt lat="47.29553" lon="5.00048">
        <ele>281</ele>
        <time>2012-03-25T10:49:26Z</time>
      </trkpt>
      <trkpt lat="47.29602" lon="5.00053">
        <ele>282</ele>
        <time>2012-03-25T10:49:37Z</time>
      </trkpt>
      <trkpt lat="47.29627" lon="5.00055">
        <ele>284</ele>
        <time>2012-03-25T10:49:43Z</time>
      </trkpt>
      <trkpt lat="47.29645" lon="5.0006">
        <ele>284</ele>
        <time>2012-03-25T10:49:47Z</time>
      </trkpt>
      <trkpt lat="47.29723" lon="5.00087">
        <ele>283</ele>
        <time>2012-03-25T10:50:06Z</time>
      </trkpt>
      <trkpt lat="47.29738" lon="5.0009">
        <ele>284</ele>
        <time>2012-03-25T10:50:10Z</time>
      </trkpt>
      <trkpt lat="47.29757" lon="5.00093">
        <ele>285</ele>
        <time>2012-03-25T10:50:16Z</time>
      </trkpt>
      <trkpt lat="47.2977" lon="5.00098">
        <ele>284</ele>
        <time>2012-03-25T10:50:20Z</time>
      </trkpt>
      <trkpt lat="47.29783" lon="5.00103">
        <ele>285</ele>
        <time>2012-03-25T10:50:24Z</time>
      </trkpt>
      <trkpt lat="47.298" lon="5.00107">
        <ele>286</ele>
        <time>2012-03-25T10:50:28Z</time>
      </trkpt>
      <trkpt lat="47.29825" lon="5.0011">
        <ele>287</ele>
        <time>2012-03-25T10:50:36Z</time>
      </trkpt>
      <trkpt lat="47.29842" lon="5.00115">
        <ele>289</ele>
        <time>2012-03-25T10:50:42Z</time>
      </trkpt>
      <trkpt lat="47.29857" lon="5.00122">
        <ele>290</ele>
        <time>2012-03-25T10:50:49Z</time>
      </trkpt>
      <trkpt lat="47.29872" lon="5.00127">
        <ele>291</ele>
        <time>2012-03-25T10:50:55Z</time>
      </trkpt>
      <trkpt lat="47.29887" lon="5.00128">
        <ele>292</ele>
        <time>2012-03-25T10:51:01Z</time>
      </trkpt>
      <trkpt lat="47.29903" lon="5.00125">
        <ele>295</ele>
        <time>2012-03-25T10:51:07Z</time>
      </trkpt>
      <trkpt lat="47.29927" lon="5.00122">
        <ele>296</ele>
        <time>2012-03-25T10:51:13Z</time>
      </trkpt>
      <trkpt lat="47.29945" lon="5.0012">
        <ele>296</ele>
        <time>2012-03-25T10:51:17Z</time>
      </trkpt>
      <trkpt lat="47.29965" lon="5.0012">
        <ele>295</ele>
        <time>2012-03-25T10:51:21Z</time>
      </trkpt>
      <trkpt lat="47.29995" lon="5.0012">
        <ele>295</ele>
        <time>2012-03-25T10:51:27Z</time>
      </trkpt>
      <trkpt lat="47.30013" lon="5.00128">
        <ele>294</ele>
        <time>2012-03-25T10:51:32Z</time>
      </trkpt>
      <trkpt lat="47.30012" lon="5.00157">
        <ele>292</ele>
        <time>2012-03-25T10:51:36Z</time>
      </trkpt>
      <trkpt lat="47.30017" lon="5.0019">
        <ele>292</ele>
        <time>2012-03-25T10:51:40Z</time>
      </trkpt>
      <trkpt lat="47.30033" lon="5.0021">
        <ele>293</ele>
        <time>2012-03-25T10:51:44Z</time>
      </trkpt>
      <trkpt lat="47.30052" lon="5.0023">
        <ele>293</ele>
        <time>2012-03-25T10:51:48Z</time>
      </trkpt>
      <trkpt lat="47.3007" lon="5.00245">
        <ele>293</ele>
        <time>2012-03-25T10:51:52Z</time>
      </trkpt>
      <trkpt lat="47.30088" lon="5.0026">
        <ele>295</ele>
        <time>2012-03-25T10:51:56Z</time>
      </trkpt>
      <trkpt lat="47.30105" lon="5.0027">
        <ele>296</ele>
        <time>2012-03-25T10:52:00Z</time>
      </trkpt>
      <trkpt lat="47.30122" lon="5.00278">
        <ele>296</ele>
        <time>2012-03-25T10:52:04Z</time>
      </trkpt>
      <trkpt lat="47.30142" lon="5.0029">
        <ele>296</ele>
        <time>2012-03-25T10:52:08Z</time>
      </trkpt>
      <trkpt lat="47.30157" lon="5.00307">
        <ele>294</ele>
        <time>2012-03-25T10:52:12Z</time>
      </trkpt>
      <trkpt lat="47.30177" lon="5.00325">
        <ele>292</ele>
        <time>2012-03-25T10:52:16Z</time>
      </trkpt>
      <trkpt lat="47.302" lon="5.00337">
        <ele>291</ele>
        <time>2012-03-25T10:52:21Z</time>
      </trkpt>
      <trkpt lat="47.30237" lon="5.00357">
        <ele>290</ele>
        <time>2012-03-25T10:52:29Z</time>
      </trkpt>
      <trkpt lat="47.30252" lon="5.00368">
        <ele>290</ele>
        <time>2012-03-25T10:52:33Z</time>
      </trkpt>
      <trkpt lat="47.3027" lon="5.00377">
        <ele>288</ele>
        <time>2012-03-25T10:52:37Z</time>
      </trkpt>
      <trkpt lat="47.30288" lon="5.0039">
        <ele>288</ele>
        <time>2012-03-25T10:52:41Z</time>
      </trkpt>
      <trkpt lat="47.30295" lon="5.00422">
        <ele>286</ele>
        <time>2012-03-25T10:52:45Z</time>
      </trkpt>
      <trkpt lat="47.30298" lon="5.00448">
        <ele>283</ele>
        <time>2012-03-25T10:52:49Z</time>
      </trkpt>
      <trkpt lat="47.30313" lon="5.00463">
        <ele>281</ele>
        <time>2012-03-25T10:52:54Z</time>
      </trkpt>
      <trkpt lat="47.30335" lon="5.00475">
        <ele>279</ele>
        <time>2012-03-25T10:52:58Z</time>
      </trkpt>
      <trkpt lat="47.30358" lon="5.00482">
        <ele>278</ele>
        <time>2012-03-25T10:53:02Z</time>
      </trkpt>
      <trkpt lat="47.30383" lon="5.00488">
        <ele>276</ele>
        <time>2012-03-25T10:53:06Z</time>
      </trkpt>
      <trkpt lat="47.30407" lon="5.00482">
        <ele>275</ele>
        <time>2012-03-25T10:53:10Z</time>
      </trkpt>
      <trkpt lat="47.30427" lon="5.00483">
        <ele>275</ele>
        <time>2012-03-25T10:53:14Z</time>
      </trkpt>
      <trkpt lat="47.30473" lon="5.00492">
        <ele>274</ele>
        <time>2012-03-25T10:53:24Z</time>
      </trkpt>
      <trkpt lat="47.30475" lon="5.00533">
        <ele>271</ele>
        <time>2012-03-25T10:53:28Z</time>
      </trkpt>
      <trkpt lat="47.3048" lon="5.00557">
        <ele>270</ele>
        <time>2012-03-25T10:53:32Z</time>
      </trkpt>
      <trkpt lat="47.30497" lon="5.00555">
        <ele>269</ele>
        <time>2012-03-25T10:53:36Z</time>
      </trkpt>
      <trkpt lat="47.30527" lon="5.00545">
        <ele>267</ele>
        <time>2012-03-25T10:53:43Z</time>
      </trkpt>
      <trkpt lat="47.30533" lon="5.00578">
        <ele>265</ele>
        <time>2012-03-25T10:53:49Z</time>
      </trkpt>
      <trkpt lat="47.30533" lon="5.00613">
        <ele>264</ele>
        <time>2012-03-25T10:53:53Z</time>
      </trkpt>
      <trkpt lat="47.30533" lon="5.0066">
        <ele>261</ele>
        <time>2012-03-25T10:53:59Z</time>
      </trkpt>
      <trkpt lat="47.30542" lon="5.0068">
        <ele>261</ele>
        <time>2012-03-25T10:54:05Z</time>
      </trkpt>
      <trkpt lat="47.30557" lon="5.00678">
        <ele>262</ele>
        <time>2012-03-25T10:54:09Z</time>
      </trkpt>
      <trkpt lat="47.30575" lon="5.00678">
        <ele>263</ele>
        <time>2012-03-25T10:54:13Z</time>
      </trkpt>
      <trkpt lat="47.30595" lon="5.00678">
        <ele>263</ele>
        <time>2012-03-25T10:54:17Z</time>
      </trkpt>
      <trkpt lat="47.3062" lon="5.00678">
        <ele>263</ele>
        <time>2012-03-25T10:54:24Z</time>
      </trkpt>
      <trkpt lat="47.30623" lon="5.0071">
        <ele>261</ele>
        <time>2012-03-25T10:54:30Z</time>
      </trkpt>
      <trkpt lat="47.30623" lon="5.00738">
        <ele>259</ele>
        <time>2012-03-25T10:54:34Z</time>
      </trkpt>
      <trkpt lat="47.3062" lon="5.00772">
        <ele>258</ele>
        <time>2012-03-25T10:54:38Z</time>
      </trkpt>
      <trkpt lat="47.3062" lon="5.00805">
        <ele>257</ele>
        <time>2012-03-25T10:54:42Z</time>
      </trkpt>
      <trkpt lat="47.30618" lon="5.0084">
        <ele>256</ele>
        <time>2012-03-25T10:54:46Z</time>
      </trkpt>
      <trkpt lat="47.30618" lon="5.00873">
        <ele>256</ele>
        <time>2012-03-25T10:54:50Z</time>
      </trkpt>
      <trkpt lat="47.30615" lon="5.00913">
        <ele>256</ele>
        <time>2012-03-25T10:54:54Z</time>
      </trkpt>
      <trkpt lat="47.30623" lon="5.00935">
        <ele>257</ele>
        <time>2012-03-25T10:55:00Z</time>
      </trkpt>
      <trkpt lat="47.30642" lon="5.00938">
        <ele>258</ele>
        <time>2012-03-25T10:55:04Z</time>
      </trkpt>
      <trkpt lat="47.30663" lon="5.00942">
        <ele>256</ele>
        <time>2012-03-25T10:55:09Z</time>
      </trkpt>
      <trkpt lat="47.30685" lon="5.00947">
        <ele>255</ele>
        <time>2012-03-25T10:55:13Z</time>
      </trkpt>
      <trkpt lat="47.30707" lon="5.00963">
        <ele>255</ele>
        <time>2012-03-25T10:55:17Z</time>
      </trkpt>
      <trkpt lat="47.30722" lon="5.00988">
        <ele>255</ele>
        <time>2012-03-25T10:55:21Z</time>
      </trkpt>
      <trkpt lat="47.30767" lon="5.01063">
        <ele>257</ele>
        <time>2012-03-25T10:55:33Z</time>
      </trkpt>
      <trkpt lat="47.30782" lon="5.01083">
        <ele>256</ele>
        <time>2012-03-25T10:55:37Z</time>
      </trkpt>
      <trkpt lat="47.30798" lon="5.01102">
        <ele>256</ele>
        <time>2012-03-25T10:55:41Z</time>
      </trkpt>
      <trkpt lat="47.30813" lon="5.01122">
        <ele>257</ele>
        <time>2012-03-25T10:55:45Z</time>
      </trkpt>
      <trkpt lat="47.30833" lon="5.01157">
        <ele>257</ele>
        <time>2012-03-25T10:55:51Z</time>
      </trkpt>
      <trkpt lat="47.30842" lon="5.01187">
        <ele>257</ele>
        <time>2012-03-25T10:55:55Z</time>
      </trkpt>
      <trkpt lat="47.30862" lon="5.01202">
        <ele>257</ele>
        <time>2012-03-25T10:56:00Z</time>
      </trkpt>
      <trkpt lat="47.30878" lon="5.01225">
        <ele>258</ele>
        <time>2012-03-25T10:56:04Z</time>
      </trkpt>
      <trkpt lat="47.30893" lon="5.0125">
        <ele>259</ele>
        <time>2012-03-25T10:56:08Z</time>
      </trkpt>
      <trkpt lat="47.30932" lon="5.01313">
        <ele>258</ele>
        <time>2012-03-25T10:56:18Z</time>
      </trkpt>
      <trkpt lat="47.30942" lon="5.01338">
        <ele>257</ele>
        <time>2012-03-25T10:56:22Z</time>
      </trkpt>
      <trkpt lat="47.30922" lon="5.0137">
        <ele>255</ele>
        <time>2012-03-25T10:56:26Z</time>
      </trkpt>
      <trkpt lat="47.30912" lon="5.01383">
        <ele>255</ele>
        <time>2012-03-25T10:56:28Z</time>
      </trkpt>
      <trkpt lat="47.30862" lon="5.01455">
        <ele>253</ele>
        <time>2012-03-25T10:56:39Z</time>
      </trkpt>
      <trkpt lat="47.30858" lon="5.01475">
        <ele>253</ele>
        <time>2012-03-25T10:56:41Z</time>
      </trkpt>
      <trkpt lat="47.30872" lon="5.01508">
        <ele>254</ele>
        <time>2012-03-25T10:56:45Z</time>
      </trkpt>
      <trkpt lat="47.30893" lon="5.0155">
        <ele>254</ele>
        <time>2012-03-25T10:56:51Z</time>
      </trkpt>
      <trkpt lat="47.3098" lon="5.01707">
        <ele>250</ele>
        <time>2012-03-25T10:57:09Z</time>
      </trkpt>
      <trkpt lat="47.31102" lon="5.01918">
        <ele>248</ele>
        <time>2012-03-25T10:57:38Z</time>
      </trkpt>
      <trkpt lat="47.31112" lon="5.01933">
        <ele>247</ele>
        <time>2012-03-25T10:57:40Z</time>
      </trkpt>
      <trkpt lat="47.3113" lon="5.0196">
        <ele>247</ele>
        <time>2012-03-25T10:57:44Z</time>
      </trkpt>
      <trkpt lat="47.31153" lon="5.01995">
        <ele>247</ele>
        <time>2012-03-25T10:57:50Z</time>
      </trkpt>
      <trkpt lat="47.3117" lon="5.01993">
        <ele>246</ele>
        <time>2012-03-25T10:57:56Z</time>
      </trkpt>
      <trkpt lat="47.31188" lon="5.0198">
        <ele>244</ele>
        <time>2012-03-25T10:58:00Z</time>
      </trkpt>
      <trkpt lat="47.31202" lon="5.02">
        <ele>243</ele>
        <time>2012-03-25T10:58:05Z</time>
      </trkpt>
      <trkpt lat="47.31217" lon="5.02028">
        <ele>243</ele>
        <time>2012-03-25T10:58:09Z</time>
      </trkpt>
      <trkpt lat="47.31233" lon="5.02058">
        <ele>243</ele>
        <time>2012-03-25T10:58:13Z</time>
      </trkpt>
      <trkpt lat="47.31255" lon="5.02098">
        <ele>243</ele>
        <time>2012-03-25T10:58:19Z</time>
      </trkpt>
      <trkpt lat="47.3129" lon="5.02162">
        <ele>245</ele>
        <time>2012-03-25T10:58:29Z</time>
      </trkpt>
      <trkpt lat="47.31313" lon="5.02203">
        <ele>245</ele>
        <time>2012-03-25T10:58:35Z</time>
      </trkpt>
      <trkpt lat="47.31337" lon="5.02252">
        <ele>246</ele>
        <time>2012-03-25T10:58:43Z</time>
      </trkpt>
      <trkpt lat="47.31352" lon="5.02277">
        <ele>245</ele>
        <time>2012-03-25T10:58:47Z</time>
      </trkpt>
      <trkpt lat="47.31368" lon="5.0231">
        <ele>247</ele>
        <time>2012-03-25T10:58:54Z</time>
      </trkpt>
      <trkpt lat="47.31375" lon="5.02328">
        <ele>246</ele>
        <time>2012-03-25T10:58:58Z</time>
      </trkpt>
      <trkpt lat="47.31383" lon="5.02358">
        <ele>247</ele>
        <time>2012-03-25T10:59:04Z</time>
      </trkpt>
      <trkpt lat="47.31388" lon="5.02378">
        <ele>254</ele>
        <time>2012-03-25T10:59:08Z</time>
      </trkpt>
      <trkpt lat="47.31398" lon="5.02395">
        <ele>259</ele>
        <time>2012-03-25T10:59:12Z</time>
      </trkpt>
      <trkpt lat="47.31407" lon="5.02413">
        <ele>259</ele>
        <time>2012-03-25T10:59:16Z</time>
      </trkpt>
      <trkpt lat="47.31422" lon="5.02438">
        <ele>259</ele>
        <time>2012-03-25T10:59:20Z</time>
      </trkpt>
      <trkpt lat="47.31423" lon="5.02465">
        <ele>259</ele>
        <time>2012-03-25T10:59:24Z</time>
      </trkpt>
      <trkpt lat="47.31425" lon="5.02493">
        <ele>261</ele>
        <time>2012-03-25T10:59:29Z</time>
      </trkpt>
      <trkpt lat="47.31427" lon="5.02523">
        <ele>260</ele>
        <time>2012-03-25T10:59:33Z</time>
      </trkpt>
      <trkpt lat="47.31433" lon="5.02547">
        <ele>257</ele>
        <time>2012-03-25T10:59:37Z</time>
      </trkpt>
      <trkpt lat="47.31437" lon="5.02567">
        <ele>255</ele>
        <time>2012-03-25T10:59:41Z</time>
      </trkpt>
      <trkpt lat="47.31422" lon="5.02585">
        <ele>253</ele>
        <time>2012-03-25T10:59:47Z</time>
      </trkpt>
      <trkpt lat="47.31402" lon="5.02602">
        <ele>251</ele>
        <time>2012-03-25T10:59:51Z</time>
      </trkpt>
      <trkpt lat="47.31382" lon="5.02617">
        <ele>249</ele>
        <time>2012-03-25T10:59:55Z</time>
      </trkpt>
      <trkpt lat="47.31358" lon="5.02632">
        <ele>248</ele>
        <time>2012-03-25T10:59:59Z</time>
      </trkpt>
      <trkpt lat="47.3134" lon="5.02642">
        <ele>246</ele>
        <time>2012-03-25T11:00:04Z</time>
      </trkpt>
      <trkpt lat="47.3131" lon="5.0266">
        <ele>245</ele>
        <time>2012-03-25T11:00:10Z</time>
      </trkpt>
      <trkpt lat="47.31223" lon="5.02712">
        <ele>246</ele>
        <time>2012-03-25T11:00:30Z</time>
      </trkpt>
      <trkpt lat="47.31212" lon="5.02722">
        <ele>246</ele>
        <time>2012-03-25T11:00:34Z</time>
      </trkpt>
      <trkpt lat="47.31218" lon="5.0274">
        <ele>246</ele>
        <time>2012-03-25T11:00:40Z</time>
      </trkpt>
      <trkpt lat="47.31207" lon="5.02763">
        <ele>242</ele>
        <time>2012-03-25T11:00:47Z</time>
      </trkpt>
      <trkpt lat="47.31183" lon="5.02777">
        <ele>239</ele>
        <time>2012-03-25T11:00:51Z</time>
      </trkpt>
      <trkpt lat="47.3089" lon="5.02942">
        <ele>243</ele>
        <time>2012-03-25T11:01:46Z</time>
      </trkpt>
      <trkpt lat="47.3075" lon="5.03023">
        <ele>245</ele>
        <time>2012-03-25T11:02:13Z</time>
      </trkpt>
      <trkpt lat="47.30727" lon="5.03033">
        <ele>243</ele>
        <time>2012-03-25T11:02:17Z</time>
      </trkpt>
      <trkpt lat="47.30695" lon="5.0305">
        <ele>244</ele>
        <time>2012-03-25T11:02:23Z</time>
      </trkpt>
      <trkpt lat="47.30662" lon="5.03065">
        <ele>248</ele>
        <time>2012-03-25T11:02:29Z</time>
      </trkpt>
      <trkpt lat="47.30638" lon="5.03072">
        <ele>248</ele>
        <time>2012-03-25T11:02:33Z</time>
      </trkpt>
      <trkpt lat="47.30587" lon="5.0313">
        <ele>192</ele>
        <time>2012-03-25T11:02:39Z</time>
      </trkpt>
      <trkpt lat="47.30567" lon="5.0313">
        <ele>262</ele>
        <time>2012-03-25T11:02:50Z</time>
      </trkpt>
      <trkpt lat="47.30547" lon="5.03143">
        <ele>278</ele>
        <time>2012-03-25T11:02:55Z</time>
      </trkpt>
      <trkpt lat="47.30525" lon="5.03157">
        <ele>282</ele>
        <time>2012-03-25T11:03:00Z</time>
      </trkpt>
      <trkpt lat="47.30467" lon="5.03192">
        <ele>262</ele>
        <time>2012-03-25T11:03:08Z</time>
      </trkpt>
      <trkpt lat="47.30268" lon="5.03307">
        <ele>242</ele>
        <time>2012-03-25T11:03:43Z</time>
      </trkpt>
      <trkpt lat="47.30137" lon="5.03387">
        <ele>247</ele>
        <time>2012-03-25T11:04:07Z</time>
      </trkpt>
      <trkpt lat="47.30115" lon="5.034">
        <ele>249</ele>
        <time>2012-03-25T11:04:12Z</time>
      </trkpt>
      <trkpt lat="47.30062" lon="5.0343">
        <ele>245</ele>
        <time>2012-03-25T11:04:22Z</time>
      </trkpt>
      <trkpt lat="47.30032" lon="5.03448">
        <ele>246</ele>
        <time>2012-03-25T11:04:28Z</time>
      </trkpt>
      <trkpt lat="47.29982" lon="5.03475">
        <ele>243</ele>
        <time>2012-03-25T11:04:36Z</time>
      </trkpt>
      <trkpt lat="47.2992" lon="5.03513">
        <ele>244</ele>
        <time>2012-03-25T11:04:48Z</time>
      </trkpt>
      <trkpt lat="47.29807" lon="5.03583">
        <ele>242</ele>
        <time>2012-03-25T11:05:11Z</time>
      </trkpt>
      <trkpt lat="47.29787" lon="5.03598">
        <ele>242</ele>
        <time>2012-03-25T11:05:15Z</time>
      </trkpt>
      <trkpt lat="47.29767" lon="5.03618">
        <ele>241</ele>
        <time>2012-03-25T11:05:19Z</time>
      </trkpt>
      <trkpt lat="47.2975" lon="5.03638">
        <ele>240</ele>
        <time>2012-03-25T11:05:23Z</time>
      </trkpt>
      <trkpt lat="47.29668" lon="5.03738">
        <ele>241</ele>
        <time>2012-03-25T11:05:41Z</time>
      </trkpt>
      <trkpt lat="47.2957" lon="5.03865">
        <ele>241</ele>
        <time>2012-03-25T11:06:04Z</time>
      </trkpt>
      <trkpt lat="47.29423" lon="5.04048">
        <ele>237</ele>
        <time>2012-03-25T11:06:34Z</time>
      </trkpt>
      <trkpt lat="47.29403" lon="5.04065">
        <ele>237</ele>
        <time>2012-03-25T11:06:40Z</time>
      </trkpt>
      <trkpt lat="47.2939" lon="5.04083">
        <ele>236</ele>
        <time>2012-03-25T11:06:44Z</time>
      </trkpt>
      <trkpt lat="47.29365" lon="5.04118">
        <ele>236</ele>
        <time>2012-03-25T11:06:51Z</time>
      </trkpt>
      <trkpt lat="47.29332" lon="5.04163">
        <ele>236</ele>
        <time>2012-03-25T11:06:59Z</time>
      </trkpt>
      <trkpt lat="47.29297" lon="5.04205">
        <ele>236</ele>
        <time>2012-03-25T11:07:07Z</time>
      </trkpt>
      <trkpt lat="47.29278" lon="5.04228">
        <ele>235</ele>
        <time>2012-03-25T11:07:11Z</time>
      </trkpt>
      <trkpt lat="47.29253" lon="5.04258">
        <ele>235</ele>
        <time>2012-03-25T11:07:17Z</time>
      </trkpt>
      <trkpt lat="47.2924" lon="5.0428">
        <ele>235</ele>
        <time>2012-03-25T11:07:21Z</time>
      </trkpt>
      <trkpt lat="47.29238" lon="5.04308">
        <ele>235</ele>
        <time>2012-03-25T11:07:25Z</time>
      </trkpt>
      <trkpt lat="47.29228" lon="5.04458">
        <ele>235</ele>
        <time>2012-03-25T11:07:43Z</time>
      </trkpt>
      <trkpt lat="47.29225" lon="5.04487">
        <ele>235</ele>
        <time>2012-03-25T11:07:48Z</time>
      </trkpt>
      <trkpt lat="47.29208" lon="5.04508">
        <ele>235</ele>
        <time>2012-03-25T11:07:52Z</time>
      </trkpt>
      <trkpt lat="47.29197" lon="5.04538">
        <ele>236</ele>
        <time>2012-03-25T11:07:56Z</time>
      </trkpt>
      <trkpt lat="47.29192" lon="5.04573">
        <ele>237</ele>
        <time>2012-03-25T11:08:00Z</time>
      </trkpt>
      <trkpt lat="47.29187" lon="5.04612">
        <ele>237</ele>
        <time>2012-03-25T11:08:04Z</time>
      </trkpt>
      <trkpt lat="47.29185" lon="5.04633">
        <ele>238</ele>
        <time>2012-03-25T11:08:06Z</time>
      </trkpt>
      <trkpt lat="47.29177" lon="5.0471">
        <ele>243</ele>
        <time>2012-03-25T11:08:14Z</time>
      </trkpt>
      <trkpt lat="47.29177" lon="5.04738">
        <ele>245</ele>
        <time>2012-03-25T11:08:16Z</time>
      </trkpt>
      <trkpt lat="47.29177" lon="5.04758">
        <ele>247</ele>
        <time>2012-03-25T11:08:18Z</time>
      </trkpt>
      <trkpt lat="47.29173" lon="5.04813">
        <ele>247</ele>
        <time>2012-03-25T11:08:24Z</time>
      </trkpt>
      <trkpt lat="47.29167" lon="5.04868">
        <ele>246</ele>
        <time>2012-03-25T11:08:31Z</time>
      </trkpt>
      <trkpt lat="47.29157" lon="5.0492">
        <ele>245</ele>
        <time>2012-03-25T11:08:37Z</time>
      </trkpt>
      <trkpt lat="47.29143" lon="5.04955">
        <ele>243</ele>
        <time>2012-03-25T11:08:41Z</time>
      </trkpt>
      <trkpt lat="47.29123" lon="5.05003">
        <ele>241</ele>
        <time>2012-03-25T11:08:47Z</time>
      </trkpt>
      <trkpt lat="47.2911" lon="5.05035">
        <ele>239</ele>
        <time>2012-03-25T11:08:51Z</time>
      </trkpt>
      <trkpt lat="47.2909" lon="5.0508">
        <ele>238</ele>
        <time>2012-03-25T11:08:57Z</time>
      </trkpt>
      <trkpt lat="47.2907" lon="5.05115">
        <ele>238</ele>
        <time>2012-03-25T11:09:01Z</time>
      </trkpt>
      <trkpt lat="47.2901" lon="5.05222">
        <ele>237</ele>
        <time>2012-03-25T11:09:18Z</time>
      </trkpt>
      <trkpt lat="47.28992" lon="5.05245">
        <ele>237</ele>
        <time>2012-03-25T11:09:22Z</time>
      </trkpt>
      <trkpt lat="47.2897" lon="5.05257">
        <ele>238</ele>
        <time>2012-03-25T11:09:26Z</time>
      </trkpt>
      <trkpt lat="47.28965" lon="5.05277">
        <ele>239</ele>
        <time>2012-03-25T11:09:30Z</time>
      </trkpt>
      <trkpt lat="47.28978" lon="5.05283">
        <ele>239</ele>
        <time>2012-03-25T11:09:34Z</time>
      </trkpt>
      <trkpt lat="47.28993" lon="5.05292">
        <ele>236</ele>
        <time>2012-03-25T11:09:38Z</time>
      </trkpt>
      <trkpt lat="47.28988" lon="5.05312">
        <ele>235</ele>
        <time>2012-03-25T11:09:42Z</time>
      </trkpt>
      <trkpt lat="47.2898" lon="5.05335">
        <ele>232</ele>
        <time>2012-03-25T11:09:46Z</time>
      </trkpt>
      <trkpt lat="47.28968" lon="5.05352">
        <ele>232</ele>
        <time>2012-03-25T11:09:48Z</time>
      </trkpt>
      <trkpt lat="47.28945" lon="5.05387">
        <ele>229</ele>
        <time>2012-03-25T11:09:54Z</time>
      </trkpt>
      <trkpt lat="47.28925" lon="5.05417">
        <ele>230</ele>
        <time>2012-03-25T11:10:01Z</time>
      </trkpt>
      <trkpt lat="47.28912" lon="5.05438">
        <ele>230</ele>
        <time>2012-03-25T11:10:05Z</time>
      </trkpt>
      <trkpt lat="47.28897" lon="5.0546">
        <ele>231</ele>
        <time>2012-03-25T11:10:09Z</time>
      </trkpt>
      <trkpt lat="47.28885" lon="5.05478">
        <ele>232</ele>
        <time>2012-03-25T11:10:13Z</time>
      </trkpt>
      <trkpt lat="47.28895" lon="5.05508">
        <ele>234</ele>
        <time>2012-03-25T11:10:19Z</time>
      </trkpt>
      <trkpt lat="47.28903" lon="5.05525">
        <ele>233</ele>
        <time>2012-03-25T11:10:23Z</time>
      </trkpt>
      <trkpt lat="47.28892" lon="5.05545">
        <ele>233</ele>
        <time>2012-03-25T11:10:28Z</time>
      </trkpt>
      <trkpt lat="47.28873" lon="5.0558">
        <ele>235</ele>
        <time>2012-03-25T11:10:34Z</time>
      </trkpt>
      <trkpt lat="47.28853" lon="5.05617">
        <ele>237</ele>
        <time>2012-03-25T11:10:40Z</time>
      </trkpt>
      <trkpt lat="47.28845" lon="5.05645">
        <ele>237</ele>
        <time>2012-03-25T11:10:44Z</time>
      </trkpt>
      <trkpt lat="47.28832" lon="5.05673">
        <ele>237</ele>
        <time>2012-03-25T11:10:48Z</time>
      </trkpt>
      <trkpt lat="47.28757" lon="5.05825">
        <ele>231</ele>
        <time>2012-03-25T11:11:10Z</time>
      </trkpt>
      <trkpt lat="47.28735" lon="5.05873">
        <ele>231</ele>
        <time>2012-03-25T11:11:19Z</time>
      </trkpt>
      <trkpt lat="47.28723" lon="5.05897">
        <ele>231</ele>
        <time>2012-03-25T11:11:23Z</time>
      </trkpt>
      <trkpt lat="47.28692" lon="5.05958">
        <ele>232</ele>
        <time>2012-03-25T11:11:33Z</time>
      </trkpt>
      <trkpt lat="47.28682" lon="5.05983">
        <ele>231</ele>
        <time>2012-03-25T11:11:37Z</time>
      </trkpt>
      <trkpt lat="47.28672" lon="5.06008">
        <ele>230</ele>
        <time>2012-03-25T11:11:41Z</time>
      </trkpt>
      <trkpt lat="47.28655" lon="5.06053">
        <ele>234</ele>
        <time>2012-03-25T11:11:47Z</time>
      </trkpt>
      <trkpt lat="47.28643" lon="5.06075">
        <ele>235</ele>
        <time>2012-03-25T11:11:51Z</time>
      </trkpt>
      <trkpt lat="47.28627" lon="5.06105">
        <ele>237</ele>
        <time>2012-03-25T11:11:57Z</time>
      </trkpt>
      <trkpt lat="47.28615" lon="5.06122">
        <ele>237</ele>
        <time>2012-03-25T11:12:01Z</time>
      </trkpt>
      <trkpt lat="47.28602" lon="5.06138">
        <ele>237</ele>
        <time>2012-03-25T11:12:05Z</time>
      </trkpt>
      <trkpt lat="47.28592" lon="5.0616">
        <ele>236</ele>
        <time>2012-03-25T11:12:10Z</time>
      </trkpt>
      <trkpt lat="47.28577" lon="5.06192">
        <ele>237</ele>
        <time>2012-03-25T11:12:16Z</time>
      </trkpt>
      <trkpt lat="47.28567" lon="5.06212">
        <ele>236</ele>
        <time>2012-03-25T11:12:20Z</time>
      </trkpt>
      <trkpt lat="47.28562" lon="5.0624">
        <ele>242</ele>
        <time>2012-03-25T11:12:26Z</time>
      </trkpt>
      <trkpt lat="47.2857" lon="5.06262">
        <ele>241</ele>
        <time>2012-03-25T11:12:32Z</time>
      </trkpt>
      <trkpt lat="47.28583" lon="5.06267">
        <ele>241</ele>
        <time>2012-03-25T11:12:38Z</time>
      </trkpt>
      <trkpt lat="47.2858" lon="5.06292">
        <ele>245</ele>
        <time>2012-03-25T11:12:44Z</time>
      </trkpt>
      <trkpt lat="47.28575" lon="5.06313">
        <ele>243</ele>
        <time>2012-03-25T11:12:51Z</time>
      </trkpt>
      <trkpt lat="47.28587" lon="5.06323">
        <ele>240</ele>
        <time>2012-03-25T11:12:57Z</time>
      </trkpt>
      <trkpt lat="47.286" lon="5.06328">
        <ele>239</ele>
        <time>2012-03-25T11:13:03Z</time>
      </trkpt>
      <trkpt lat="47.28618" lon="5.06332">
        <ele>235</ele>
        <time>2012-03-25T11:13:13Z</time>
      </trkpt>
      <trkpt lat="47.28647" lon="5.06337">
        <ele>235</ele>
        <time>2012-03-25T11:13:24Z</time>
      </trkpt>
      <trkpt lat="47.28665" lon="5.06333">
        <ele>235</ele>
        <time>2012-03-25T11:13:30Z</time>
      </trkpt>
      <trkpt lat="47.28683" lon="5.06337">
        <ele>235</ele>
        <time>2012-03-25T11:13:38Z</time>
      </trkpt>
      <trkpt lat="47.28702" lon="5.06347">
        <ele>236</ele>
        <time>2012-03-25T11:13:42Z</time>
      </trkpt>
      <trkpt lat="47.28715" lon="5.06363">
        <ele>236</ele>
        <time>2012-03-25T11:13:46Z</time>
      </trkpt>
      <trkpt lat="47.2873" lon="5.06378">
        <ele>236</ele>
        <time>2012-03-25T11:13:50Z</time>
      </trkpt>
      <trkpt lat="47.28775" lon="5.06423">
        <ele>234</ele>
        <time>2012-03-25T11:14:03Z</time>
      </trkpt>
      <trkpt lat="47.28792" lon="5.06438">
        <ele>234</ele>
        <time>2012-03-25T11:14:07Z</time>
      </trkpt>
      <trkpt lat="47.28817" lon="5.06462">
        <ele>236</ele>
        <time>2012-03-25T11:14:13Z</time>
      </trkpt>
      <trkpt lat="47.2883" lon="5.06477">
        <ele>237</ele>
        <time>2012-03-25T11:14:17Z</time>
      </trkpt>
      <trkpt lat="47.28847" lon="5.06493">
        <ele>236</ele>
        <time>2012-03-25T11:14:21Z</time>
      </trkpt>
      <trkpt lat="47.28875" lon="5.06522">
        <ele>238</ele>
        <time>2012-03-25T11:14:30Z</time>
      </trkpt>
      <trkpt lat="47.28902" lon="5.0655">
        <ele>239</ele>
        <time>2012-03-25T11:14:38Z</time>
      </trkpt>
      <trkpt lat="47.28903" lon="5.06578">
        <ele>239</ele>
        <time>2012-03-25T11:14:44Z</time>
      </trkpt>
      <trkpt lat="47.28897" lon="5.06602">
        <ele>239</ele>
        <time>2012-03-25T11:14:48Z</time>
      </trkpt>
      <trkpt lat="47.2891" lon="5.06615">
        <ele>240</ele>
        <time>2012-03-25T11:14:52Z</time>
      </trkpt>
      <trkpt lat="47.2895" lon="5.0666">
        <ele>237</ele>
        <time>2012-03-25T11:15:02Z</time>
      </trkpt>
      <trkpt lat="47.28967" lon="5.06677">
        <ele>234</ele>
        <time>2012-03-25T11:15:06Z</time>
      </trkpt>
      <trkpt lat="47.28982" lon="5.06692">
        <ele>234</ele>
        <time>2012-03-25T11:15:11Z</time>
      </trkpt>
      <trkpt lat="47.28997" lon="5.06708">
        <ele>234</ele>
        <time>2012-03-25T11:15:15Z</time>
      </trkpt>
      <trkpt lat="47.29007" lon="5.06728">
        <ele>233</ele>
        <time>2012-03-25T11:15:19Z</time>
      </trkpt>
      <trkpt lat="47.29022" lon="5.06742">
        <ele>233</ele>
        <time>2012-03-25T11:15:25Z</time>
      </trkpt>
      <trkpt lat="47.29035" lon="5.06738">
        <ele>232</ele>
        <time>2012-03-25T11:15:51Z</time>
      </trkpt>
    </trkseg>
  </trk>
</gpx>